[[{"header":{"parameterUnit":"m.s-1","parameterCategory":1,"la1":31.0,"la2":29.5877,"lo1":-88.7671,"lo2":-86.6584,"dy":0.0162,"dx":0.0185,"nx":115,"ny":88,"refTime":"2024-04-09T06:00:00:Z","depth":0,"parameterNumber":2,"parameterNumberName":"U-component_of_WINDS"},"data":[0.0,0.0,0.0,0.0,0.0,0.0,0.0,0.0,0.0,0.0,0.0,0.0,0.0,0.0,0.0,0.0,0.0,0.0,0.0,0.0,0.0,0.0,0.0,0.0,0.0,0.0,0.0,0.0,0.0,0.0,0.0,0.0,0.0,0.0,0.0,0.0,0.0,0.0,0.0,0.0,0.0,0.0,0.0,0.0,0.0,0.0,0.0,0.0,0.0,0.0,0.0,0.0,0.0,0.0,0.0,0.0,0.0,0.0,0.0,0.0,0.0,0.0,0.0,0.0,0.0,0.0,0.0,0.0,0.0,0.0,0.0,0.0,0.0,0.0,0.0,0.0,0.0,0.0,0.0,0.0,0.0,0.0,0.0,0.0,0.0,0.0,0.0,0.0,0.0,0.0,0.0,0.0,0.0,0.0,0.0,0.0,0.0,0.0,0.0,0.0,0.0,0.0,0.0,0.0,0.0,0.0,0.0,0.0,0.0,0.0,0.0,0.0,0.0,0.0,0.0,0.0,0.0,0.0,0.0,0.0,0.0,0.0,0.0,0.0,0.0,0.0,0.0,0.0,0.0,0.0,0.0,0.0,0.0,0.0,0.0,0.0,0.0,0.0,0.0,0.0,0.0,0.0,0.0,0.0,0.0,0.0,0.0,0.0,0.0,0.0,0.0,0.0,0.0,0.0,0.0,0.0,0.0,0.0,0.0,0.0,0.0,0.0,0.0,0.0,0.0,0.0,0.0,0.0,0.0,0.0,0.0,0.0,0.0,0.0,0.0,0.0,0.0,0.0,0.0,0.0,0.0,0.0,0.0,0.0,0.0,0.0,0.0,0.0,0.0,0.0,0.0,0.0,0.0,0.0,0.0,0.0,0.0,0.0,0.0,0.0,0.0,0.0,0.0,0.0,0.0,0.0,0.0,0.0,0.0,0.0,0.0,0.0,0.0,0.0,0.0,0.0,0.0,0.0,0.0,0.0,0.0,0.0,0.0,0.0,0.0,0.0,0.0,0.0,0.0,0.0,0.0,0.0,0.0,0.0,0.0,0.0,0.0,0.0,0.0,0.0,0.0,0.0,0.0,0.0,0.0,0.0,0.0,0.0,0.0,0.0,0.0,0.0,0.0,0.0,0.0,0.0,0.0,0.0,0.0,0.0,0.0,0.0,0.0,0.0,0.0,0.0,0.0,0.0,0.0,0.0,0.0,0.0,0.0,0.0,0.0,0.0,0.0,0.0,0.0,0.0,0.0,0.0,0.0,0.0,0.0,0.0,0.0,0.0,0.0,0.0,0.0,0.0,0.0,0.0,0.0,0.0,0.0,0.0,0.0,0.0,0.0,0.0,0.0,0.0,0.0,0.0,0.0,0.0,0.0,0.0,0.0,0.0,0.0,0.0,0.0,0.0,0.0,0.0,0.0,0.0,0.0,0.0,0.0,0.0,0.0,0.0,0.0,0.0,0.0,0.0,0.0,0.0,0.0,0.0,0.0,0.0,0.0,0.0,0.0,0.0,0.0,0.0,0.0,0.0,0.0,0.0,0.0,0.0,0.0,0.0,0.0,0.0,0.0,0.0,0.0,0.0,0.0,0.0,0.0,0.0,0.0,0.0,0.0,0.0,0.0,0.0,0.0,0.0,0.0,0.0,0.0,0.0,0.0,0.0,0.0,0.0,0.0,0.0,0.0,0.0,0.0,0.0,0.0,0.0,0.0,0.0,0.0,0.0,0.0,0.0,0.0,0.0,0.0,0.0,0.0,0.0,0.0,0.0,0.0,0.0,0.0,0.0,0.0,0.0,0.0,0.0,0.0,0.0,0.0,0.0,0.0,0.0,0.0,0.0,0.0,0.0,0.0,0.0,0.0,0.0,0.0,0.0,0.0,0.0,0.0,0.0,0.0,0.0,0.0,0.0,0.0,0.0,0.0,0.0,0.0,0.0,0.0,0.0,0.0,0.0,0.0,0.0,0.0,0.0,0.0,0.0,0.0,0.0,0.0,0.0,0.0,0.0,0.0,0.0,0.0,0.0,0.0,0.0,0.0,0.0,0.0,0.0,0.0,0.0,0.0,0.0,0.0,0.0,0.0,0.0,0.0,0.0,0.0,0.0,0.0,0.0,0.0,0.0,0.0,0.0,0.0,0.0,0.0,0.0,0.0,0.0,0.0,0.0,0.0,0.0,0.0,0.0,0.0,0.0,0.0,0.0,0.0,0.0,0.0,0.0,0.0,0.0,0.0,0.0,0.0,0.0,0.0,0.0,0.0,0.0,0.0,0.0,0.0,0.0,0.0,0.0,0.0,0.0,0.0,0.0,0.0,0.0,0.0,0.0,0.0,0.0,0.0,0.0,0.0,0.0,0.0,0.0,0.0,0.0,0.0,0.0,0.0,0.0,0.0,0.0,0.0,0.0,0.0,0.0,0.0,0.0,0.0,0.0,0.0,0.0,0.0,0.0,0.0,0.0,0.0,0.0,0.0,0.0,0.0,0.0,0.0,0.0,0.0,0.0,0.0,0.0,0.0,0.0,0.0,0.0,0.0,0.0,0.0,0.0,0.0,0.0,0.0,0.0,0.0,0.0,0.0,0.0,0.0,0.0,0.0,0.0,0.0,0.0,0.0,0.0,0.0,0.0,0.0,0.0,0.0,0.0,0.0,0.0,0.0,0.0,0.0,0.0,0.0,0.0,0.0,0.0,0.0,0.0,0.0,0.0,0.0,0.0,0.0,0.0,0.0,0.0,0.0,0.0,0.0,0.0,0.0,0.0,0.0,0.0,0.0,0.0,0.0,0.0,0.0,0.0,0.0,0.0,0.0,0.0,0.0,0.0,0.0,0.0,0.0,0.0,0.0,0.0,0.0,0.0,0.0,0.0,0.0,0.0,0.0,0.0,0.0,0.0,0.0,0.0,0.0,0.0,0.0,0.0,0.0,0.0,0.0,0.0,0.0,0.0,0.0,0.0,0.0,0.0,0.0,0.0,0.0,0.0,0.0,0.0,0.0,0.0,0.0,0.0,0.0,0.0,0.0,0.0,0.0,0.0,0.0,0.0,0.0,0.0,0.0,0.0,0.0,0.0,0.0,0.0,0.0,0.0,0.0,0.0,0.0,0.0,0.0,0.0,0.0,0.0,0.0,0.0,0.0,0.0,0.0,0.0,0.0,0.0,0.0,0.0,0.0,0.0,0.0,0.0,0.0,0.0,0.0,0.0,0.0,0.0,0.0,0.0,0.0,0.0,0.0,0.0,0.0,0.0,0.0,0.0,0.0,0.0,0.0,0.0,0.0,0.0,0.0,0.0,0.0,0.0,0.0,0.0,0.0,0.0,0.0,0.0,0.0,0.0,0.0,0.0,0.0,0.0,0.0,0.0,0.0,0.0,0.0,0.0,0.0,0.0,0.0,0.0,0.0,0.0,0.0,0.0,0.0,0.0,0.0,0.0,0.0,0.0,0.0,0.0,0.0,0.0,0.0,0.0,0.0,0.0,0.0,0.0,0.0,0.0,0.0,0.0,0.0,0.0,0.0,0.0,0.0,0.0,0.0,0.0,0.0,0.0,0.0,0.0,0.0,0.0,0.0,0.0,0.0,0.0,0.0,0.0,0.0,0.0,0.0,0.0,0.0,0.0,0.0,0.0,0.0,0.0,0.0,0.0,0.0,0.0,0.0,0.0,0.0,0.0,0.0,0.0,0.0,0.0,0.0,0.0,0.0,0.0,0.0,0.0,0.0,0.0,0.0,0.0,0.0,0.0,0.0,0.0,0.0,0.0,0.0,0.0,0.0,0.0,0.0,0.0,0.0,0.0,0.0,0.0,0.0,0.0,0.0,0.0,0.0,0.0,0.0,0.0,0.0,0.0,0.0,0.0,0.0,0.0,0.0,0.0,0.0,0.0,0.0,0.0,0.0,0.0,0.0,0.0,0.0,0.0,0.0,0.0,0.0,0.0,0.0,0.0,0.0,0.0,0.0,0.0,0.0,0.0,0.0,0.0,0.0,0.0,0.0,0.0,0.0,0.0,0.0,0.0,0.0,0.0,0.0,0.0,0.0,0.0,0.0,0.0,0.0,0.0,0.0,0.0,0.0,0.0,0.0,0.0,0.0,0.0,0.0,0.0,0.0,0.0,0.0,0.0,0.0,0.0,0.0,0.0,0.0,0.0,0.0,0.0,0.0,0.0,0.0,0.0,0.0,0.0,0.0,0.0,0.0,0.0,0.0,0.0,0.0,0.0,0.0,0.0,0.0,0.0,0.0,0.0,0.0,0.0,0.0,0.0,0.0,0.0,0.0,0.0,-5.6621,0.0,0.0,0.0,0.0,0.0,0.0,0.0,0.0,0.0,0.0,0.0,0.0,0.0,0.0,0.0,0.0,0.0,0.0,0.0,0.0,0.0,0.0,0.0,0.0,0.0,0.0,0.0,0.0,0.0,0.0,0.0,0.0,0.0,0.0,0.0,0.0,0.0,0.0,0.0,0.0,0.0,0.0,0.0,0.0,0.0,0.0,0.0,0.0,0.0,0.0,0.0,0.0,0.0,0.0,0.0,0.0,0.0,0.0,0.0,0.0,0.0,0.0,0.0,0.0,0.0,0.0,0.0,0.0,0.0,0.0,0.0,0.0,0.0,0.0,0.0,0.0,0.0,0.0,0.0,0.0,0.0,0.0,0.0,0.0,0.0,0.0,0.0,0.0,0.0,0.0,0.0,0.0,0.0,0.0,0.0,0.0,0.0,0.0,0.0,0.0,0.0,0.0,0.0,0.0,0.0,0.0,0.0,0.0,0.0,0.0,-5.661,-5.6615,-5.6618,-5.6619,-5.662,0.0,0.0,0.0,0.0,0.0,0.0,0.0,0.0,0.0,0.0,0.0,0.0,0.0,0.0,0.0,0.0,0.0,0.0,0.0,0.0,0.0,0.0,0.0,0.0,0.0,0.0,0.0,0.0,0.0,0.0,0.0,0.0,0.0,0.0,0.0,0.0,0.0,0.0,0.0,0.0,0.0,0.0,0.0,0.0,0.0,0.0,0.0,0.0,0.0,0.0,0.0,0.0,0.0,0.0,0.0,0.0,0.0,0.0,0.0,0.0,0.0,0.0,0.0,0.0,0.0,0.0,0.0,0.0,0.0,0.0,0.0,0.0,0.0,0.0,0.0,0.0,0.0,0.0,0.0,0.0,0.0,0.0,0.0,0.0,0.0,0.0,0.0,0.0,0.0,0.0,0.0,0.0,0.0,0.0,0.0,0.0,0.0,0.0,0.0,0.0,0.0,0.0,0.0,0.0,0.0,0.0,0.0,0.0,0.0,0.0,0.0,0.0,-5.6614,-5.6618,-5.6619,0.0,0.0,0.0,0.0,0.0,0.0,0.0,0.0,0.0,0.0,0.0,0.0,0.0,0.0,0.0,0.0,0.0,0.0,0.0,0.0,0.0,0.0,0.0,0.0,0.0,0.0,0.0,0.0,0.0,0.0,0.0,0.0,0.0,0.0,0.0,0.0,0.0,0.0,0.0,0.0,0.0,0.0,0.0,0.0,0.0,0.0,0.0,0.0,0.0,0.0,0.0,0.0,0.0,0.0,0.0,0.0,0.0,0.0,0.0,0.0,0.0,0.0,0.0,0.0,0.0,0.0,0.0,0.0,0.0,0.0,0.0,0.0,0.0,0.0,0.0,0.0,0.0,0.0,0.0,0.0,0.0,0.0,0.0,0.0,0.0,0.0,0.0,0.0,0.0,0.0,0.0,0.0,0.0,0.0,0.0,0.0,0.0,0.0,0.0,0.0,0.0,0.0,0.0,0.0,0.0,0.0,0.0,0.0,0.0,0.0,-5.6612,-5.6621,-5.6603,0.0,-5.6618,0.0,0.0,0.0,0.0,0.0,0.0,0.0,0.0,0.0,0.0,0.0,0.0,0.0,0.0,0.0,0.0,0.0,0.0,0.0,0.0,0.0,0.0,0.0,0.0,0.0,0.0,0.0,0.0,0.0,0.0,0.0,0.0,0.0,0.0,0.0,0.0,0.0,0.0,0.0,0.0,0.0,0.0,0.0,0.0,0.0,0.0,0.0,0.0,0.0,0.0,0.0,0.0,0.0,0.0,0.0,0.0,0.0,0.0,0.0,0.0,0.0,0.0,0.0,0.0,0.0,0.0,0.0,0.0,0.0,0.0,0.0,0.0,0.0,0.0,0.0,0.0,0.0,0.0,0.0,0.0,0.0,0.0,0.0,0.0,0.0,0.0,0.0,0.0,0.0,0.0,0.0,0.0,0.0,0.0,0.0,0.0,0.0,0.0,0.0,0.0,0.0,0.0,0.0,0.0,0.0,0.0,0.0,0.0,0.0,0.0,-5.6541,-5.6612,-5.6618,-5.6609,0.0,0.0,0.0,0.0,0.0,0.0,0.0,0.0,0.0,0.0,0.0,0.0,0.0,0.0,0.0,0.0,0.0,0.0,0.0,0.0,0.0,0.0,0.0,0.0,0.0,0.0,0.0,0.0,0.0,0.0,0.0,0.0,0.0,0.0,0.0,0.0,0.0,0.0,0.0,0.0,0.0,0.0,0.0,0.0,0.0,0.0,0.0,0.0,0.0,0.0,0.0,0.0,0.0,0.0,0.0,0.0,0.0,0.0,0.0,0.0,0.0,0.0,0.0,0.0,0.0,0.0,0.0,0.0,0.0,0.0,0.0,0.0,0.0,0.0,0.0,0.0,0.0,0.0,0.0,0.0,0.0,0.0,0.0,0.0,0.0,0.0,0.0,0.0,0.0,0.0,0.0,0.0,0.0,0.0,0.0,0.0,0.0,0.0,0.0,0.0,0.0,0.0,0.0,0.0,0.0,0.0,0.0,0.0,0.0,0.0,-5.6497,-5.6528,-5.6584,-5.6616,-5.6607,-5.6617,0.0,0.0,0.0,0.0,0.0,0.0,0.0,0.0,0.0,0.0,0.0,0.0,0.0,0.0,0.0,0.0,0.0,0.0,0.0,0.0,0.0,0.0,0.0,0.0,0.0,0.0,0.0,0.0,0.0,0.0,0.0,0.0,0.0,0.0,0.0,0.0,0.0,0.0,0.0,0.0,0.0,0.0,0.0,0.0,0.0,0.0,0.0,0.0,0.0,0.0,0.0,0.0,0.0,0.0,0.0,0.0,0.0,0.0,0.0,0.0,0.0,0.0,0.0,0.0,0.0,0.0,0.0,0.0,0.0,0.0,0.0,0.0,0.0,0.0,0.0,0.0,0.0,0.0,0.0,0.0,0.0,0.0,0.0,0.0,0.0,0.0,0.0,0.0,0.0,0.0,0.0,0.0,0.0,0.0,0.0,0.0,0.0,0.0,0.0,0.0,0.0,0.0,0.0,0.0,0.0,0.0,0.0,0.0,-5.6414,-5.6468,-5.652,-5.6604,-5.6616,-5.6605,0.0,0.0,0.0,0.0,0.0,0.0,0.0,0.0,0.0,0.0,0.0,0.0,0.0,0.0,0.0,0.0,0.0,0.0,0.0,0.0,0.0,0.0,0.0,0.0,0.0,0.0,0.0,0.0,0.0,0.0,0.0,0.0,0.0,0.0,0.0,0.0,0.0,0.0,0.0,0.0,0.0,0.0,0.0,0.0,0.0,0.0,0.0,0.0,0.0,0.0,0.0,0.0,0.0,0.0,0.0,0.0,0.0,0.0,0.0,0.0,0.0,0.0,0.0,0.0,0.0,0.0,0.0,0.0,0.0,0.0,0.0,0.0,0.0,0.0,0.0,0.0,0.0,0.0,0.0,0.0,0.0,0.0,0.0,0.0,0.0,0.0,0.0,0.0,0.0,0.0,0.0,0.0,0.0,0.0,0.0,0.0,0.0,0.0,0.0,0.0,0.0,0.0,0.0,0.0,0.0,0.0,0.0,0.0,0.0,-5.6402,-5.6461,-5.6514,-5.6533,-5.6586,-5.6616,0.0,0.0,0.0,0.0,0.0,0.0,0.0,0.0,0.0,0.0,0.0,0.0,0.0,0.0,0.0,0.0,0.0,0.0,0.0,0.0,0.0,0.0,0.0,0.0,0.0,0.0,0.0,0.0,0.0,0.0,0.0,0.0,0.0,0.0,0.0,0.0,0.0,0.0,0.0,0.0,0.0,0.0,0.0,0.0,0.0,0.0,0.0,0.0,0.0,0.0,0.0,0.0,0.0,0.0,0.0,0.0,0.0,0.0,0.0,0.0,0.0,0.0,0.0,0.0,0.0,0.0,0.0,0.0,0.0,0.0,0.0,0.0,0.0,0.0,0.0,0.0,0.0,0.0,0.0,0.0,0.0,0.0,0.0,0.0,0.0,0.0,0.0,0.0,0.0,0.0,0.0,0.0,0.0,0.0,0.0,0.0,0.0,0.0,0.0,0.0,0.0,0.0,0.0,0.0,0.0,0.0,0.0,0.0,0.0,-5.6359,0.0,-5.6498,-5.65,-5.6553,-5.6589,0.0,0.0,0.0,0.0,0.0,0.0,0.0,0.0,0.0,0.0,0.0,0.0,0.0,0.0,0.0,0.0,0.0,0.0,0.0,0.0,0.0,0.0,0.0,0.0,0.0,0.0,0.0,0.0,0.0,0.0,0.0,0.0,0.0,0.0,0.0,0.0,0.0,0.0,0.0,0.0,0.0,0.0,0.0,0.0,0.0,0.0,0.0,0.0,0.0,0.0,0.0,0.0,0.0,0.0,0.0,0.0,0.0,0.0,0.0,0.0,0.0,0.0,0.0,0.0,0.0,0.0,0.0,0.0,0.0,0.0,0.0,0.0,0.0,0.0,0.0,0.0,0.0,0.0,0.0,0.0,0.0,0.0,0.0,0.0,0.0,0.0,0.0,0.0,0.0,0.0,0.0,0.0,0.0,0.0,0.0,0.0,0.0,0.0,0.0,0.0,0.0,0.0,0.0,0.0,0.0,0.0,0.0,0.0,-5.6253,-5.6328,-5.6363,-5.6445,-5.6501,-5.6517,-5.6526,0.0,0.0,0.0,0.0,0.0,0.0,0.0,0.0,0.0,0.0,0.0,0.0,0.0,0.0,0.0,0.0,0.0,0.0,0.0,0.0,0.0,0.0,0.0,0.0,0.0,0.0,0.0,0.0,0.0,0.0,0.0,0.0,0.0,0.0,0.0,0.0,0.0,0.0,0.0,0.0,0.0,0.0,0.0,0.0,0.0,0.0,0.0,0.0,0.0,0.0,0.0,0.0,0.0,0.0,0.0,0.0,0.0,0.0,0.0,0.0,0.0,0.0,0.0,0.0,0.0,0.0,0.0,0.0,0.0,0.0,0.0,0.0,0.0,0.0,0.0,0.0,0.0,0.0,0.0,0.0,0.0,0.0,0.0,0.0,0.0,0.0,0.0,0.0,0.0,0.0,0.0,0.0,0.0,0.0,0.0,0.0,0.0,0.0,0.0,0.0,0.0,0.0,0.0,0.0,0.0,0.0,0.0,0.0,0.0,-5.71,-5.66,-5.6651,-5.7279,-5.6787,-5.6528,0.0,0.0,0.0,0.0,0.0,0.0,0.0,0.0,0.0,0.0,0.0,0.0,0.0,0.0,0.0,0.0,0.0,0.0,0.0,0.0,0.0,0.0,0.0,0.0,0.0,0.0,0.0,0.0,0.0,0.0,0.0,0.0,0.0,0.0,0.0,0.0,0.0,0.0,0.0,0.0,0.0,0.0,0.0,0.0,0.0,0.0,0.0,0.0,0.0,0.0,0.0,0.0,0.0,0.0,0.0,0.0,0.0,0.0,0.0,0.0,0.0,0.0,0.0,0.0,0.0,0.0,0.0,0.0,0.0,0.0,0.0,0.0,0.0,0.0,0.0,0.0,0.0,0.0,0.0,0.0,0.0,0.0,0.0,0.0,0.0,0.0,0.0,0.0,0.0,0.0,0.0,0.0,0.0,0.0,0.0,0.0,0.0,0.0,0.0,0.0,0.0,0.0,0.0,0.0,0.0,0.0,0.0,0.0,0.0,-5.788,-5.7159,-5.7045,-5.7644,-5.7169,-5.6767,-5.6499,0.0,0.0,0.0,0.0,0.0,0.0,0.0,0.0,0.0,0.0,0.0,0.0,0.0,0.0,0.0,0.0,0.0,0.0,0.0,0.0,0.0,0.0,0.0,0.0,0.0,0.0,0.0,0.0,0.0,0.0,0.0,0.0,0.0,0.0,0.0,0.0,0.0,0.0,0.0,0.0,0.0,0.0,0.0,0.0,0.0,0.0,0.0,0.0,0.0,0.0,0.0,0.0,0.0,0.0,0.0,0.0,0.0,0.0,0.0,0.0,0.0,0.0,0.0,0.0,0.0,0.0,0.0,0.0,0.0,0.0,0.0,0.0,0.0,0.0,0.0,0.0,0.0,0.0,0.0,0.0,0.0,0.0,0.0,0.0,0.0,0.0,0.0,0.0,0.0,0.0,0.0,0.0,0.0,0.0,0.0,0.0,0.0,0.0,0.0,0.0,0.0,0.0,0.0,0.0,0.0,0.0,0.0,0.0,-5.8596,-5.7971,-5.7675,-5.7767,-5.7656,-5.7262,0.0,0.0,0.0,0.0,0.0,0.0,0.0,0.0,0.0,0.0,0.0,0.0,0.0,0.0,0.0,0.0,0.0,0.0,0.0,0.0,0.0,0.0,0.0,0.0,0.0,0.0,0.0,0.0,0.0,0.0,0.0,0.0,0.0,0.0,0.0,0.0,0.0,0.0,0.0,0.0,0.0,0.0,0.0,0.0,0.0,0.0,0.0,0.0,0.0,0.0,0.0,0.0,0.0,0.0,0.0,0.0,0.0,0.0,0.0,0.0,0.0,0.0,0.0,0.0,0.0,0.0,0.0,0.0,0.0,0.0,0.0,0.0,0.0,0.0,0.0,0.0,0.0,0.0,0.0,0.0,0.0,0.0,0.0,0.0,0.0,0.0,0.0,0.0,0.0,0.0,0.0,0.0,0.0,0.0,0.0,0.0,0.0,0.0,0.0,0.0,0.0,0.0,0.0,0.0,0.0,0.0,0.0,0.0,0.0,-5.7693,-5.8706,-5.9315,-5.9345,-5.8213,-5.7542,0.0,0.0,0.0,0.0,0.0,0.0,0.0,0.0,0.0,0.0,0.0,0.0,0.0,0.0,0.0,0.0,0.0,0.0,0.0,0.0,0.0,0.0,0.0,0.0,0.0,0.0,0.0,0.0,0.0,0.0,0.0,0.0,0.0,0.0,0.0,0.0,0.0,0.0,0.0,0.0,0.0,0.0,0.0,0.0,0.0,0.0,0.0,0.0,0.0,0.0,0.0,0.0,0.0,0.0,0.0,0.0,0.0,0.0,0.0,0.0,0.0,0.0,0.0,0.0,0.0,0.0,0.0,0.0,0.0,0.0,0.0,0.0,0.0,0.0,0.0,0.0,0.0,0.0,0.0,0.0,0.0,0.0,0.0,0.0,0.0,0.0,0.0,0.0,0.0,0.0,0.0,0.0,0.0,0.0,0.0,0.0,0.0,0.0,0.0,0.0,0.0,0.0,0.0,0.0,0.0,0.0,0.0,0.0,-5.7849,-5.7869,-5.9513,-6.0419,-6.0478,-5.8905,-5.7945,0.0,0.0,0.0,0.0,0.0,0.0,0.0,0.0,0.0,0.0,0.0,0.0,0.0,0.0,0.0,0.0,0.0,0.0,0.0,0.0,0.0,0.0,0.0,0.0,0.0,0.0,0.0,0.0,0.0,0.0,0.0,0.0,0.0,0.0,0.0,0.0,0.0,0.0,0.0,0.0,0.0,0.0,0.0,0.0,0.0,0.0,0.0,0.0,0.0,0.0,0.0,0.0,0.0,0.0,0.0,0.0,0.0,0.0,0.0,0.0,0.0,0.0,0.0,0.0,0.0,0.0,0.0,0.0,0.0,0.0,0.0,0.0,0.0,0.0,0.0,0.0,0.0,0.0,0.0,0.0,0.0,0.0,0.0,0.0,0.0,0.0,0.0,0.0,0.0,0.0,0.0,0.0,0.0,0.0,0.0,0.0,0.0,0.0,0.0,0.0,0.0,0.0,0.0,0.0,0.0,0.0,0.0,0.0,-5.8546,-5.8497,-6.019,-6.1021,-6.0809,-5.9459,-5.8389,0.0,0.0,0.0,0.0,0.0,0.0,0.0,0.0,0.0,0.0,0.0,0.0,0.0,0.0,0.0,0.0,0.0,0.0,0.0,0.0,0.0,0.0,0.0,0.0,0.0,0.0,0.0,0.0,0.0,0.0,0.0,0.0,0.0,0.0,0.0,0.0,0.0,0.0,0.0,0.0,0.0,0.0,0.0,0.0,0.0,0.0,0.0,0.0,0.0,0.0,0.0,0.0,0.0,0.0,0.0,0.0,0.0,0.0,0.0,0.0,0.0,0.0,0.0,0.0,0.0,0.0,0.0,0.0,0.0,0.0,0.0,0.0,0.0,0.0,0.0,0.0,0.0,0.0,0.0,0.0,0.0,0.0,0.0,0.0,0.0,0.0,0.0,0.0,0.0,0.0,0.0,0.0,0.0,0.0,0.0,0.0,0.0,0.0,0.0,0.0,0.0,0.0,0.0,0.0,0.0,0.0,0.0,0.0,-5.8255,-5.7637,-5.988,-6.046,-5.9165,-5.8847,-5.8653,0.0,0.0,0.0,0.0,0.0,0.0,0.0,0.0,0.0,0.0,0.0,0.0,0.0,0.0,0.0,0.0,0.0,0.0,0.0,0.0,0.0,0.0,0.0,0.0,0.0,0.0,0.0,0.0,0.0,0.0,0.0,0.0,0.0,0.0,0.0,0.0,0.0,0.0,0.0,0.0,0.0,0.0,0.0,0.0,0.0,0.0,0.0,0.0,-5.4398,0.0,0.0,0.0,0.0,0.0,0.0,0.0,0.0,0.0,0.0,0.0,0.0,0.0,0.0,0.0,0.0,0.0,0.0,0.0,0.0,0.0,0.0,0.0,0.0,0.0,0.0,0.0,0.0,0.0,0.0,0.0,0.0,0.0,0.0,0.0,0.0,0.0,0.0,0.0,0.0,0.0,0.0,0.0,0.0,0.0,0.0,0.0,0.0,0.0,0.0,0.0,0.0,0.0,0.0,0.0,0.0,0.0,0.0,0.0,-5.7772,-5.7376,-5.9029,-5.9493,-5.8632,-5.8264,-5.8113,0.0,0.0,0.0,0.0,0.0,0.0,0.0,0.0,0.0,0.0,0.0,0.0,0.0,0.0,0.0,0.0,0.0,0.0,0.0,0.0,0.0,0.0,0.0,0.0,0.0,0.0,0.0,0.0,0.0,0.0,0.0,0.0,0.0,0.0,0.0,0.0,0.0,0.0,0.0,0.0,0.0,0.0,0.0,0.0,0.0,0.0,0.0,0.0,0.0,0.0,0.0,0.0,0.0,0.0,0.0,0.0,0.0,0.0,0.0,0.0,0.0,0.0,0.0,0.0,0.0,0.0,0.0,0.0,0.0,0.0,0.0,0.0,0.0,0.0,0.0,0.0,0.0,0.0,0.0,0.0,0.0,0.0,0.0,0.0,0.0,0.0,0.0,0.0,0.0,0.0,0.0,0.0,0.0,0.0,0.0,0.0,0.0,0.0,0.0,0.0,0.0,0.0,0.0,0.0,0.0,0.0,0.0,-5.6854,-5.7318,-5.7338,-5.8139,-5.8526,-5.84,-5.7749,-5.7285,-5.7075,0.0,0.0,0.0,0.0,0.0,0.0,0.0,0.0,0.0,0.0,0.0,0.0,0.0,0.0,0.0,0.0,0.0,0.0,0.0,0.0,0.0,0.0,0.0,0.0,0.0,0.0,0.0,0.0,0.0,0.0,0.0,0.0,0.0,0.0,0.0,0.0,0.0,0.0,-5.2165,-5.3587,0.0,0.0,0.0,0.0,0.0,0.0,0.0,0.0,-5.672,0.0,0.0,0.0,0.0,0.0,0.0,0.0,0.0,0.0,0.0,0.0,0.0,0.0,0.0,0.0,0.0,0.0,0.0,0.0,0.0,0.0,0.0,0.0,0.0,0.0,0.0,0.0,0.0,0.0,0.0,0.0,0.0,0.0,0.0,0.0,0.0,0.0,0.0,0.0,0.0,0.0,0.0,0.0,0.0,0.0,0.0,0.0,0.0,0.0,0.0,0.0,0.0,0.0,0.0,0.0,0.0,-5.5984,-5.6854,-5.7318,-5.7318,-5.8159,-5.8255,-5.7559,-5.7385,-5.6698,-5.5371,0.0,0.0,0.0,0.0,0.0,0.0,0.0,0.0,0.0,0.0,0.0,0.0,0.0,0.0,0.0,0.0,0.0,0.0,0.0,0.0,0.0,0.0,0.0,0.0,0.0,0.0,0.0,0.0,0.0,0.0,0.0,0.0,0.0,0.0,0.0,0.0,0.0,0.0,0.0,-5.4522,-5.5498,0.0,0.0,0.0,0.0,0.0,0.0,0.0,0.0,-5.7308,0.0,0.0,0.0,0.0,0.0,0.0,0.0,0.0,0.0,0.0,0.0,0.0,0.0,0.0,0.0,0.0,0.0,0.0,0.0,0.0,0.0,0.0,0.0,0.0,0.0,0.0,0.0,0.0,0.0,0.0,0.0,0.0,0.0,0.0,0.0,0.0,0.0,0.0,0.0,0.0,0.0,0.0,0.0,0.0,0.0,0.0,0.0,0.0,0.0,0.0,0.0,0.0,0.0,0.0,0.0,-5.5954,-5.6409,-5.6622,-5.6641,-5.7037,-5.7056,-5.665,-5.6225,-5.5636,0.0,0.0,0.0,0.0,0.0,0.0,0.0,0.0,0.0,0.0,0.0,0.0,0.0,0.0,0.0,0.0,0.0,0.0,0.0,0.0,0.0,0.0,0.0,0.0,0.0,0.0,0.0,0.0,0.0,0.0,0.0,0.0,0.0,0.0,0.0,0.0,0.0,0.0,0.0,0.0,-5.4889,-5.594,-5.6607,0.0,0.0,0.0,0.0,0.0,0.0,-5.7289,-5.7225,0.0,0.0,0.0,0.0,0.0,0.0,0.0,0.0,0.0,0.0,0.0,0.0,0.0,0.0,0.0,0.0,0.0,0.0,0.0,0.0,0.0,0.0,0.0,0.0,0.0,0.0,0.0,0.0,0.0,0.0,0.0,0.0,0.0,0.0,0.0,0.0,0.0,0.0,0.0,0.0,0.0,0.0,0.0,0.0,0.0,0.0,0.0,0.0,0.0,0.0,0.0,0.0,0.0,0.0,0.0,-5.5702,-5.5935,-5.6003,-5.6003,-5.6003,-5.6003,-5.5993,-5.5219,-5.4757,0.0,0.0,0.0,0.0,0.0,0.0,0.0,0.0,0.0,0.0,0.0,0.0,0.0,0.0,0.0,0.0,0.0,0.0,0.0,0.0,0.0,0.0,0.0,0.0,0.0,0.0,0.0,0.0,0.0,0.0,0.0,0.0,0.0,0.0,0.0,0.0,0.0,0.0,0.0,0.0,0.0,-5.5953,-5.6681,-5.6273,0.0,0.0,0.0,0.0,-5.718,-5.7229,0.0,0.0,0.0,0.0,0.0,0.0,0.0,0.0,0.0,0.0,0.0,0.0,0.0,0.0,0.0,0.0,0.0,0.0,0.0,0.0,0.0,0.0,0.0,0.0,0.0,0.0,0.0,0.0,0.0,0.0,0.0,0.0,0.0,0.0,0.0,0.0,0.0,0.0,0.0,0.0,0.0,0.0,0.0,0.0,0.0,0.0,0.0,0.0,0.0,0.0,0.0,0.0,0.0,0.0,0.0,0.0,-5.4909,-5.5644,-5.6003,-5.6003,-5.6003,-5.6003,-5.5984,-5.5219,-5.4467,0.0,0.0,0.0,0.0,0.0,0.0,0.0,0.0,0.0,0.0,0.0,0.0,0.0,0.0,0.0,0.0,0.0,0.0,0.0,0.0,0.0,0.0,0.0,0.0,0.0,0.0,0.0,0.0,0.0,0.0,0.0,0.0,0.0,0.0,0.0,0.0,0.0,0.0,0.0,0.0,0.0,-5.4905,-5.5598,-5.5164,-5.5038,0.0,0.0,-5.7644,-5.8599,-5.8702,0.0,0.0,0.0,0.0,0.0,0.0,0.0,0.0,0.0,0.0,0.0,0.0,0.0,0.0,0.0,0.0,0.0,0.0,0.0,0.0,0.0,0.0,0.0,0.0,0.0,0.0,0.0,0.0,0.0,0.0,0.0,0.0,0.0,0.0,0.0,0.0,0.0,0.0,0.0,0.0,0.0,0.0,0.0,0.0,0.0,0.0,0.0,0.0,0.0,0.0,0.0,0.0,0.0,0.0,0.0,-5.3923,-5.4793,-5.5586,-5.6003,-5.6003,-5.6003,-5.6003,-5.6003,-5.4735,-5.3909,0.0,0.0,0.0,0.0,0.0,0.0,0.0,0.0,0.0,0.0,0.0,0.0,0.0,0.0,0.0,0.0,0.0,0.0,0.0,0.0,0.0,0.0,0.0,0.0,0.0,0.0,0.0,0.0,0.0,0.0,0.0,0.0,0.0,0.0,0.0,0.0,0.0,0.0,0.0,0.0,0.0,0.0,-5.5285,-5.5543,0.0,0.0,0.0,-5.7796,-5.7791,0.0,0.0,0.0,0.0,0.0,0.0,0.0,0.0,0.0,0.0,0.0,0.0,0.0,0.0,0.0,0.0,0.0,0.0,0.0,0.0,0.0,0.0,0.0,0.0,0.0,0.0,0.0,0.0,0.0,0.0,0.0,0.0,0.0,0.0,0.0,0.0,0.0,0.0,0.0,0.0,0.0,0.0,0.0,0.0,0.0,0.0,0.0,0.0,0.0,0.0,0.0,0.0,0.0,0.0,0.0,0.0,0.0,-5.4448,-5.5462,-5.6003,-5.6003,-5.6003,-5.6003,-5.5965,-5.46,0.0,0.0,0.0,0.0,0.0,0.0,0.0,0.0,0.0,0.0,0.0,0.0,0.0,0.0,0.0,0.0,0.0,0.0,0.0,0.0,0.0,0.0,0.0,0.0,0.0,0.0,0.0,-5.2092,0.0,0.0,0.0,0.0,0.0,0.0,0.0,0.0,0.0,0.0,0.0,0.0,0.0,0.0,-5.4315,-5.4913,-5.566,-5.6182,0.0,0.0,-5.779,-5.7242,-5.7986,-5.814,0.0,0.0,0.0,0.0,0.0,0.0,0.0,0.0,0.0,0.0,0.0,0.0,0.0,0.0,0.0,0.0,0.0,0.0,0.0,0.0,0.0,0.0,0.0,0.0,0.0,0.0,0.0,0.0,0.0,0.0,0.0,0.0,0.0,0.0,0.0,0.0,0.0,0.0,0.0,0.0,0.0,0.0,0.0,0.0,0.0,0.0,0.0,0.0,0.0,0.0,0.0,0.0,0.0,0.0,-5.3449,-5.3546,-5.5155,-5.6003,-5.6003,-5.6003,-5.6003,-5.5984,-5.5161,-5.4307,0.0,0.0,0.0,0.0,0.0,0.0,0.0,0.0,0.0,0.0,0.0,0.0,0.0,0.0,0.0,0.0,0.0,0.0,0.0,0.0,0.0,0.0,0.0,0.0,0.0,0.0,0.0,0.0,0.0,0.0,0.0,0.0,0.0,0.0,0.0,0.0,0.0,0.0,0.0,0.0,0.0,-5.4091,-5.4184,-5.482,-5.5305,0.0,-5.6628,-5.7675,-5.781,-5.8484,-5.8559,-5.7307,0.0,0.0,0.0,0.0,0.0,0.0,0.0,0.0,0.0,0.0,0.0,0.0,0.0,0.0,0.0,0.0,0.0,0.0,0.0,0.0,0.0,0.0,0.0,0.0,0.0,0.0,0.0,0.0,0.0,0.0,0.0,0.0,0.0,0.0,0.0,0.0,0.0,0.0,0.0,0.0,0.0,0.0,0.0,0.0,0.0,0.0,0.0,0.0,0.0,0.0,0.0,0.0,0.0,-5.3254,-5.3366,-5.4997,-5.5923,-5.6003,-5.6003,-5.6003,-5.6003,-5.5219,-5.4396,0.0,0.0,0.0,0.0,0.0,0.0,0.0,0.0,0.0,0.0,0.0,0.0,0.0,0.0,0.0,0.0,0.0,0.0,0.0,0.0,0.0,0.0,0.0,0.0,0.0,0.0,0.0,0.0,-5.1252,-5.0921,-5.0267,0.0,0.0,0.0,0.0,0.0,0.0,0.0,0.0,0.0,0.0,-5.3531,-5.3981,-5.5099,0.0,0.0,-5.7235,-5.8297,-5.8378,-5.8309,-5.7959,-5.7036,-5.6625,0.0,0.0,0.0,0.0,0.0,0.0,0.0,0.0,0.0,0.0,0.0,0.0,0.0,0.0,0.0,0.0,0.0,0.0,0.0,0.0,0.0,0.0,0.0,0.0,0.0,0.0,0.0,0.0,0.0,0.0,0.0,0.0,0.0,0.0,0.0,0.0,0.0,0.0,0.0,0.0,0.0,0.0,0.0,0.0,0.0,0.0,0.0,0.0,0.0,0.0,0.0,0.0,-5.3091,-5.3195,-5.4839,-5.5662,-5.5555,-5.5555,-5.5466,-5.5249,-5.4716,-5.4,0.0,0.0,0.0,0.0,0.0,0.0,0.0,0.0,0.0,0.0,0.0,0.0,0.0,0.0,0.0,0.0,0.0,0.0,0.0,0.0,0.0,0.0,0.0,0.0,0.0,0.0,0.0,0.0,-5.1154,-5.0761,-4.9973,0.0,0.0,0.0,0.0,0.0,0.0,0.0,0.0,0.0,0.0,-5.3421,-5.3944,-5.5097,-5.5912,-5.5912,-5.7305,-5.8364,-5.8364,-5.817,-5.7844,-5.7136,0.0,0.0,0.0,0.0,0.0,0.0,0.0,0.0,0.0,0.0,0.0,0.0,0.0,0.0,0.0,0.0,0.0,0.0,0.0,0.0,0.0,0.0,0.0,0.0,0.0,0.0,0.0,-5.4113,0.0,0.0,-5.1467,0.0,0.0,0.0,0.0,0.0,0.0,0.0,0.0,0.0,0.0,0.0,0.0,0.0,0.0,0.0,0.0,0.0,0.0,0.0,0.0,0.0,0.0,-5.2893,-5.2924,-5.458,-5.5174,-5.4544,-5.4525,-5.4217,-5.3616,-5.3536,-5.313,-5.226,0.0,0.0,0.0,0.0,0.0,0.0,0.0,0.0,0.0,0.0,0.0,0.0,0.0,0.0,0.0,0.0,0.0,0.0,0.0,0.0,0.0,0.0,0.0,0.0,0.0,0.0,-5.0292,-4.9982,-4.983,0.0,0.0,0.0,0.0,0.0,0.0,0.0,0.0,0.0,-5.2838,-5.3515,-5.3982,-5.3982,-5.4595,-5.5093,-5.5076,-5.6487,-5.7546,-5.7565,-5.8178,-5.8483,0.0,0.0,0.0,0.0,0.0,0.0,0.0,0.0,0.0,0.0,0.0,0.0,0.0,0.0,0.0,0.0,0.0,0.0,0.0,0.0,0.0,0.0,0.0,0.0,0.0,0.0,0.0,-5.3918,-5.3656,0.0,0.0,0.0,0.0,0.0,0.0,0.0,0.0,0.0,0.0,0.0,-5.342,-5.2653,0.0,0.0,0.0,0.0,0.0,0.0,0.0,0.0,0.0,0.0,0.0,0.0,-5.2387,-5.1997,-5.3569,-5.4125,-5.3522,-5.3494,-5.34,-5.3155,-5.3244,-5.2968,-5.2221,0.0,0.0,0.0,0.0,0.0,0.0,0.0,0.0,0.0,0.0,0.0,0.0,0.0,0.0,0.0,0.0,0.0,0.0,0.0,0.0,0.0,0.0,0.0,0.0,0.0,-5.1133,0.0,0.0,0.0,0.0,0.0,0.0,0.0,0.0,0.0,0.0,0.0,-5.2819,-5.3533,-5.3833,-5.3982,-5.387,-5.5002,-5.5874,0.0,0.0,0.0,0.0,0.0,0.0,0.0,0.0,0.0,0.0,0.0,0.0,0.0,0.0,-5.5335,-5.5435,-5.5386,-5.5283,-5.5266,0.0,0.0,0.0,0.0,0.0,0.0,0.0,0.0,0.0,0.0,0.0,0.0,0.0,0.0,-5.3745,-5.3761,-5.2899,0.0,0.0,0.0,0.0,0.0,0.0,0.0,0.0,-5.2256,-5.271,-5.3159,-5.2376,-5.2001,-5.1979,-5.0703,-4.9909,0.0,0.0,0.0,0.0,0.0,0.0,0.0,0.0,-5.1725,-5.1338,-5.2658,-5.3086,-5.2479,-5.2434,-5.2323,-5.2102,-5.2171,-5.205,-5.1691,-5.0289,-4.9269,0.0,0.0,0.0,0.0,0.0,0.0,0.0,0.0,0.0,0.0,0.0,0.0,0.0,0.0,0.0,0.0,0.0,0.0,0.0,0.0,0.0,0.0,0.0,-5.0614,0.0,0.0,0.0,0.0,0.0,0.0,0.0,0.0,0.0,-5.1688,-5.239,-5.3123,-5.3833,-5.4168,-5.4316,-5.4221,0.0,0.0,0.0,0.0,0.0,0.0,0.0,-5.7938,-5.7962,-5.7554,-5.726,-5.7434,-5.7529,-5.7548,-5.7548,0.0,0.0,-5.6963,-5.6815,-5.6742,-5.6723,-5.6687,-5.6669,-5.6669,-5.6613,-5.6612,0.0,0.0,0.0,0.0,-5.34,0.0,0.0,0.0,-5.367,-5.3726,0.0,-5.3468,0.0,0.0,0.0,0.0,-5.0453,-5.037,0.0,0.0,-5.1414,-5.1415,-5.1467,-5.0759,-5.0351,-5.0312,-4.9633,-4.9272,-4.9344,-5.0167,0.0,0.0,0.0,0.0,0.0,0.0,-5.0983,-5.0979,-5.1883,-5.2023,-5.1396,-5.1338,-5.1054,-5.044,-5.0413,-5.0535,-5.0654,-4.9777,-4.9287,-4.9345,-4.7684,0.0,0.0,0.0,0.0,0.0,0.0,0.0,0.0,0.0,0.0,0.0,0.0,0.0,0.0,0.0,0.0,0.0,0.0,0.0,0.0,-4.9529,0.0,0.0,0.0,0.0,0.0,0.0,0.0,0.0,0.0,0.0,-5.1505,-5.225,-5.2995,-5.3701,0.0,0.0,0.0,0.0,-5.658,-5.736,-5.7528,-5.7843,-5.8586,-5.8677,-5.8679,-5.8679,0.0,0.0,-5.884,-5.8924,-5.8928,-5.8984,-5.8848,-5.8436,-5.7061,-5.68,-5.6743,-5.6743,-5.6761,-5.6668,-5.6687,-5.6798,-5.6799,-5.352,0.0,0.0,0.0,0.0,-5.2333,-5.2711,-5.3475,-5.3217,-5.3478,-5.409,-5.3214,0.0,0.0,0.0,0.0,0.0,0.0,-4.9899,-5.0646,-5.0522,-5.0821,-5.1434,-5.1192,-5.1081,-5.1044,-5.0242,-5.0186,-5.0725,-5.0407,-5.0058,-4.9746,0.0,0.0,0.0,0.0,-5.0572,-5.0082,-5.0873,-5.1003,-5.0333,-5.0347,-5.0323,-5.0252,-5.0252,-5.0344,-5.0486,-5.0214,-4.9791,-4.9226,-4.8643,0.0,0.0,0.0,0.0,0.0,0.0,0.0,0.0,0.0,0.0,0.0,0.0,0.0,0.0,0.0,0.0,0.0,0.0,0.0,-4.9265,-4.9784,-4.9926,0.0,0.0,0.0,0.0,0.0,0.0,0.0,0.0,0.0,-5.1527,-5.2642,-5.3553,0.0,0.0,-5.4351,-5.4927,-5.5763,-5.658,-5.7398,-5.7992,0.0,-5.8679,-5.8677,-5.8677,-5.8677,-5.8677,-5.8716,-5.8758,-5.876,-5.8762,-5.8781,-5.876,-5.8611,-5.8261,-5.8113,-5.8092,-5.8092,-5.8092,-5.8111,-5.8092,-5.8092,-5.8074,-5.3065,-5.1879,-5.1898,-5.2086,-5.2352,-5.2352,-5.2726,-5.3323,-5.3304,-5.3533,-5.387,-5.3033,-5.2548,-5.2211,-5.0552,0.0,0.0,0.0,-4.9478,-5.0187,-4.9799,-4.9912,-5.0395,-5.0413,-5.0413,-5.0395,-4.9893,-4.9893,-5.0413,-4.9893,-4.9478,-4.9164,0.0,-4.9578,-4.9295,-4.989,-4.9953,-4.9536,-5.0105,-5.0222,-4.9835,-4.9871,-4.9946,-5.0076,-5.0076,-5.0175,-5.0313,-5.0256,-5.0004,-4.9549,-4.9113,-4.8388,0.0,0.0,0.0,0.0,0.0,0.0,0.0,0.0,0.0,0.0,0.0,-4.5893,-4.545,0.0,0.0,0.0,-4.7285,-4.7766,-4.86,-4.9359,0.0,0.0,0.0,0.0,0.0,0.0,0.0,-5.0055,-5.1563,-5.2475,-5.1955,-5.2995,-5.3924,-5.424,-5.4593,-5.5094,-5.5893,0.0,-5.7435,-5.7918,-5.8382,-5.8677,-5.8677,-5.8677,-5.8677,-5.8677,-5.8677,-5.8677,-5.8677,-5.8677,-5.8677,-5.8677,-5.8677,-5.8677,-5.8677,-5.8677,-5.8677,-5.8677,-5.8677,-5.8677,-5.8677,-5.8574,-5.8511,-5.2735,-5.1398,-5.1398,-5.1862,-5.2587,-5.2605,-5.3051,-5.3794,-5.3794,-5.3775,-5.3664,-5.2921,-5.2122,-5.1212,-4.9707,0.0,-4.9968,-4.9243,-4.9299,-4.9968,-4.9243,-4.889,-4.889,-4.8909,-4.889,-4.8909,-4.889,-4.889,-4.8927,-4.8909,-4.889,-4.8909,-4.9759,-4.9845,-4.9235,-4.9225,-4.9292,-4.9308,-4.9525,-4.9697,-4.9692,-4.9816,-4.9898,-4.9879,-4.9898,-4.9973,-5.0126,-4.9992,-4.9959,-5.0107,-4.9257,-4.8629,-4.8263,0.0,0.0,0.0,0.0,0.0,0.0,0.0,0.0,0.0,0.0,0.0,0.0,0.0,0.0,0.0,-4.7357,0.0,-4.7794,-4.8568,0.0,0.0,0.0,-5.0361,-5.0295,-5.1059,-5.1544,-5.1398,0.0,0.0,-5.2605,-5.3292,-5.4091,-5.489,-5.5689,-5.6506,-5.7379,-5.8066,-5.8624,-5.8642,-5.8658,-5.8677,-5.8677,-5.8677,-5.8677,-5.8677,-5.8677,-5.8677,-5.8677,-5.8677,-5.8677,-5.8677,-5.8677,-5.8677,-5.8677,-5.8677,-5.8677,-5.8635,-5.8635,-5.8635,-5.8614,-5.8319,-5.8168,-5.164,-5.1398,-5.1287,-5.1788,-5.2605,-5.2605,-5.3051,-5.3794,-5.3813,-5.346,-5.2884,-5.2679,-5.1788,-5.0376,-4.9986,-4.9596,-4.9169,-4.9002,-4.9002,-4.9169,-4.8983,-4.889,-4.889,-4.889,-4.889,-4.889,-4.889,-4.889,-4.889,-4.889,-4.889,-4.8909,-4.913,-4.9129,-4.8978,-4.9081,-4.9164,-4.9211,-4.9295,-4.9434,-4.9711,-4.9736,-4.975,-4.975,-4.9843,-4.9797,-4.9607,-4.9702,-4.9702,-4.9592,-4.9363,-4.8641,-4.7408,-4.7033,0.0,0.0,0.0,0.0,0.0,0.0,0.0,0.0,0.0,-4.542,-4.4862,0.0,-4.5547,0.0,-4.6945,-4.796,-4.8556,-4.8815,0.0,0.0,-4.9686,-5.0169,-5.017,-5.1435,-5.2085,-5.1472,-5.2642,-5.3292,-5.2679,-5.3292,-5.411,-5.489,-5.5168,-5.5856,-5.7249,-5.7639,-5.8029,-5.8549,-5.8621,-5.8677,-5.8621,-5.8677,-5.864,-5.8677,-5.8658,-5.8677,-5.8677,-5.8677,-5.8677,-5.8677,-5.8677,-5.8677,-5.8677,-5.8677,-5.8572,-5.8301,-5.8235,-5.8235,-5.8235,-5.7964,-5.775,-5.0806,-5.0248,-5.0175,-5.0843,-5.1992,-5.2363,-5.2772,-5.318,-5.3255,-5.3014,-5.2549,-5.1806,-5.0785,-4.9596,-4.9577,-4.9336,-4.8909,-4.889,-4.889,-4.889,-4.889,-4.889,-4.889,-4.889,-4.889,-4.889,-4.889,-4.889,-4.889,-4.889,-4.889,-4.889,-4.889,-4.889,-4.889,-4.8979,-4.903,-4.9062,-4.9146,-4.9308,-4.9555,-4.957,-4.9585,-4.9648,-4.9717,-4.9688,-4.954,-4.9619,-4.9604,-4.9476,-4.9092,-4.8446,-4.7485,-4.6794,-4.6002,0.0,0.0,0.0,0.0,0.0,0.0,0.0,0.0,0.0,0.0,0.0,-4.5887,-4.5906,-4.701,-4.7887,-4.8333,-4.8704,-4.889,-4.8909,-4.9949,-5.0673,-5.0673,-5.2141,-5.2958,-5.2531,-5.3255,-5.3645,-5.3218,-5.3715,-5.4393,-5.5188,-5.5614,-5.623,-5.7227,-5.7509,-5.7676,-5.8085,-5.7862,-5.7639,-5.7639,-5.7793,-5.7762,-5.7484,-5.7836,-5.8161,-5.7999,-5.8224,-5.8428,-5.8428,-5.8428,-5.8363,-5.8249,-5.8186,-5.8119,-5.7941,-5.7713,-5.7708,-5.7826,-5.7565,-5.7363,-5.0065,-4.8769,-4.8769,-4.9584,-5.0898,-5.1712,-5.2176,-5.2417,-5.2512,-5.2456,-5.2159,-5.0618,-4.9541,-4.8891,-4.8891,-4.889,-4.889,-4.889,-4.889,-4.889,-4.889,-4.889,-4.889,-4.889,-4.889,-4.889,-4.889,-4.889,-4.889,-4.889,-4.889,-4.889,-4.889,-4.889,-4.889,-4.889,-4.889,-4.889,-4.9079,-4.9209,-4.9368,-4.9368,-4.9415,-4.9563,-4.9574,-4.9589,-4.9604,-4.9574,-4.9488,-4.9345,-4.8573,-4.7978,-4.7647,-4.6311,-4.5473,0.0,-4.4741,0.0,0.0,0.0,0.0,0.0,0.0,0.0,0.0,-4.6543,-4.655,-4.6643,-4.7293,-4.7738,-4.7831,-4.8481,-4.889,-4.8946,-5.0395,-5.1398,-5.1454,-5.2828,-5.3813,-5.3813,-5.3774,-5.3737,-5.3698,-5.4068,-5.4577,-5.5257,-5.6011,-5.6694,-5.7309,-5.745,-5.7526,-5.754,-5.6961,-5.6804,-5.679,-5.691,-5.6856,-5.6301,-5.6946,-5.7447,-5.722,-5.7633,-5.8015,-5.8056,-5.8056,-5.7923,-5.7631,-5.7607,-5.7601,-5.751,-5.7264,-5.7163,-5.7388,-5.7188,-5.7054,-4.9454,-4.8642,-4.8587,-4.8735,-4.9066,-4.9877,-5.1005,-5.232,-5.2339,-5.1637,-5.0343,-4.9435,-4.897,-4.8822,-4.8874,-4.889,-4.889,-4.889,-4.889,-4.889,-4.889,-4.889,-4.889,-4.889,-4.889,-4.889,-4.889,-4.889,-4.889,-4.889,-4.889,-4.889,-4.889,-4.889,-4.889,0.0,0.0,0.0,-4.8943,-4.9027,-4.9228,-4.9228,-4.9262,-4.9276,-4.9502,0.0,-4.9077,-4.9241,-4.8942,-4.8112,-4.7893,0.0,0.0,0.0,0.0,0.0,0.0,0.0,0.0,0.0,0.0,0.0,-4.6334,-4.6376,-4.6571,-4.6543,-4.6773,-4.7404,-4.7608,-4.798,-4.8612,-4.8797,-4.889,-4.8964,-5.0395,-5.1398,-5.1454,-5.2828,-5.3813,-5.3813,-5.3561,-5.3381,-5.338,-5.3256,-5.3423,-5.4204,-5.4994,-5.5902,-5.6856,-5.7246,-5.7589,-5.7873,-5.7385,-5.7405,-5.7726,-5.7515,-5.724,-5.7313,-5.7381,-5.7534,-5.7441,-5.7538,-5.7684,-5.7703,-5.7703,-5.7679,-5.7601,-5.7583,-5.7455,-5.7181,-5.7036,-5.7028,-5.7105,-5.6794,-5.6546,-4.958,-4.8569,-4.8513,-4.8954,0.0,-4.9709,-5.0409,-5.1534,-5.1245,-5.0416,-4.9233,-4.8863,-4.8697,-4.8715,-4.875,-4.8786,-4.8857,-4.8857,-4.8874,-4.889,-4.889,-4.889,-4.889,-4.889,-4.889,-4.889,-4.889,-4.889,-4.889,-4.889,-4.889,-4.889,-4.889,-4.889,-4.889,-4.889,-4.889,-4.889,-4.889,-4.8943,-4.9046,-4.9046,-4.9081,-4.9131,-4.9281,0.0,0.0,0.0,0.0,0.0,0.0,0.0,0.0,-4.6153,0.0,-4.5369,-4.5751,-4.5991,-4.6009,-4.635,-4.6727,-4.7117,-4.7477,-4.7532,-4.7157,-4.7493,-4.785,-4.824,-4.8296,-4.8444,-4.8853,-4.889,-4.889,-4.8964,-5.0395,-5.1343,-5.1305,-5.258,-5.3482,-5.332,-5.3154,-5.3048,-5.3048,-5.3103,-5.3243,-5.3655,-5.4749,-5.5674,-5.6215,-5.6355,-5.6342,-5.6112,-5.63,-5.6408,-5.6584,-5.6715,-5.6563,-5.6266,-5.6613,-5.6852,-5.6738,-5.7035,-5.7307,-5.7289,-5.7307,-5.7257,-5.7054,-5.701,-5.6933,-5.6768,-5.6689,-5.6689,-5.6689,-5.6546,-5.6383,-4.9887,-4.8494,-4.8622,-4.945,-5.0628,-4.9947,-4.9945,-5.0345,-4.9821,0.0,0.0,-4.8569,-4.8587,-4.8587,-4.8587,-4.866,-4.8769,-4.8805,-4.884,-4.8874,-4.8891,-4.889,-4.889,-4.889,-4.889,-4.889,-4.889,-4.889,-4.889,-4.889,-4.889,-4.889,-4.889,-4.889,-4.889,-4.889,-4.889,-4.889,-4.889,-4.889,-4.889,-4.889,-4.8962,-4.9068,-4.9084,-4.9116,-4.9146,-4.9116,-4.9029,-4.8844,-4.8107,-4.7646,-4.7478,-4.6865,-4.6513,-4.6513,-4.6643,-4.6717,-4.6717,-4.6847,-4.72,-4.7868,-4.8467,-4.856,-4.7943,-4.8467,-4.8803,-4.882,-4.8821,-4.8785,-4.875,-4.8785,-4.8785,-4.8768,-5.0102,-5.0915,-5.0847,-5.2038,-5.291,-5.2813,-5.2761,-5.2676,-5.2694,-5.2862,-5.3164,-5.3452,-5.4503,-5.5584,-5.5671,-5.574,-5.553,-5.4957,-5.5358,-5.548,-5.551,-5.5792,-5.5638,-5.5335,-5.5874,-5.626,-5.6111,-5.6449,-5.6845,-5.6899,-5.6899,-5.6786,-5.6492,-5.6465,-5.6383,-5.6383,-5.6383,-5.6383,-5.6383,-5.6383,-5.6383,-4.9848,-4.8399,-4.9115,-4.9593,-4.9777,-4.9667,-4.9262,-4.8655,-4.8564,-4.8454,-4.8344,-4.8476,-4.8513,-4.8513,-4.8569,-4.8624,-4.8642,-4.8732,-4.8804,-4.8822,-4.8874,-4.889,-4.889,-4.889,-4.889,-4.889,-4.889,-4.889,-4.889,-4.889,-4.889,-4.889,-4.889,-4.889,-4.889,-4.889,-4.889,-4.889,-4.889,-4.889,-4.889,-4.889,-4.8909,-4.8926,-4.9032,-4.9049,-4.8942,-4.9049,-4.8732,-4.7941,-4.7757,-4.7386,-4.6717,-4.6589,-4.6513,-4.655,-4.7144,-4.7534,-4.7553,-4.8166,-4.8612,-4.8706,-4.8568,-4.855,-4.8725,-4.8568,-4.8477,-4.8458,-4.8477,-4.8364,-4.8172,-4.8345,-4.8402,-4.8208,-4.8956,-4.9759,-5.0336,-5.1268,-5.2105,-5.2615,-5.2477,-5.2315,-5.2286,-5.2125,-5.228,-5.2898,-5.3826,-5.4561,-5.5355,-5.6137,-5.6464,-5.6116,-5.6093,-5.6346,-5.6464,-5.6454,-5.6224,-5.6161,-5.6223,-5.6374,-5.6286,-5.6403,-5.6537,-5.6492,-5.6519,-5.6492,-5.6383,-5.6383,-5.6383,-5.6383,-5.6383,-5.6383,-5.6383,-5.6383,-5.6383,-5.0472,-4.9169,-4.9903,-5.0233,-5.0215,-4.9794,-4.9095,-4.8343,-4.8324,-4.8324,-4.8306,-4.8344,-4.8382,-4.8382,-4.842,-4.8476,-4.855,-4.8642,-4.8751,-4.8804,-4.8874,-4.889,-4.889,-4.889,-4.889,-4.889,-4.889,-4.889,-4.889,-4.889,-4.889,-4.889,-4.889,-4.889,-4.889,-4.889,-4.889,-4.889,-4.889,-4.889,-4.889,-4.8713,-4.8623,-4.8623,-4.855,-4.855,-4.8642,-4.8696,-4.8529,-4.8106,-4.8069,-4.7831,-4.7335,-4.7316,-4.7316,-4.7335,-4.7794,-4.8033,-4.7868,-4.8199,-4.842,-4.8402,-4.8268,-4.8249,-4.842,-4.8268,-4.8191,-4.8191,-4.8191,-4.8132,-4.8012,-4.8131,-4.8151,-4.8012,-4.8723,-4.9242,-4.9564,-5.0613,-5.1375,-5.1571,-5.1778,-5.1909,-5.1909,-5.1797,-5.1797,-5.2279,-5.3207,-5.4411,-5.5616,-5.6277,-5.6428,-5.5901,-5.6089,-5.6438,-5.6653,-5.6546,-5.641,-5.6383,-5.6383,-5.6383,-5.6383,-5.6383,-5.6383,-5.6383,-5.6383,-5.6383,-5.6383,-5.6383,-5.6383,-5.6383,-5.6383,-5.6383,-5.6383,-5.6383,-5.6383,-5.1189,-4.9959,-5.0729,-5.0967,-5.0729,-4.9959,-4.9095,-4.8343,-4.8324,-4.8324,-4.8324,-4.8324,-4.8324,-4.8324,-4.8324,-4.8363,-4.8457,-4.8532,-4.8624,-4.8733,-4.8821,-4.8874,-4.8891,-4.8891,-4.8874,-4.8803,-4.8785,-4.8731,-4.8714,-4.8696,-4.8696,-4.8714,-4.875,-4.8785,-4.8767,-4.8785,-4.8785,-4.8767,-4.8785,-4.8767,-4.8767,-4.8514,-4.8383,-4.8307,-4.8131,-4.8111,-4.8288,-4.8307,-4.8326,-4.8307,-4.8307,-4.823,-4.803,-4.7992,-4.7992,-4.8032,-4.8191,-4.8212,-4.8032,-4.7992,-4.7992,-4.7992,-4.7931,-4.7891,-4.7891,-4.7809,-4.779,-4.787,-4.7891,-4.7832,-4.7749,-4.785,-4.787,-4.7863,-4.8314,-4.8641,-4.8726,-4.9852,-5.0694,-5.0561,-5.1208,-5.169,-5.164,-5.1665,-5.1886,-5.2422,-5.3226,-5.4519,-5.5981,-5.6328,-5.6015,-5.5785,-5.6008,-5.6374,-5.6383,-5.641,-5.6383,-5.6383,-5.6383,-5.6383,-5.6383,-5.6383,-5.6383,-5.6383,-5.6383,-5.6383,-5.6383,-5.6383,-5.6383,-5.6383,-5.6383,-5.6311,-5.6079,-5.5847,-5.6044,-5.1481,-5.0875,-5.1555,-5.1463,-5.0729,-4.9941,-4.9077,-4.8379,-4.8324,-4.8324,-4.8324,-4.8324,-4.8324,-4.8324,-4.8324,-4.8306,-4.8343,-4.8438,-4.8513,-4.855,-4.8715,-4.8786,-4.8804,-4.8875,-4.8731,-4.8477,-4.8439,-4.8307,-4.8151,-4.8131,-4.8092,-4.8093,-4.8326,-4.8439,-4.8458,-4.8439,-4.8439,-4.8439,-4.8439,-4.8439,-4.8439,-4.8421,-4.8288,-4.8034,-4.7994,-4.8012,-4.8032,-4.8052,-4.8052,-4.8034,-4.8032,-4.8014,-4.7992,-4.7992,-4.7992,-4.7992,-4.8012,-4.8032,-4.7992,-4.7992,-4.7972,-4.7972,-4.7705,-4.7536,-4.7515,-4.7294,-4.7227,-4.745,-4.7536,-4.7446,-4.716,-4.7381,-4.7428,-4.7227,-4.725,-4.7446,-4.8184,-4.8954,-4.9716,-5.0441,-5.1076,-5.1615,-5.1393,-5.1513,-5.2236,-5.3369,-5.3549,-5.433,-5.5917,-5.6134,-5.6032,-5.613,-5.6355,-5.6355,-5.6401,-5.6383,-5.6383,-5.6383,-5.6383,-5.6383,-5.6383,-5.6383,-5.6383,-5.6383,-5.6383,-5.6383,-5.6383,-5.6383,-5.6365,-5.6204,-5.6169,-5.6097,-5.5455,-5.4839,-5.4893,-5.2234,-5.1591,-5.238,-5.1958,-5.071,-4.9407,-4.8636,-4.8324,-4.8324,-4.8324,-4.8324,-4.8324,-4.8324,-4.8324,-4.8324,-4.8324,-4.8324,-4.8438,-4.8494,-4.8513,-4.8697,-4.8678,-4.8513,-4.8458,-4.8345,-4.8134,-4.7997,-4.7937,-4.8012,-4.7992,-4.7992,-4.8012,-4.8131,-4.819,-4.8172,-4.8172,-4.8172,-4.8172,-4.8172,-4.8073,-4.7893,-4.7872,-4.7829,-4.7705,-4.7515,-4.7533,-4.7684,-4.7705,-4.7723,-4.7705,-4.7705,-4.7621,-4.7407,-4.6956,-4.6902,-4.7335,-4.7407,-4.7493,-4.7684,-4.7515,-4.7407,-4.7407,-4.7276,-4.7205,-4.7205,-4.707,-4.7066,-4.716,-4.7205,-4.7138,-4.7043,-4.7133,-4.7138,-4.7002,-4.6998,-4.714,-4.7426,-4.8175,-4.8895,-4.9508,-5.0246,-5.0854,-5.1008,-5.1263,-5.2111,-5.3371,-5.3672,-5.4256,-5.574,-5.585,-5.5735,-5.5804,-5.5879,-5.6067,-5.6273,-5.6383,-5.6383,-5.6383,-5.6383,-5.6383,-5.6355,-5.6383,-5.6383,-5.6383,-5.6401,-5.6401,-5.6383,-5.6347,-5.6294,-5.5955,-5.5205,-5.4839,-5.4536,-5.4233,-5.4394,-5.2674,-5.2362,-5.2527,-5.1756,-5.0362,-4.893,-4.8324,-4.8324,-4.8324,-4.8324,-4.8324,-4.8324,-4.8324,-4.8324,-4.8324,-4.8324,-4.8324,-4.8419,-4.8363,-4.8305,-4.8457,-4.8326,-4.7957,-4.7899,-4.7795,-4.7648,-4.7524,-4.7545,-4.7708,-4.7829,-4.7829,-4.7747,-4.7809,-4.785,-4.785,-4.787,-4.787,-4.7888,-4.787,-4.7705,-4.7425,-4.7359,-4.7359,-4.7338,-4.7116,-4.7116,-4.7359,-4.7359,-4.7359,-4.7359,-4.7162,-4.7034,-4.6989,-4.6052,-4.5838,-4.6587,-4.6873,-4.7111,-4.7359,-4.7138,-4.6998,-4.6998,-4.6998,-4.6998,-4.6998,-4.6998,-4.6998,-4.7002,-4.6998,-4.702,-4.6998,-4.6998,-4.6998,-4.6998,-4.6934,-4.6888,-4.6959,-4.7696,-4.8458,-4.8809,-4.9808,-5.04,-5.0734,-5.0981,-5.1554,-5.2791,-5.3266,-5.383,-5.5111,-5.5385,-5.5383,-5.5472,-5.5502,-5.5677,-5.6077,-5.6106,-5.6162,-5.6162,-5.6106,-5.6106,-5.6162,-5.6189,-5.6273,-5.6189,-5.63,-5.6401,-5.6383,-5.6347,-5.6115,-5.5348,-5.4608,-5.4108,-5.4108,-5.4001,-5.4001,-5.2491,-5.2855,-5.1536,-5.0472,-4.9574,-4.8691,-4.8324,-4.8324,-4.8324,-4.8324,-4.8324,-4.8324,-4.8324,-4.8324,-4.8324,-4.8324,-4.8324,-4.8287,-4.8055,-4.7733,-4.7795,-4.7551,-4.7088,-4.7172,-4.7062,-4.6868,-4.6959,-4.708,-4.7075,-4.7381,-4.7359,-4.7093,-4.7363,-4.7533,-4.7515,-4.7533,-4.7533,-4.7533,-4.7533,-4.7381,-4.707,-4.7025,-4.7025,-4.7025,-4.7002,-4.702,-4.7025,-4.7043,-4.7025,-4.7043,-4.6329,-4.6235,-4.6748,-4.5517,-4.5049,-4.5802,-4.6551,-4.6985,-4.7025,-4.702,-4.6998,-4.6998,-4.6998,-4.6998,-4.6998,-4.6998,-4.6998,-4.6998,-4.6998,-4.6998,-4.6957,-4.6952,-4.6998,-4.6998,-4.6772,-4.6655,-4.6631,-4.7682,-4.8397,-4.8714,-4.9741,-5.0556,-5.0731,-5.0575,-5.1032,-5.1931,-5.2472,-5.3201,-5.4221,-5.4762,-5.5104,-5.5324,-5.5413,-5.5502,-5.5531,-5.5677,-5.5648,-5.5677,-5.5735,-5.5619,-5.5648,-5.5718,-5.5833,-5.5975,-5.6134,-5.6245,-5.6355,-5.6222,-5.5919,-5.5312,-5.4536,-5.409,-5.4001,-5.3983,-5.3876,-5.2637,-5.2289,-5.0692,-4.9867,-4.9519,-4.8655,-4.8324,-4.8324,-4.8324,-4.8324,-4.8324,-4.8324,-4.8324,-4.8324,-4.8324,-4.8324,-4.8267,-4.7995,-4.7775,-4.7572,-4.7385,-4.7062,-4.6699,-4.663,-4.6548,-4.6394,-4.6297,-4.6453,-4.6754,-4.703,-4.7133,-4.7043,-4.7116,-4.7183,-4.7183,-4.7183,-4.7183,-4.7183,-4.7201,-4.7116,-4.702,-4.6998,-4.6998,-4.6998,-4.6998,-4.6998,-4.6998,-4.6998,-4.6998,-4.6998,-4.623,-4.5927,-4.6088,-4.5213,-4.4714,-4.5049,-4.5802,-4.6462,-4.6908,-4.6998,-4.6998,-4.6998,-4.6998,-4.6998,-4.6998,-4.6998,-4.6998,-4.6998,-4.6998,-4.6952,-4.6795,-4.6749,-4.6819,-4.6911,-4.6613,-4.6423,-4.6654,-4.7283,-4.7865,-4.8364,-4.9458,-5.0239,-5.0331,-5.0359,-5.0767,-5.1612,-5.2283,-5.2997,-5.3776,-5.4361,-5.471,-5.4838,-5.4869,-5.4869,-5.4869,-5.5277,-5.5502,-5.5502,-5.5549,-5.5519,-5.5531,-5.5531,-5.5648,-5.566,-5.5822,-5.5947,-5.5986,-5.5737,-5.548,-5.5231,-5.4456,-5.4127,-5.3983,-5.3949,-5.3636,-5.2179,-5.1114,-5.0051,-4.9445,-4.9114,-4.8563,-4.8324,-4.8324,-4.8324,-4.8324,-4.8324,-4.8324,-4.8324,-4.8267,-4.8132,-4.8073,-4.8053,-4.7754,-4.7442,-4.7142,-4.6878,-4.6531,-4.6182,-4.6052,-4.5995,-4.5963,-4.5963,-4.6161,-4.659,-4.6865,-4.6998,-4.6998,-4.6998,-4.6998,-4.6998,-4.6998,-4.6998,-4.6998,-4.6998,-4.6998,-4.6998,-4.6998,-4.6998,-4.6998,-4.6998,-4.6998,-4.6998,-4.6998,-4.6855,-4.6551,-4.5856,-4.5195,-4.4696,-4.466,-4.4585,-4.4674,-4.5374,-4.6141,-4.6855,-4.6998,-4.6998,-4.6998,-4.6998,-4.6998,-4.6998,-4.6998,-4.6998,-4.6998,-4.6998,-4.6888,-4.6661,-4.6525,-4.6566,-4.6661,-4.6332,-4.6154,-4.6354,-4.7016,-4.7823,-4.8712,-4.9515,-4.9971,-4.9993,-5.0178,-5.0506,-5.102,-5.1732,-5.2409,-5.2865,-5.3648,-5.4149,-5.4184,-5.4388,-5.4523,-5.4589,-5.49,-5.5053,-5.5083,-5.5144,-5.5204,-5.5312,-5.5312,-5.5354,-5.5354,-5.5443,-5.5572,-5.5499,-5.5238,-5.5056,-5.4934,-5.4603,-5.4219,-5.4063,-5.3896,-5.3762,-5.1059,-4.9794,-4.9592,-4.9077,-4.8471,-4.8343,-4.8324,-4.8324,-4.8324,-4.8324,-4.8324,-4.8287,-4.8229,-4.8172,-4.7795,-4.7591,-4.7509,-4.7446,-4.7049,-4.6387,-4.6217,-4.5938,-4.5511,-4.5528,-4.5485,-4.5511,-4.5955,-4.6308,-4.6566,-4.6819,-4.6975,-4.6998,-4.6998,-4.6998,-4.6998,-4.6998,-4.6998,-4.6998,-4.6998,-4.6998,-4.6998,-4.6998,-4.6998,-4.6998,-4.6998,-4.6998,-4.6998,-4.6998,-4.6659,-4.5891,-4.5124,-4.3911,-4.3001,-4.3679,-4.4531,-4.4656,-4.5316,-4.6105,-4.6855,-4.6998,-4.6998,-4.6998,-4.6998,-4.6998,-4.6998,-4.6998,-4.6998,-4.6998,-4.698,-4.6888,-4.659,-4.6357,-4.6259,-4.6168,-4.597,-4.5829,-4.6047,-4.6922,-4.8269,-4.9476,-4.9976,-4.9993,-5.0011,-5.0022,-5.0138,-5.0293,-5.0828,-5.1415,-5.1778,-5.28,-5.3356,-5.3667,-5.4098,-5.4494,-5.4512,-5.4512,-5.4543,-5.4575,-5.4637,-5.47,-5.4807,-5.4869,-5.4961,-5.5022,-5.5264,-5.5366,-5.539,-5.5126,-5.4937,-5.479,-5.4475,-5.4479,-5.4451,-5.4396,-5.4293,-5.0051,-4.9537,-4.8948,-4.8563,-4.8324,-4.8324,-4.8324,-4.8305,-4.8324,-4.8324,-4.8248,-4.7975,-4.7816,-4.7695,-4.7335,-4.6954,-4.6654,-4.6631,-4.6483,-4.6161,-4.5811,-4.5589,-4.545,-4.5414,-4.5414,-4.5476,-4.5752,-4.6062,-4.6332,-4.6572,-4.6819,-4.6975,-4.6998,-4.6998,-4.6998,-4.6998,-4.6998,-4.6998,-4.6998,-4.6998,-4.6998,-4.6998,-4.6998,-4.6998,-4.6998,-4.6998,-4.6998,-4.6998,-4.6605,-4.582,-4.5053,-4.3911,-4.2751,-4.2733,-4.3518,-4.446,-4.4799,-4.5624,-4.6766,-4.6998,-4.6998,-4.6998,-4.6998,-4.6998,-4.6998,-4.6998,-4.6998,-4.6998,-4.6998,-4.6842,-4.6423,-4.6259,-4.6186,-4.6186,-4.5803,-4.5632,-4.5987,-4.6948,-4.8286,-4.9648,-5.0011,-5.0011,-5.0011,-5.0011,-5.0011,-5.0062,-5.0631,-5.1166,-5.1808,-5.258,-5.3632,-5.4063,-5.4391,-5.4494,-5.4512,-5.4512,-5.4512,-5.4512,-5.4512,-5.4512,-5.4543,-5.4606,-5.47,-5.4776,-5.5022,-5.5126,-5.5134,-5.5072,-5.4857,-5.4957,-5.4969,-5.5022,-5.5062,-5.4743,-5.4201,-4.8972,-4.8804,-4.8254,-4.8152,-4.8267,-4.8132,-4.8053,-4.8015,-4.7854,-4.7775,-4.7692,-4.7482,-4.7335,-4.7248,-4.6845,-4.6483,-4.6186,-4.603,-4.5905,-4.5879,-4.5589,-4.5397,-4.5414,-4.5414,-4.5414,-4.545,-4.5658,-4.5938,-4.6211,-4.6471,-4.6731,-4.6957,-4.6998,-4.6998,-4.6998,-4.6998,-4.6998,-4.6998,-4.6998,-4.6998,-4.6998,-4.6998,-4.6998,-4.6998,-4.6998,-4.6998,-4.6998,-4.6998,-4.6623,-4.5784,-4.4781,-4.3607,-4.2448,-4.2608,-4.3322,-4.4317,-4.4981,-4.5659,-4.6801,-4.6998,-4.6998,-4.6998,-4.6998,-4.6998,-4.6998,-4.6998,-4.6998,-4.6998,-4.6906,-4.6661,-4.6284,-4.6087,-4.6013,-4.5905,-4.5615,-4.5761,-4.6395,-4.7205,-4.8321,-4.9528,-5.0011,-5.0011,-5.0011,-5.0011,-5.0011,-5.008,-5.039,-5.0769,-5.1476,-5.2252,-5.308,-5.3787,-5.4167,-5.4287,-5.4477,-5.4512,-5.4512,-5.4512,-5.4512,-5.4512,-5.4543,-5.4543,-5.4575,-5.4606,-5.4745,-5.4776,-5.4803,-5.4896,-5.4835,-5.5096,-5.5152,-5.4842,-5.451,-5.376,-5.3199,-4.7846,-4.7585,-4.7569,-4.7795,-4.8075,-4.7733,-4.7569,-4.7506,-4.716,-4.6999,-4.6976,-4.6908,-4.6845,-4.6771,-4.6363,-4.6112,-4.6062,-4.5693,-4.5502,-4.5476,-4.5414,-4.5414,-4.5414,-4.5414,-4.5414,-4.545,-4.5649,-4.5887,-4.6137,-4.6405,-4.6725,-4.6929,-4.6957,-4.6998,-4.6998,-4.6998,-4.6998,-4.6998,-4.6998,-4.6998,-4.6998,-4.6998,-4.6998,-4.6998,-4.6998,-4.6998,-4.6998,-4.698,-4.6623,-4.5749,-4.441,-4.3268,-4.268,-4.3072,-4.3604,-4.4496,-4.5298,-4.6034,-4.6748,-4.6998,-4.6998,-4.6998,-4.6998,-4.6998,-4.6998,-4.6998,-4.6998,-4.698,-4.6819,-4.6542,-4.6259,-4.6038,-4.576,-4.5476,-4.5561,-4.6182,-4.7424,-4.7734,-4.8562,-4.9614,-5.0011,-5.0011,-5.0011,-5.0011,-5.0011,-5.0011,-5.008,-5.0218,-5.0666,-5.1563,-5.2101,-5.2942,-5.3891,-5.427,-5.4512,-5.4512,-5.4512,-5.4512,-5.4512,-5.4512,-5.4512,-5.4512,-5.4512,-5.4512,-5.4543,-5.4543,-5.4575,-5.4683,-5.4683,-5.4745,-5.4589,-5.4264,-5.3823,-5.3249,-5.2764,-4.7155,-4.7089,-4.7071,-4.7138,-4.7266,-4.7115,-4.7089,-4.7071,-4.6954,-4.687,-4.6817,-4.6531,-4.6387,-4.6315,-4.5854,-4.5615,-4.5589,-4.5476,-4.5414,-4.5414,-4.5414,-4.5414,-4.5414,-4.5414,-4.5414,-4.5423,-4.5485,-4.5649,-4.5912,-4.6211,-4.6471,-4.6708,-4.6911,-4.6998,-4.6998,-4.6998,-4.6998,-4.6998,-4.6998,-4.6998,-4.6998,-4.6998,-4.6998,-4.6998,-4.6998,-4.6998,-4.6998,-4.6998,-4.6623,-4.5766,-4.4339,-4.3447,-4.3215,-4.2983,-4.3429,-4.4478,-4.4888,-4.5606,-4.6694,-4.6998,-4.6998,-4.6998,-4.6998,-4.6998,-4.6998,-4.6998,-4.6998,-4.6998,-4.6929,-4.6702,-4.6308,-4.6112,-4.5862,-4.5571,-4.5897,-4.6648,-4.75,-4.8206,-4.8913,-4.9786,-4.9993,-5.0011,-5.0011,-5.0011,-5.0011,-5.0011,-5.0028,-5.0149,-5.0614,-5.1425,-5.2239,-5.3097,-5.3908,-5.427,-5.4512,-5.4512,-5.4512,-5.4512,-5.4512,-5.4512,-5.4512,-5.4512,-5.4512,-5.4512,-5.4512,-5.4512,-5.4512,-5.4575,-5.4512,-5.4512,-5.4457,-5.4312,-5.378,-5.3268,-5.2836,-4.6411,-4.6607,-4.6607,-4.6896,-4.7303,-4.7157,-4.7062,-4.7015,-4.6857,-4.6548,-4.627,-4.5988,-4.5879,-4.5829,-4.5537,-4.5414,-4.5414,-4.5414,-4.5414,-4.5414,-4.5414,-4.5414,-4.5414,-4.5414,-4.5414,-4.5414,-4.5414,-4.5641,-4.5938,-4.6119,-4.6398,-4.6731,-4.6911,-4.6998,-4.6998,-4.6998,-4.6998,-4.6998,-4.6998,-4.6998,-4.6998,-4.6998,-4.6998,-4.6998,-4.6998,-4.6998,-4.6998,-4.6998,-4.6498,-4.5481,-4.4749,-4.4339,-4.3996,-4.3893,-4.4178,-4.5124,-4.541,-4.6105,-4.673,-4.6998,-4.6998,-4.6998,-4.6998,-4.6998,-4.6998,-4.6998,-4.6998,-4.6998,-4.6819,-4.6518,-4.6277,-4.603,-4.5727,-4.5597,-4.6389,-4.7217,-4.7672,-4.8327,-4.9131,-4.9735,-5.0011,-5.0011,-5.0011,-5.0011,-5.0011,-5.0011,-5.0011,-5.02,-5.0562,-5.1533,-5.2326,-5.2994,-5.3839,-5.4356,-5.4512,-5.4512,-5.4512,-5.4512,-5.4512,-5.4512,-5.4512,-5.4512,-5.4512,-5.4512,-5.4512,-5.4512,-5.4512,-5.4512,-5.4512,-5.4512,-5.4512,-5.4253,-5.3718,-5.3253,-5.2856,-4.5762,-4.6112,-4.62,-4.6797,-4.7523,-4.7357,-4.7051,-4.6949,-4.6578,-4.6072,-4.558,-4.5423,-4.5502,-4.5414,-4.5423,-4.5414,-4.5414,-4.5414,-4.5414,-4.5414,-4.5414,-4.5414,-4.5414,-4.5414,-4.5414,-4.5414,-4.5414,-4.5641,-4.5938,-4.6112,-4.6429,-4.6731,-4.6911,-4.6998,-4.6998,-4.6998,-4.6998,-4.6998,-4.6998,-4.6998,-4.6998,-4.6998,-4.6998,-4.6998,-4.6998,-4.6998,-4.6998,-4.6926,-4.6391,-4.4959,-4.5459,-4.528,-4.4856,-4.5392,-4.5606,-4.5749,-4.6195,-4.6641,-4.6962,-4.6998,-4.6998,-4.6998,-4.6998,-4.6998,-4.6998,-4.6998,-4.6998,-4.6998,-4.6566,-4.6381,-4.6161,-4.577,-4.5502,-4.5604,-4.6724,-4.7579,-4.7827,-4.8413,-4.9206,-4.9873,-4.9993,-5.0011,-5.0011,-5.0011,-5.0011,-5.0011,-5.0011,-5.0097,-5.058,-5.1442,-5.1964,-5.2343,-5.3356,-5.446,-5.4512,-5.4512,-5.4512,-5.4512,-5.4512,-5.4512,-5.4512,-5.4512,-5.4512,-5.4512,-5.4512,-5.4512,-5.4512,-5.4512,-5.4512,-5.4512,-5.4512,-5.4098,-5.3598,-5.3218,-5.2839,-4.6028,-4.5615,-4.6238,-4.63,-4.61,-4.6499,-4.6438,-4.5892,-4.5769,-4.5656,-4.5432,-4.5414,-4.5414,-4.5414,-4.5414,-4.5414,-4.5414,-4.5414,-4.5414,-4.5414,-4.5414,-4.5414,-4.5414,-4.5414,-4.5414,-4.5414,-4.5414,-4.5476,-4.5667,-4.6013,-4.6259,-4.6423,-4.6842,-4.6998,-4.6998,-4.6998,-4.6998,-4.6998,-4.6998,-4.6998,-4.6998,-4.6998,-4.6998,-4.6998,-4.6998,-4.6998,-4.6998,-4.6998,-4.6819,-4.648,-4.6052,-4.5766,-4.5552,-4.5213,-4.5356,-4.5802,-4.6016,-4.6391,-4.6855,-4.6998,-4.6998,-4.6998,-4.6998,-4.6998,-4.6998,-4.6998,-4.6998,-4.698,-4.687,-4.659,-4.6204,-4.5701,-4.5476,-4.5707,-4.6672,-4.7665,-4.7924,-4.8907,-4.9689,-4.9924,-5.0011,-5.0011,-5.0011,-5.0011,-5.0011,-5.0011,-5.0011,-5.0011,-5.0597,-5.1338,-5.1808,-5.2188,-5.3391,-5.446,-5.4512,-5.448,-5.4416,-5.4335,-5.4303,-5.4335,-5.4335,-5.4399,-5.4367,-5.4399,-5.4512,-5.4512,-5.4512,-5.4512,-5.448,-5.4512,-5.4414,-5.3943,-5.3516,-5.3132,-5.3008,-4.5983,-4.6027,-4.6414,-4.6741,-4.6983,-4.7069,-4.6889,-4.6448,-4.6086,-4.5742,-4.5449,-4.5414,-4.5414,-4.5414,-4.5414,-4.5414,-4.5414,-4.5414,-4.5414,-4.5414,-4.5414,-4.5414,-4.5414,-4.5414,-4.5414,-4.5414,-4.5414,-4.545,-4.5675,-4.598,-4.6277,-4.6423,-4.6795,-4.6998,-4.6998,-4.6998,-4.6998,-4.6998,-4.6998,-4.6998,-4.6998,-4.6998,-4.6998,-4.6998,-4.6998,-4.6998,-4.6998,-4.6998,-4.6998,-4.6873,-4.6569,-4.6355,-4.6337,-4.598,-4.5998,-4.6248,-4.6373,-4.6498,-4.6908,-4.6998,-4.6998,-4.6998,-4.6998,-4.6998,-4.6998,-4.6998,-4.6998,-4.6957,-4.6824,-4.659,-4.6062,-4.5693,-4.545,-4.5587,-4.6448,-4.7241,-4.7855,-4.9062,-5.0011,-5.0011,-5.0011,-5.0011,-5.0011,-5.0011,-5.0011,-5.0011,-5.0011,-5.0028,-5.039,-5.1132,-5.1826,-5.2498,-5.3684,-5.4425,-5.4494,-5.4448,-5.4303,-5.4175,-5.398,-5.4013,-5.4013,-5.411,-5.4158,-5.4303,-5.448,-5.4512,-5.4512,-5.448,-5.4303,-5.4143,-5.3927,-5.3657,-5.3352,-5.2878,-5.3011,-4.6242,-4.6759,-4.6889,-4.7562,-4.8293,-4.7862,-4.7448,-4.7138,-4.669,-4.5897,-4.5518,-4.5414,-4.5414,-4.5414,-4.5414,-4.5414,-4.5414,-4.5414,-4.5414,-4.5414,-4.5414,-4.5414,-4.5414,-4.5414,-4.5414,-4.5414,-4.5414,-4.5511,-4.5701,-4.6005,-4.6161,-4.6471,-4.6795,-4.6865,-4.6911,-4.6998,-4.6998,-4.6998,-4.6998,-4.6998,-4.6998,-4.6998,-4.6998,-4.6998,-4.6998,-4.6998,-4.6998,-4.6998,-4.6998,-4.6998,-4.6998,-4.6998,-4.6998,-4.6998,-4.6998,-4.6985,-4.689,-4.6908,-4.6944,-4.6998,-4.6998,-4.6998,-4.6998,-4.6998,-4.6998,-4.6998,-4.6998,-4.6888,-4.6731,-4.6381,-4.5912,-4.5589,-4.545,-4.5552,-4.6104,-4.6889,-4.7724,-4.8993,-4.9631,-5.0011,-5.0011,-5.0011,-5.0011,-5.0011,-5.0011,-5.0011,-5.0011,-5.0114,-5.0476,-5.1045,-5.1826,-5.2584,-5.3684,-5.4374,-5.4494,-5.4175,-5.4078,-5.3898,-5.37,-5.37,-5.3766,-5.4078,-5.4239,-5.4335,-5.4448,-5.4367,-5.4207,-5.3996,-5.3782,-5.3634,-5.3483,-5.3297,-5.2977,-5.2572,-5.2841,-4.7948,-4.7551,-4.8172,-4.7896,-4.7121,-4.7493,-4.7,-4.5897,-4.5759,-4.5552,-4.5432,-4.5414,-4.5414,-4.5414,-4.5414,-4.5414,-4.5414,-4.5414,-4.5414,-4.5414,-4.5414,-4.5414,-4.5414,-4.5414,-4.5414,-4.5414,-4.5414,-4.545,-4.5537,-4.5727,-4.5963,-4.608,-4.6447,-4.6661,-4.6754,-4.6865,-4.6998,-4.6998,-4.6998,-4.6998,-4.6998,-4.6998,-4.6998,-4.6998,-4.6998,-4.6998,-4.6998,-4.6998,-4.6998,-4.6998,-4.6998,-4.6998,-4.6998,-4.6998,-4.6998,-4.6998,-4.6998,-4.6998,-4.6998,-4.6998,-4.6998,-4.6998,-4.6998,-4.6998,-4.6998,-4.6998,-4.698,-4.6842,-4.659,-4.6235,-4.6119,-4.5675,-4.545,-4.5587,-4.6035,-4.6828,-4.762,-4.8413,-4.9309,-4.9873,-4.9959,-5.0011,-5.0011,-5.0011,-5.0011,-5.0011,-5.0011,-5.0131,-5.0424,-5.1183,-5.205,-5.2791,-5.358,-5.4115,-5.4512,-5.4045,-5.37,-5.355,-5.3416,-5.3416,-5.3634,-5.4143,-5.4385,-5.4093,-5.3996,-5.3931,-5.3733,-5.3517,-5.3264,-5.3025,-5.2974,-5.2905,-5.2549,-5.2195,-5.2117,-4.7896,-4.8241,-4.8241,-4.8051,-4.7758,-4.7683,-4.7079,-4.6035,-4.5587,-4.5414,-4.5414,-4.5414,-4.5414,-4.5414,-4.5414,-4.5414,-4.5414,-4.5414,-4.5414,-4.5414,-4.5414,-4.5414,-4.5414,-4.5414,-4.5414,-4.5414,-4.5414,-4.5414,-4.5423,-4.5658,-4.5786,-4.5887,-4.6211,-4.6471,-4.659,-4.6708,-4.6888,-4.6934,-4.6998,-4.6998,-4.6998,-4.6998,-4.6998,-4.6998,-4.6998,-4.6998,-4.6998,-4.6998,-4.6998,-4.6998,-4.6998,-4.6998,-4.6998,-4.6998,-4.6998,-4.6998,-4.6998,-4.6998,-4.6998,-4.6998,-4.6998,-4.6998,-4.6998,-4.6998,-4.6998,-4.698,-4.6934,-4.6749,-4.6495,-4.6137,-4.5988,-4.5641,-4.545,-4.5449,-4.5776,-4.65,-4.7424,-4.7965,-4.881,-4.9735,-4.9942,-5.0011,-5.0011,-5.0011,-5.0011,-5.0011,-5.0011,-5.0218,-5.0459,-5.1425,-5.2412,-5.296,-5.3616,-5.3751,-5.4028,-5.3583,-5.3213,-5.3094,-5.3025,-5.3025,-5.306,-5.3399,-5.35,-5.3416,-5.3365,-5.3416,-5.3264,-5.3043,-5.2732,-5.2451,-5.2416,-5.2329,-5.2048,-5.1848,-5.1779,-4.792,-4.8965,-4.8224,-4.8155,-4.8413,-4.7758,-4.7044,-4.631,-4.5673,-4.5414,-4.5414,-4.5414,-4.5414,-4.5414,-4.5414,-4.5414,-4.5414,-4.5414,-4.5414,-4.5414,-4.5414,-4.5414,-4.5414,-4.5414,-4.5414,-4.5414,-4.5414,-4.5414,-4.5423,-4.5572,-4.5684,-4.576,-4.5963,-4.6259,-4.6453,-4.659,-4.6754,-4.6911,-4.6998,-4.6998,-4.6998,-4.6998,-4.6998,-4.6998,-4.6998,-4.6998,-4.6998,-4.6998,-4.6998,-4.6998,-4.6998,-4.6998,-4.6998,-4.6998,-4.6998,-4.6998,-4.6998,-4.6998,-4.6998,-4.6998,-4.6998,-4.6998,-4.6998,-4.6998,-4.6998,-4.6975,-4.6888,-4.6637,-4.6374,-4.6087,-4.5862,-4.5563,-4.5423,-4.5414,-4.55,-4.5914,-4.7138,-4.7993,-4.8631,-4.9321,-4.9786,-4.9964,-4.9964,-5.0011,-5.0011,-5.02,-5.0235,-5.058,-5.0925,-5.1942,-5.2812,-5.3229,-5.3551,-5.3529,-5.3433,-5.3009,-5.2662,-5.2451,-5.2416,-5.2433,-5.2381,-5.2416,-5.254,-5.2819,-5.2871,-5.2922,-5.2732,-5.2522,-5.2148,-5.1895,-5.1858,-5.1769,-5.1643,-5.1525,-5.1474,-4.955,-4.9804,-4.8982,-4.8344,-4.7775,-4.7096,-4.6276,-4.5604,-4.5466,-4.5414,-4.5414,-4.5414,-4.5414,-4.5414,-4.5414,-4.5414,-4.5414,-4.5414,-4.5414,-4.5414,-4.5414,-4.5414,-4.5414,-4.5414,-4.5414,-4.5414,-4.5414,-4.5414,-4.5423,-4.5476,-4.5476,-4.5537,-4.5727,-4.5988,-4.6235,-4.6429,-4.6731,-4.6934,-4.6998,-4.6998,-4.6998,-4.6998,-4.6998,-4.6998,-4.6998,-4.6998,-4.6998,-4.6998,-4.6998,-4.6998,-4.6998,-4.6998,-4.6998,-4.6998,-4.6998,-4.6998,-4.6998,-4.6998,-4.6998,-4.6998,-4.6998,-4.6998,-4.6998,-4.6998,-4.6998,-4.6998,-4.6888,-4.6631,-4.6374,-4.6087,-4.5811,-4.5563,-4.545,-4.5466,-4.5552,-4.6276,-4.7338,-4.8079,-4.87,-4.9252,-4.9854,-4.9906,-4.9906,-4.9935,-5.0028,-5.0252,-5.0511,-5.0838,-5.1434,-5.2419,-5.2909,-5.3203,-5.3161,-5.3095,-5.2737,-5.2319,-5.2068,-5.1813,-5.1747,-5.178,-5.1895,-5.1915,-5.2131,-5.2345,-5.2381,-5.2326,-5.2183,-5.1858,-5.1487,-5.1413,-5.1524,-5.1413,-5.128,-5.1236,-5.125,-4.9637,-4.9907,-4.8672,-4.8,-4.762,-4.6906,-4.6165,-4.5518,-4.5414,-4.5414,-4.5414,-4.5414,-4.5414,-4.5414,-4.5414,-4.5414,-4.5414,-4.5414,-4.5414,-4.5414,-4.5414,-4.5414,-4.5414,-4.5414,-4.5414,-4.5414,-4.5414,-4.5414,-4.5414,-4.5414,-4.5414,-4.5423,-4.5494,-4.5701,-4.5988,-4.6259,-4.6501,-4.6731,-4.6888,-4.6998,-4.6998,-4.6998,-4.6998,-4.6998,-4.6998,-4.6998,-4.6998,-4.6998,-4.6998,-4.6998,-4.6998,-4.6998,-4.6998,-4.6998,-4.6998,-4.6998,-4.6998,-4.6998,-4.6998,-4.6998,-4.6998,-4.6998,-4.6998,-4.6998,-4.6998,-4.6998,-4.6888,-4.6613,-4.6357,-4.6087,-4.5811,-4.5563,-4.545,-4.5483,-4.5776,-4.6621,-4.751,-4.8131,-4.8775,-4.9326,-4.9772,-4.9666,-4.9637,-4.9713,-4.9818,-5.0027,-5.0469,-5.0998,-5.176,-5.2792,-5.3036,-5.3028,-5.2804,-5.2522,-5.2023,-5.1586,-5.1398,-5.1145,-5.0868,-5.0998,-5.1426,-5.1619,-5.1786,-5.1765,-5.1709,-5.1635,-5.1561,-5.1487,-5.1317,-5.1258,-5.1221,-5.1221,-5.1221,-5.1205,-5.1182,-4.9458,-4.9722,-4.8271,-4.7644,-4.7586,-4.6717,-4.5949,-4.5379,-4.5371,-4.5388,-4.5371,-4.5371,-4.5414,-4.5414,-4.5414,-4.5414,-4.5414,-4.5414,-4.5414,-4.5414,-4.5414,-4.5414,-4.5414,-4.5414,-4.5414,-4.5414,-4.5414,-4.5414,-4.5414,-4.5414,-4.5414,-4.5414,-4.5423,-4.5589,-4.5786,-4.6112,-4.6381,-4.6754,-4.6929,-4.6998,-4.6998,-4.6998,-4.6998,-4.6998,-4.6998,-4.6998,-4.6998,-4.6998,-4.6998,-4.6998,-4.6998,-4.6998,-4.6998,-4.6998,-4.6998,-4.6998,-4.6998,-4.6998,-4.6998,-4.6998,-4.6998,-4.6998,-4.6998,-4.6998,-4.6998,-4.6998,-4.6819,-4.6518,-4.6332,-4.6038,-4.5752,-4.5485,-4.564,-4.5845,-4.6234,-4.7044,-4.7758,-4.8351,-4.8787,-4.9196,-4.9441,-4.9195,-4.9226,-4.9381,-4.9564,-4.9794,-5.0346,-5.1094,-5.197,-5.2949,-5.2876,-5.2697,-5.2487,-5.2032,-5.1274,-5.0884,-5.0707,-5.0633,-5.0357,-5.0508,-5.1106,-5.1301,-5.1392,-5.1296,-5.1221,-5.1258,-5.1392,-5.128,-5.1221,-5.1221,-5.1221,-5.1221,-5.1221,-5.1221,-5.1205,-4.9337,-4.9411,-4.8055,-4.7578,-4.7569,-4.6086,-4.5396,-4.5247,-4.5344,-4.53,-4.523,-4.5344,-4.5414,-4.5414,-4.5414,-4.5414,-4.5414,-4.5414,-4.5414,-4.5414,-4.5414,-4.5414,-4.5414,-4.5414,-4.5414,-4.5414,-4.5414,-4.5414,-4.5414,-4.5414,-4.5414,-4.5414,-4.5414,-4.5563,-4.5786,-4.6038,-4.6453,-4.6801,-4.6998,-4.6998,-4.6998,-4.6998,-4.6998,-4.6998,-4.6998,-4.6998,-4.6998,-4.6998,-4.6998,-4.6998,-4.6998,-4.6998,-4.6998,-4.6998,-4.6998,-4.6998,-4.6998,-4.6998,-4.6998,-4.6998,-4.6998,-4.6998,-4.6998,-4.6998,-4.6998,-4.6998,-4.6772,-4.6398,-4.6284,-4.5963,-4.5649,-4.5492,-4.5845,-4.6268,-4.6769,-4.7517,-4.8144,-4.8524,-4.8929,-4.9159,-4.9073,-4.8748,-4.8574,-4.8733,-4.9182,-4.9445,-5.0707,-5.1456,-5.1856,-5.259,-5.2412,-5.2238,-5.2095,-5.154,-5.0579,-5.0309,-5.0438,-5.0487,-5.0341,-5.0617,-5.1091,-5.1151,-5.1221,-5.1221,-5.1221,-5.1221,-5.1221,-5.1221,-5.1221,-5.1221,-5.1221,-5.1221,-5.1221,-5.1221,-5.1221,-4.8897,-4.8567,-4.7573,-4.7335,-4.7458,-4.5927,-4.523,-4.5203,-4.5247,-4.5247,-4.5203,-4.5344,-4.5414,-4.5414,-4.5414,-4.5414,-4.5414,-4.5414,-4.5414,-4.5414,-4.5414,-4.5414,-4.5414,-4.5414,-4.5414,-4.5414,-4.5414,-4.5414,-4.5414,-4.5414,-4.5414,-4.5414,-4.5414,-4.545,-4.5649,-4.5988,-4.6471,-4.6842,-4.698,-4.6998,-4.6998,-4.6998,-4.6998,-4.6998,-4.6998,-4.6998,-4.6998,-4.6998,-4.6998,-4.6998,-4.6998,-4.6998,-4.6998,-4.6998,-4.6998,-4.6998,-4.6998,-4.6998,-4.6998,-4.6998,-4.6998,-4.6998,-4.6998,-4.6998,-4.6998,-4.6998,-4.6842,-4.6542,-4.6337,-4.6093,-4.5744,-4.5943,-4.6345,-4.6751,-4.731,-4.804,-4.8478,-4.8792,-4.8801,-4.8897,-4.8545,-4.8114,-4.8032,-4.8,-4.856,-4.9175,-5.0586,-5.1728,-5.2018,-5.2157,-5.2015,-5.1838,-5.1729,-5.1504,-5.061,-5.039,-5.0276,-5.0276,-5.0309,-5.0665,-5.1021,-5.1188,-5.1221,-5.1221,-5.1221,-5.1221,-5.1221,-5.1221,-5.1221,-5.1221,-5.1221,-5.1221,-5.1221,-5.1221,-5.1221,-4.8419,-4.7916,-4.7029,-4.6823,-4.6934,-4.5699,-4.5123,-4.514,-4.5123,-4.5167,-4.5203,-4.5327,-4.5414,-4.5414,-4.5414,-4.5414,-4.5414,-4.5414,-4.5414,-4.5414,-4.5414,-4.5414,-4.5414,-4.5414,-4.5414,-4.5414,-4.5414,-4.5414,-4.5414,-4.5414,-4.5414,-4.5414,-4.5414,-4.5423,-4.5537,-4.593,-4.6447,-4.6778,-4.6957,-4.6998,-4.6998,-4.6998,-4.6998,-4.6998,-4.6998,-4.6998,-4.6998,-4.6998,-4.6998,-4.6998,-4.6998,-4.6998,-4.6998,-4.6998,-4.6998,-4.6998,-4.6998,-4.6998,-4.6998,-4.6998,-4.6998,-4.6998,-4.6998,-4.6998,-4.6998,-4.6998,-4.6842,-4.6488,-4.6418,-4.6345,-4.604,-4.6397,-4.6921,-4.7374,-4.77,-4.8323,-4.8604,-4.8865,-4.8683,-4.8576,-4.8129,-4.777,-4.7786,-4.7901,-4.8828,-4.9333,-5.0022,-5.1112,-5.169,-5.1726,-5.161,-5.145,-5.1355,-5.1134,-5.0843,-5.0519,-5.0244,-5.0212,-5.0309,-5.06,-5.0913,-5.1091,-5.1221,-5.1221,-5.1221,-5.1221,-5.1221,-5.1221,-5.1221,-5.1221,-5.1221,-5.1221,-5.1221,-5.1221,-5.1221,-4.7906,-4.775,-4.6346,-4.5977,-4.6203,-4.5384,-4.5005,-4.5005,-4.5005,-4.5086,-4.5194,-4.5344,-4.5414,-4.5414,-4.5414,-4.5414,-4.5414,-4.5414,-4.5414,-4.5414,-4.5414,-4.5414,-4.5414,-4.5414,-4.5414,-4.5414,-4.5414,-4.5414,-4.5414,-4.5414,-4.5414,-4.5414,-4.5414,-4.5423,-4.5476,-4.593,-4.635,-4.6613,-4.6865,-4.6934,-4.6998,-4.6998,-4.6998,-4.6998,-4.6998,-4.6998,-4.6998,-4.6998,-4.6998,-4.6998,-4.6998,-4.6998,-4.6998,-4.6998,-4.6998,-4.6998,-4.6998,-4.6998,-4.6998,-4.6998,-4.6998,-4.6998,-4.6998,-4.6998,-4.6998,-4.701,-4.6938,-4.6698,-4.6856,-4.6752,-4.6707,-4.6867,-4.7478,-4.7894,-4.8182,-4.8426,-4.8731,-4.8579,-4.8368,-4.8162,-4.7886,-4.7604,-4.7615,-4.7926,-4.9075,-4.9675,-4.9836,-5.0424,-5.1136,-5.1447,-5.1359,-5.1317,-5.1221,-5.1054,-5.0843,-5.0455,-5.0228,-5.0196,-5.0357,-5.0714,-5.0962,-5.114,-5.1221,-5.1221,-5.1221,-5.1221,-5.1221,-5.1221,-5.1221,-5.1221,-5.1221,-5.1221,-5.1221,-5.1221,-5.1221,-4.7297,-4.6413,-4.5923,-4.5541,-4.5271,-4.5005,-4.4858,-4.4869,-4.4951,-4.5032,-4.5113,-4.5291,-4.5414,-4.5414,-4.5397,-4.5397,-4.5414,-4.5414,-4.5414,-4.5414,-4.5414,-4.5414,-4.5414,-4.5414,-4.5414,-4.5414,-4.5414,-4.5414,-4.5414,-4.5414,-4.5414,-4.5414,-4.5423,-4.5494,-4.5649,-4.5938,-4.6137,-4.6525,-4.6708,-4.6819,-4.6957,-4.6998,-4.6998,-4.6998,-4.6998,-4.6998,-4.6998,-4.6998,-4.6998,-4.6998,-4.6998,-4.6998,-4.6998,-4.6998,-4.6998,-4.6998,-4.6998,-4.6998,-4.6998,-4.6998,-4.6998,-4.6998,-4.6998,-4.6998,-4.7015,-4.7574,-4.74,-4.7149,-4.7309,-4.724,-4.7351,-4.7586,-4.8016,-4.8128,-4.8379,-4.8558,-4.8649,-4.8208,-4.7886,-4.7721,-4.7488,-4.7317,-4.7275,-4.7909,-4.8977,-4.9858,-5.0063,-5.0151,-5.0741,-5.1157,-5.1258,-5.1258,-5.1205,-5.1091,-5.0859,-5.0665,-5.0617,-5.0681,-5.0795,-5.1026,-5.1188,-5.1221,-5.1221,-5.1221,-5.1221,-5.1221,-5.1221,-5.1221,-5.1221,-5.1221,-5.1221,-5.1221,-5.1221,-5.1221,-5.1221,-4.6599,-4.5703,-4.5415,-4.51,-4.4754,-4.472,-4.4737,-4.4748,-4.4913,-4.5022,-4.5076,-4.522,-4.5371,-4.5371,-4.5371,-4.5371,-4.5397,-4.5414,-4.5414,-4.5414,-4.5414,-4.5414,-4.5414,-4.5414,-4.5414,-4.5414,-4.5414,-4.5414,-4.5414,-4.5414,-4.5414,-4.5414,-4.5414,-4.5459,-4.5624,-4.576,-4.6013,-4.6357,-4.6542,-4.6772,-4.6911,-4.6998,-4.6998,-4.6998,-4.6998,-4.6998,-4.6998,-4.6998,-4.6998,-4.6998,-4.6998,-4.6998,-4.6998,-4.6998,-4.6998,-4.6998,-4.6998,-4.6998,-4.6998,-4.6998,-4.6998,-4.6998,-4.6998,-4.714,-4.7267,-4.7583,-4.7632,-4.7552,-4.7699,-4.7631,-4.7619,-4.7924,-4.8324,-4.8433,-4.8368,-4.8539,-4.8193,-4.7754,-4.7454,-4.732,-4.7268,-4.7095,-4.7281,-4.801,-4.8881,-4.9639,-5.0294,-5.0396,-5.048,-5.0848,-5.1221,-5.1221,-5.1221,-5.1156,-5.1124,-5.1091,-5.1091,-5.1205,-5.1221,-5.1221,-5.1221,-5.1221,-5.1221,-5.1221,-5.1221,-5.1221,-5.1221,-5.1221,-5.1221,-5.1221,-5.1221,-5.1221,-5.1221,-5.1221,-5.1221,-4.5703,-4.5568,-4.4902,-4.4615,-4.4598,-4.4598,-4.4598,-4.4626,-4.4886,-4.5022,-4.5022,-4.5167,-4.53,-4.5371,-4.5291,-4.53,-4.5397,-4.5414,-4.5414,-4.5414,-4.5414,-4.5414,-4.5414,-4.5414,-4.5414,-4.5414,-4.5414,-4.5414,-4.5414,-4.5414,-4.5414,-4.5414,-4.5414,-4.545,-4.5511,-4.5649,-4.5887,-4.6154,-4.6405,-4.6637,-4.6842,-4.6975,-4.6998,-4.6998,-4.6998,-4.6998,-4.6998,-4.6998,-4.6998,-4.6998,-4.6998,-4.6998,-4.6998,-4.6998,-4.6998,-4.6998,-4.6998,-4.6998,-4.6998,-4.6998,-4.6934,-4.6929,-4.6989,-4.7433,-4.7642,-4.7597,-4.7666,-4.7696,-4.7814,-4.7614,-4.7538,-4.8082,-4.861,-4.8505,-4.8299,-4.8064,-4.7704,-4.7354,-4.7082,-4.6979,-4.6979,-4.7087,-4.7734,-4.8431,-4.901,-4.9763,-5.0473,-5.0809,-5.0897,-5.0929,-5.1221,-5.1221,-5.1221,-5.1221,-5.1221,-5.1221,-5.1221,-5.1221,-5.1221,-5.1221,-5.1221,-5.1221,-5.1221,-5.1221,-5.1221,-5.1221,-5.1221,-5.1221,-5.1221,-5.1221,-5.1221,-5.1221,-5.1221,-5.1221,-5.1221,-4.5382,-4.4919,-4.4699,-4.4598,-4.4598,-4.4598,-4.4598,-4.4626,-4.4886,-4.5022,-4.5005,-4.5247,-4.5327,-4.5414,-4.5327,-4.5371,-4.5397,-4.5414,-4.5414,-4.5414,-4.5414,-4.5414,-4.5414,-4.5414,-4.5414,-4.5414,-4.5414,-4.5414,-4.5414,-4.5414,-4.5414,-4.5414,-4.5414,-4.5414,-4.5423,-4.5459,-4.5675,-4.5912,-4.6186,-4.6447,-4.6725,-4.6865,-4.6911,-4.6957,-4.6998,-4.6998,-4.6998,-4.6998,-4.6998,-4.6998,-4.6998,-4.6998,-4.6998,-4.6998,-4.6998,-4.6998,-4.6998,-4.6998,-4.6998,-4.6998,-4.6947,-4.6832,-4.6846,-4.71,-4.7412,-4.764,-4.7716,-4.7848,-4.7818,-4.7606,-4.7644,-4.8089,-4.8322,-4.8162,-4.7983,-4.777,-4.7387,-4.715,-4.6927,-4.6943,-4.6943,-4.7427,-4.8091,-4.8722,-4.9354,-5.0034,-5.0584,-5.101,-5.1221,-5.1221,-5.1221,-5.1221,-5.1221,-5.1221,-5.1221,-5.1221,-5.1221,-5.1221,-5.1221,-5.1221,-5.1221,-5.1221,-5.1221,-5.1221,-5.1221,-5.1221,-5.1221,-5.1221,-5.1221,-5.1221,-5.1221,-5.1221,-5.1221,-5.1221,-5.1221,-4.4993,-4.4615,-4.4598,-4.4598,-4.4598,-4.4598,-4.4598,-4.4654,-4.4886,-4.4978,-4.4951,-4.514,-4.5247,-4.5274,-4.5247,-4.5291,-4.5414,-4.5414,-4.5414,-4.5414,-4.5414,-4.5414,-4.5414,-4.5414,-4.5414,-4.5414,-4.5414,-4.5414,-4.5414,-4.5414,-4.5414,-4.5414,-4.5414,-4.5414,-4.5397,-4.5423,-4.5485,-4.5675,-4.5887,-4.6186,-4.6447,-4.6684,-4.6801,-4.6865,-4.6929,-4.6998,-4.6998,-4.6998,-4.6998,-4.6998,-4.6998,-4.6998,-4.6998,-4.6998,-4.6998,-4.6998,-4.6998,-4.6998,-4.6957,-4.6643,-4.6708,-4.6724,-4.6699,-4.6869,-4.7159,-4.7444,-4.7704,-4.7891,-4.7746,-4.7671,-4.7803,-4.7902,-4.782,-4.7737,-4.7588,-4.7454,-4.7218,-4.6979,-4.6943,-4.6941,-4.7265,-4.7751,-4.835,-4.8997,-4.9694,-5.0422,-5.0843,-5.1059,-5.1221,-5.1221,-5.1221,-5.1221,-5.1221,-5.1221,-5.1221,-5.1221,-5.1221,-5.1221,-5.1221,-5.1221,-5.1221,-5.1221,-5.1221,-5.1221,-5.1221,-5.1221,-5.1221,-5.1221,-5.1221,-5.1221,-5.1221,-5.1221,-5.1221,-5.1221,-5.1221,-4.4598,-4.4598,-4.4598,-4.4598,-4.4598,-4.4598,-4.4598,-4.4626,-4.4858,-4.4896,-4.4858,-4.4951,-4.5113,-4.5194,-4.514,-4.522,-4.5344,-4.5414,-4.5414,-4.5414,-4.5414,-4.5414,-4.5414,-4.5414,-4.5414,-4.5414,-4.5414,-4.5414,-4.5414,-4.5414,-4.5414,-4.5414,-4.5414,-4.5414,-4.5414,-4.5414,-4.545,-4.5485,-4.5675,-4.5887,-4.6179,-4.6398,-4.659,-4.6678,-4.6819,-4.6957,-4.698,-4.6998,-4.6998,-4.6998,-4.6998,-4.6998,-4.6998,-4.6998,-4.6998,-4.6998,-4.6998,-4.6847,-4.6755,-4.6498,-4.6527,-4.6508,-4.6436,-4.6663,-4.6971,-4.7184,-4.741,-4.7614,-4.7489,-4.7388,-4.7438,-4.7521,-4.7454,-4.7437,-4.7354,-4.7218,-4.7048,-4.6911,-4.6927,-4.7022,-4.7459,-4.7977,-4.8638,-4.9285,-5.0017,-5.0795,-5.1156,-5.1205,-5.1221,-5.1221,-5.1221,-5.1221,-5.1221,-5.1221,-5.1221,-5.1221,-5.1221,-5.1221,-5.1221,-5.1221,-5.1221,-5.1221,-5.1221,-5.1221,-5.1221,-5.1221,-5.1221,-5.1221,-5.1221,-5.1221,-5.1221,-5.1221,-5.1221,-5.1221,-5.1221,-4.4598,-4.4598,-4.4598,-4.4598,-4.4598,-4.4598,-4.4598,-4.4598,-4.4793,-4.4831,-4.4831,-4.4923,-4.5042,-4.515,-4.515,-4.5247,-4.5371,-4.5414,-4.5414,-4.5414,-4.5414,-4.5414,-4.5414,-4.5414,-4.5414,-4.5414,-4.5414,-4.5414,-4.5414,-4.5414,-4.5414,-4.5414,-4.5414,-4.5414,-4.5414,-4.5414,-4.5397,-4.5397,-4.5502,-4.5675,-4.5887,-4.6161,-4.6357,-4.6518,-4.6684,-4.6842,-4.6888,-4.6998,-4.6998,-4.6998,-4.6998,-4.6998,-4.6998,-4.6998,-4.6998,-4.6998,-4.6911,-4.6643,-4.6438,-4.6304,-4.6342,-4.6282,-4.6262,-4.6536,-4.6754,-4.6837,-4.6992,-4.7176,-4.7218,-4.7116,-4.7082,-4.7116,-4.7116,-4.7116,-4.7116,-4.7014,-4.6911,-4.6911,-4.6911,-4.7265,-4.767,-4.8301,-4.8977,-4.9694,-5.0374,-5.0811,-5.1107,-5.1221,-5.1221,-5.1221,-5.1221,-5.1221,-5.1221,-5.1221,-5.1221,-5.1221,-5.1221,-5.1221,-5.1221,-5.1221,-5.1221,-5.1221,-5.1221,-5.1221,-5.1221,-5.1221,-5.1221,-5.1221,-5.1221,-5.1221,-5.1221,-5.1221,-5.1221,-5.1221,-5.1221,-4.4598,-4.4598,-4.4598,-4.4598,-4.4598,-4.4598,-4.4643,-4.4665,-4.4709,-4.4737,-4.4831,-4.494,-4.5032,-4.514,-4.5167,-4.5274,-4.5371,-4.5414,-4.5414,-4.5414,-4.5414,-4.5414,-4.5414,-4.5414,-4.5414,-4.5414,-4.5414,-4.5414,-4.5414,-4.5414,-4.5414,-4.5414,-4.5414,-4.5414,-4.5414,-4.5414,-4.5414,-4.5414,-4.5414,-4.5502,-4.5675,-4.5887,-4.6045,-4.6235,-4.6471,-4.6637,-4.6795,-4.6911,-4.6998,-4.6998,-4.6998,-4.6778,-4.6731,-4.6708,-4.6778,-4.6708,-4.6501,-4.6182,-4.6027,-4.595,-4.6067,-4.6001,-4.5998,-4.6274,-4.6914,-4.7012,-4.6913,-4.7066,-4.7048,-4.6979,-4.6979,-4.6979,-4.6979,-4.6979,-4.6979,-4.6945,-4.6911,-4.6911,-4.7151,-4.7637,-4.8155,-4.8852,-4.9564,-5.026,-5.0827,-5.094,-5.1205,-5.1221,-5.1221,-5.1221,-5.1221,-5.1221,-5.1221,-5.1221,-5.1221,-5.1221,-5.1221,-5.1221,-5.1221,-5.1221,-5.1221,-5.1221,-5.1221,-5.1221,-5.1221,-5.1221,-5.1221,-5.1221,-5.1221,-5.1221,-5.1221,-5.1221,-5.1221,-5.1183,-5.1092,-4.4598,-4.4598,-4.4598,-4.4598,-4.4598,-4.4598,-4.4671,-4.4737,-4.4671,-4.4654,-4.4776,-4.494,-4.4995,-4.5076,-4.514,-4.5274,-4.5371,-4.5397,-4.5414,-4.5414,-4.5414,-4.5414,-4.5414,-4.5414,-4.5414,-4.5414,-4.5414,-4.5414,-4.5414,-4.5414,-4.5414,-4.5414,-4.5414,-4.5414,-4.5414,-4.5414,-4.5414,-4.5414,-4.5414,-4.5414,-4.5528,-4.5641,-4.576,-4.5963,-4.6211,-4.6495,-4.6613,-4.6725,-4.6865,-4.6865,-4.6795,-4.6501,-4.6291,-4.6266,-4.6224,-4.6133,-4.5775,-4.5615,-4.556,-4.5433,-4.566,-4.5829,-4.5848,-4.6233,-4.6919,-4.7032,-4.6929,-4.6894,-4.6911,-4.6911,-4.6911,-4.6911,-4.6911,-4.7008,-4.7008,-4.7105,-4.7121,-4.7186,-4.7637,-4.8139,-4.8738,-4.9434,-5.0001,-5.0714,-5.1021,-5.1188,-5.1221,-5.1221,-5.1221,-5.1221,-5.1221,-5.1221,-5.1221,-5.1221,-5.1221,-5.1221,-5.1221,-5.1221,-5.1221,-5.1221,-5.1221,-5.1221,-5.1221,-5.1221,-5.1221,-5.1221,-5.1221,-5.1221,-5.1221,-5.1221,-5.1221,-5.1221,-5.1221,-5.1146,-5.094,-4.4598,-4.4598,-4.4598,-4.4598,-4.4598,-4.4598,-4.4598,-4.4643,-4.4626,-4.4598,-4.4709,-4.4886,-4.5022,-4.5022,-4.514,-4.5274,-4.5397,-4.5414,-4.5414,-4.5414,-4.5414,-4.5414,-4.5414,-4.5414,-4.5414,-4.5414,-4.5414,-4.5414,-4.5414,-4.5414,-4.5414,-4.5414,-4.5414,-4.5414,-4.5414,-4.5432,-4.55,-4.5466,-4.5483,-4.5518,-4.5414,-4.5528,-4.5615,-4.5778,-4.587,-4.607,-4.6235,-4.6308,-4.635,-4.635,-4.635,-4.6077,-4.5835,-4.57,-4.5649,-4.5537,-4.5157,-4.5192,-4.5166,-4.543,-4.575,-4.5832,-4.6052,-4.657,-4.6979,-4.6979,-4.6911,-4.6911,-4.6911,-4.6911,-4.6911,-4.6911,-4.6943,-4.7168,-4.7281,-4.7605,-4.7783,-4.8123,-4.8576,-4.8965,-4.9386,-4.9823,-5.0131,-5.0714,-5.114,-5.1221,-5.1221,-5.1221,-5.1221,-5.1221,-5.1221,-5.1221,-5.1221,-5.1221,-5.1221,-5.1221,-5.1221,-5.1221,-5.1221,-5.1221,-5.1221,-5.1221,-5.1221,-5.1221,-5.1221,-5.1221,-5.1221,-5.1221,-5.1221,-5.1221,-5.1221,-5.1221,-5.1183,-5.1016,-5.0771]},{"header":{"parameterUnit":"m.s-1","parameterCategory":1,"la1":31.0,"la2":29.5877,"lo1":-88.7671,"lo2":-86.6584,"dy":0.0162,"dx":0.0185,"nx":115,"ny":88,"refTime":"2024-04-09T06:00:00:Z","depth":0,"parameterNumber":3,"parameterNumberName":"V-component_of_WINDS"},"data":[0.0,0.0,0.0,0.0,0.0,0.0,0.0,0.0,0.0,0.0,0.0,0.0,0.0,0.0,0.0,0.0,0.0,0.0,0.0,0.0,0.0,0.0,0.0,0.0,0.0,0.0,0.0,0.0,0.0,0.0,0.0,0.0,0.0,0.0,0.0,0.0,0.0,0.0,0.0,0.0,0.0,0.0,0.0,0.0,0.0,0.0,0.0,0.0,0.0,0.0,0.0,0.0,0.0,0.0,0.0,0.0,0.0,0.0,0.0,0.0,0.0,0.0,0.0,0.0,0.0,0.0,0.0,0.0,0.0,0.0,0.0,0.0,0.0,0.0,0.0,0.0,0.0,0.0,0.0,0.0,0.0,0.0,0.0,0.0,0.0,0.0,0.0,0.0,0.0,0.0,0.0,0.0,0.0,0.0,0.0,0.0,0.0,0.0,0.0,0.0,0.0,0.0,0.0,0.0,0.0,0.0,0.0,0.0,0.0,0.0,0.0,0.0,0.0,0.0,0.0,0.0,0.0,0.0,0.0,0.0,0.0,0.0,0.0,0.0,0.0,0.0,0.0,0.0,0.0,0.0,0.0,0.0,0.0,0.0,0.0,0.0,0.0,0.0,0.0,0.0,0.0,0.0,0.0,0.0,0.0,0.0,0.0,0.0,0.0,0.0,0.0,0.0,0.0,0.0,0.0,0.0,0.0,0.0,0.0,0.0,0.0,0.0,0.0,0.0,0.0,0.0,0.0,0.0,0.0,0.0,0.0,0.0,0.0,0.0,0.0,0.0,0.0,0.0,0.0,0.0,0.0,0.0,0.0,0.0,0.0,0.0,0.0,0.0,0.0,0.0,0.0,0.0,0.0,0.0,0.0,0.0,0.0,0.0,0.0,0.0,0.0,0.0,0.0,0.0,0.0,0.0,0.0,0.0,0.0,0.0,0.0,0.0,0.0,0.0,0.0,0.0,0.0,0.0,0.0,0.0,0.0,0.0,0.0,0.0,0.0,0.0,0.0,0.0,0.0,0.0,0.0,0.0,0.0,0.0,0.0,0.0,0.0,0.0,0.0,0.0,0.0,0.0,0.0,0.0,0.0,0.0,0.0,0.0,0.0,0.0,0.0,0.0,0.0,0.0,0.0,0.0,0.0,0.0,0.0,0.0,0.0,0.0,0.0,0.0,0.0,0.0,0.0,0.0,0.0,0.0,0.0,0.0,0.0,0.0,0.0,0.0,0.0,0.0,0.0,0.0,0.0,0.0,0.0,0.0,0.0,0.0,0.0,0.0,0.0,0.0,0.0,0.0,0.0,0.0,0.0,0.0,0.0,0.0,0.0,0.0,0.0,0.0,0.0,0.0,0.0,0.0,0.0,0.0,0.0,0.0,0.0,0.0,0.0,0.0,0.0,0.0,0.0,0.0,0.0,0.0,0.0,0.0,0.0,0.0,0.0,0.0,0.0,0.0,0.0,0.0,0.0,0.0,0.0,0.0,0.0,0.0,0.0,0.0,0.0,0.0,0.0,0.0,0.0,0.0,0.0,0.0,0.0,0.0,0.0,0.0,0.0,0.0,0.0,0.0,0.0,0.0,0.0,0.0,0.0,0.0,0.0,0.0,0.0,0.0,0.0,0.0,0.0,0.0,0.0,0.0,0.0,0.0,0.0,0.0,0.0,0.0,0.0,0.0,0.0,0.0,0.0,0.0,0.0,0.0,0.0,0.0,0.0,0.0,0.0,0.0,0.0,0.0,0.0,0.0,0.0,0.0,0.0,0.0,0.0,0.0,0.0,0.0,0.0,0.0,0.0,0.0,0.0,0.0,0.0,0.0,0.0,0.0,0.0,0.0,0.0,0.0,0.0,0.0,0.0,0.0,0.0,0.0,0.0,0.0,0.0,0.0,0.0,0.0,0.0,0.0,0.0,0.0,0.0,0.0,0.0,0.0,0.0,0.0,0.0,0.0,0.0,0.0,0.0,0.0,0.0,0.0,0.0,0.0,0.0,0.0,0.0,0.0,0.0,0.0,0.0,0.0,0.0,0.0,0.0,0.0,0.0,0.0,0.0,0.0,0.0,0.0,0.0,0.0,0.0,0.0,0.0,0.0,0.0,0.0,0.0,0.0,0.0,0.0,0.0,0.0,0.0,0.0,0.0,0.0,0.0,0.0,0.0,0.0,0.0,0.0,0.0,0.0,0.0,0.0,0.0,0.0,0.0,0.0,0.0,0.0,0.0,0.0,0.0,0.0,0.0,0.0,0.0,0.0,0.0,0.0,0.0,0.0,0.0,0.0,0.0,0.0,0.0,0.0,0.0,0.0,0.0,0.0,0.0,0.0,0.0,0.0,0.0,0.0,0.0,0.0,0.0,0.0,0.0,0.0,0.0,0.0,0.0,0.0,0.0,0.0,0.0,0.0,0.0,0.0,0.0,0.0,0.0,0.0,0.0,0.0,0.0,0.0,0.0,0.0,0.0,0.0,0.0,0.0,0.0,0.0,0.0,0.0,0.0,0.0,0.0,0.0,0.0,0.0,0.0,0.0,0.0,0.0,0.0,0.0,0.0,0.0,0.0,0.0,0.0,0.0,0.0,0.0,0.0,0.0,0.0,0.0,0.0,0.0,0.0,0.0,0.0,0.0,0.0,0.0,0.0,0.0,0.0,0.0,0.0,0.0,0.0,0.0,0.0,0.0,0.0,0.0,0.0,0.0,0.0,0.0,0.0,0.0,0.0,0.0,0.0,0.0,0.0,0.0,0.0,0.0,0.0,0.0,0.0,0.0,0.0,0.0,0.0,0.0,0.0,0.0,0.0,0.0,0.0,0.0,0.0,0.0,0.0,0.0,0.0,0.0,0.0,0.0,0.0,0.0,0.0,0.0,0.0,0.0,0.0,0.0,0.0,0.0,0.0,0.0,0.0,0.0,0.0,0.0,0.0,0.0,0.0,0.0,0.0,0.0,0.0,0.0,0.0,0.0,0.0,0.0,0.0,0.0,0.0,0.0,0.0,0.0,0.0,0.0,0.0,0.0,0.0,0.0,0.0,0.0,0.0,0.0,0.0,0.0,0.0,0.0,0.0,0.0,0.0,0.0,0.0,0.0,0.0,0.0,0.0,0.0,0.0,0.0,0.0,0.0,0.0,0.0,0.0,0.0,0.0,0.0,0.0,0.0,0.0,0.0,0.0,0.0,0.0,0.0,0.0,0.0,0.0,0.0,0.0,0.0,0.0,0.0,0.0,0.0,0.0,0.0,0.0,0.0,0.0,0.0,0.0,0.0,0.0,0.0,0.0,0.0,0.0,0.0,0.0,0.0,0.0,0.0,0.0,0.0,0.0,0.0,0.0,0.0,0.0,0.0,0.0,0.0,0.0,0.0,0.0,0.0,0.0,0.0,0.0,0.0,0.0,0.0,0.0,0.0,0.0,0.0,0.0,0.0,0.0,0.0,0.0,0.0,0.0,0.0,0.0,0.0,0.0,0.0,0.0,0.0,0.0,0.0,0.0,0.0,0.0,0.0,0.0,0.0,0.0,0.0,0.0,0.0,0.0,0.0,0.0,0.0,0.0,0.0,0.0,0.0,0.0,0.0,0.0,0.0,0.0,0.0,0.0,0.0,0.0,0.0,0.0,0.0,0.0,0.0,0.0,0.0,0.0,0.0,0.0,0.0,0.0,0.0,0.0,0.0,0.0,0.0,0.0,0.0,0.0,0.0,0.0,0.0,0.0,0.0,0.0,0.0,0.0,0.0,0.0,0.0,0.0,0.0,0.0,0.0,0.0,0.0,0.0,0.0,0.0,0.0,0.0,0.0,0.0,0.0,0.0,0.0,0.0,0.0,0.0,0.0,0.0,0.0,0.0,0.0,0.0,0.0,0.0,0.0,0.0,0.0,0.0,0.0,0.0,0.0,0.0,0.0,0.0,0.0,0.0,0.0,0.0,0.0,0.0,0.0,0.0,0.0,0.0,0.0,0.0,0.0,0.0,0.0,0.0,0.0,0.0,0.0,0.0,0.0,0.0,0.0,0.0,0.0,0.0,0.0,0.0,0.0,0.0,0.0,0.0,0.0,0.0,0.0,0.0,0.0,0.0,0.0,0.0,0.0,0.0,0.0,0.0,0.0,0.0,0.0,0.0,0.0,0.0,0.0,0.0,0.0,0.0,0.0,0.0,0.0,0.0,0.0,0.0,0.0,0.0,0.0,0.0,0.0,0.0,0.0,0.0,0.0,0.0,0.0,0.0,0.0,0.0,0.0,0.0,0.0,0.0,0.0,0.0,0.0,0.0,0.0,0.0,0.0,0.0,0.0,0.0,0.0,0.0,0.0,0.0,0.0,0.0,0.0,0.0,0.0,0.0,0.0,0.0,0.0,0.0,0.0,0.0,0.0,0.0,0.0,0.0,0.0,0.0,0.0,0.0,0.0,0.0,0.0,0.0,0.0,0.0,0.0,0.0,0.0,0.0,0.0,0.0,0.0,0.0,0.0,0.0,0.0,0.0,0.0,0.0,0.0,0.0,0.0,0.0,0.0,0.0,0.0,0.0,0.0,0.0,0.0,0.0,0.0,0.0,0.0,0.0,0.0,0.0,0.0,0.0,0.0,0.0,0.0,0.0,0.0,0.0,0.0,0.0,0.0,0.0,0.0,0.0,0.0,0.0,0.0,0.0,0.0,0.0,0.0,0.0,0.0,0.0,0.0,0.0,0.0,0.0,0.0,0.0,0.0,0.0,0.0,0.0,0.0,0.0,0.0,0.0,0.0,0.0,0.0,0.0,0.0,0.0,0.0,0.0,0.1112,0.0803,0.0618,0.0432,0.0309,0.0,0.0,0.0,0.0,0.0,0.0,0.0,0.0,0.0,0.0,0.0,0.0,0.0,0.0,0.0,0.0,0.0,0.0,0.0,0.0,0.0,0.0,0.0,0.0,0.0,0.0,0.0,0.0,0.0,0.0,0.0,0.0,0.0,0.0,0.0,0.0,0.0,0.0,0.0,0.0,0.0,0.0,0.0,0.0,0.0,0.0,0.0,0.0,0.0,0.0,0.0,0.0,0.0,0.0,0.0,0.0,0.0,0.0,0.0,0.0,0.0,0.0,0.0,0.0,0.0,0.0,0.0,0.0,0.0,0.0,0.0,0.0,0.0,0.0,0.0,0.0,0.0,0.0,0.0,0.0,0.0,0.0,0.0,0.0,0.0,0.0,0.0,0.0,0.0,0.0,0.0,0.0,0.0,0.0,0.0,0.0,0.0,0.0,0.0,0.0,0.0,0.0,0.0,0.0,0.0,0.0,0.0,0.0,0.0,0.0,0.0,0.0,0.0865,0.0618,0.0494,0.0,0.0,0.0,0.0,0.0,0.0,0.0,0.0,0.0,0.0,0.0,0.0,0.0,0.0,0.0,0.0,0.0,0.0,0.0,0.0,0.0,0.0,0.0,0.0,0.0,0.0,0.0,0.0,0.0,0.0,0.0,0.0,0.0,0.0,0.0,0.0,0.0,0.0,0.0,0.0,0.0,0.0,0.0,0.0,0.0,0.0,0.0,0.0,0.0,0.0,0.0,0.0,0.0,0.0,0.0,0.0,0.0,0.0,0.0,0.0,0.0,0.0,0.0,0.0,0.0,0.0,0.0,0.0,0.0,0.0,0.0,0.0,0.0,0.0,0.0,0.0,0.0,0.0,0.0,0.0,0.0,0.0,0.0,0.0,0.0,0.0,0.0,0.0,0.0,0.0,0.0,0.0,0.0,0.0,0.0,0.0,0.0,0.0,0.0,0.0,0.0,0.0,0.0,0.0,0.0,0.0,0.0,0.0,0.0,0.0,0.1791,0.1483,0.142,0.0,0.0556,0.0,0.0,0.0,0.0,0.0,0.0,0.0,0.0,0.0,0.0,0.0,0.0,0.0,0.0,0.0,0.0,0.0,0.0,0.0,0.0,0.0,0.0,0.0,0.0,0.0,0.0,0.0,0.0,0.0,0.0,0.0,0.0,0.0,0.0,0.0,0.0,0.0,0.0,0.0,0.0,0.0,0.0,0.0,0.0,0.0,0.0,0.0,0.0,0.0,0.0,0.0,0.0,0.0,0.0,0.0,0.0,0.0,0.0,0.0,0.0,0.0,0.0,0.0,0.0,0.0,0.0,0.0,0.0,0.0,0.0,0.0,0.0,0.0,0.0,0.0,0.0,0.0,0.0,0.0,0.0,0.0,0.0,0.0,0.0,0.0,0.0,0.0,0.0,0.0,0.0,0.0,0.0,0.0,0.0,0.0,0.0,0.0,0.0,0.0,0.0,0.0,0.0,0.0,0.0,0.0,0.0,0.0,0.0,0.0,0.0,0.216,0.1791,0.1606,0.1173,0.0,0.0,0.0,0.0,0.0,0.0,0.0,0.0,0.0,0.0,0.0,0.0,0.0,0.0,0.0,0.0,0.0,0.0,0.0,0.0,0.0,0.0,0.0,0.0,0.0,0.0,0.0,0.0,0.0,0.0,0.0,0.0,0.0,0.0,0.0,0.0,0.0,0.0,0.0,0.0,0.0,0.0,0.0,0.0,0.0,0.0,0.0,0.0,0.0,0.0,0.0,0.0,0.0,0.0,0.0,0.0,0.0,0.0,0.0,0.0,0.0,0.0,0.0,0.0,0.0,0.0,0.0,0.0,0.0,0.0,0.0,0.0,0.0,0.0,0.0,0.0,0.0,0.0,0.0,0.0,0.0,0.0,0.0,0.0,0.0,0.0,0.0,0.0,0.0,0.0,0.0,0.0,0.0,0.0,0.0,0.0,0.0,0.0,0.0,0.0,0.0,0.0,0.0,0.0,0.0,0.0,0.0,0.0,0.0,0.0,0.2714,0.2468,0.2038,0.1668,0.1235,0.0679,0.0,0.0,0.0,0.0,0.0,0.0,0.0,0.0,0.0,0.0,0.0,0.0,0.0,0.0,0.0,0.0,0.0,0.0,0.0,0.0,0.0,0.0,0.0,0.0,0.0,0.0,0.0,0.0,0.0,0.0,0.0,0.0,0.0,0.0,0.0,0.0,0.0,0.0,0.0,0.0,0.0,0.0,0.0,0.0,0.0,0.0,0.0,0.0,0.0,0.0,0.0,0.0,0.0,0.0,0.0,0.0,0.0,0.0,0.0,0.0,0.0,0.0,0.0,0.0,0.0,0.0,0.0,0.0,0.0,0.0,0.0,0.0,0.0,0.0,0.0,0.0,0.0,0.0,0.0,0.0,0.0,0.0,0.0,0.0,0.0,0.0,0.0,0.0,0.0,0.0,0.0,0.0,0.0,0.0,0.0,0.0,0.0,0.0,0.0,0.0,0.0,0.0,0.0,0.0,0.0,0.0,0.0,0.0,0.3821,0.3268,0.2653,0.2038,0.1668,0.1359,0.0,0.0,0.0,0.0,0.0,0.0,0.0,0.0,0.0,0.0,0.0,0.0,0.0,0.0,0.0,0.0,0.0,0.0,0.0,0.0,0.0,0.0,0.0,0.0,0.0,0.0,0.0,0.0,0.0,0.0,0.0,0.0,0.0,0.0,0.0,0.0,0.0,0.0,0.0,0.0,0.0,0.0,0.0,0.0,0.0,0.0,0.0,0.0,0.0,0.0,0.0,0.0,0.0,0.0,0.0,0.0,0.0,0.0,0.0,0.0,0.0,0.0,0.0,0.0,0.0,0.0,0.0,0.0,0.0,0.0,0.0,0.0,0.0,0.0,0.0,0.0,0.0,0.0,0.0,0.0,0.0,0.0,0.0,0.0,0.0,0.0,0.0,0.0,0.0,0.0,0.0,0.0,0.0,0.0,0.0,0.0,0.0,0.0,0.0,0.0,0.0,0.0,0.0,0.0,0.0,0.0,0.0,0.0,0.0,0.4253,0.3391,0.2776,0.2345,0.1976,0.1668,0.0,0.0,0.0,0.0,0.0,0.0,0.0,0.0,0.0,0.0,0.0,0.0,0.0,0.0,0.0,0.0,0.0,0.0,0.0,0.0,0.0,0.0,0.0,0.0,0.0,0.0,0.0,0.0,0.0,0.0,0.0,0.0,0.0,0.0,0.0,0.0,0.0,0.0,0.0,0.0,0.0,0.0,0.0,0.0,0.0,0.0,0.0,0.0,0.0,0.0,0.0,0.0,0.0,0.0,0.0,0.0,0.0,0.0,0.0,0.0,0.0,0.0,0.0,0.0,0.0,0.0,0.0,0.0,0.0,0.0,0.0,0.0,0.0,0.0,0.0,0.0,0.0,0.0,0.0,0.0,0.0,0.0,0.0,0.0,0.0,0.0,0.0,0.0,0.0,0.0,0.0,0.0,0.0,0.0,0.0,0.0,0.0,0.0,0.0,0.0,0.0,0.0,0.0,0.0,0.0,0.0,0.0,0.0,0.0,0.4559,0.0,0.3085,0.2652,0.2346,0.1914,0.0,0.0,0.0,0.0,0.0,0.0,0.0,0.0,0.0,0.0,0.0,0.0,0.0,0.0,0.0,0.0,0.0,0.0,0.0,0.0,0.0,0.0,0.0,0.0,0.0,0.0,0.0,0.0,0.0,0.0,0.0,0.0,0.0,0.0,0.0,0.0,0.0,0.0,0.0,0.0,0.0,0.0,0.0,0.0,0.0,0.0,0.0,0.0,0.0,0.0,0.0,0.0,0.0,0.0,0.0,0.0,0.0,0.0,0.0,0.0,0.0,0.0,0.0,0.0,0.0,0.0,0.0,0.0,0.0,0.0,0.0,0.0,0.0,0.0,0.0,0.0,0.0,0.0,0.0,0.0,0.0,0.0,0.0,0.0,0.0,0.0,0.0,0.0,0.0,0.0,0.0,0.0,0.0,0.0,0.0,0.0,0.0,0.0,0.0,0.0,0.0,0.0,0.0,0.0,0.0,0.0,0.0,0.0,0.5912,0.4928,0.425,0.3638,0.3023,0.2715,0.2036,0.0,0.0,0.0,0.0,0.0,0.0,0.0,0.0,0.0,0.0,0.0,0.0,0.0,0.0,0.0,0.0,0.0,0.0,0.0,0.0,0.0,0.0,0.0,0.0,0.0,0.0,0.0,0.0,0.0,0.0,0.0,0.0,0.0,0.0,0.0,0.0,0.0,0.0,0.0,0.0,0.0,0.0,0.0,0.0,0.0,0.0,0.0,0.0,0.0,0.0,0.0,0.0,0.0,0.0,0.0,0.0,0.0,0.0,0.0,0.0,0.0,0.0,0.0,0.0,0.0,0.0,0.0,0.0,0.0,0.0,0.0,0.0,0.0,0.0,0.0,0.0,0.0,0.0,0.0,0.0,0.0,0.0,0.0,0.0,0.0,0.0,0.0,0.0,0.0,0.0,0.0,0.0,0.0,0.0,0.0,0.0,0.0,0.0,0.0,0.0,0.0,0.0,0.0,0.0,0.0,0.0,0.0,0.0,0.0,0.5687,0.4952,0.4334,0.3754,0.3162,0.2468,0.0,0.0,0.0,0.0,0.0,0.0,0.0,0.0,0.0,0.0,0.0,0.0,0.0,0.0,0.0,0.0,0.0,0.0,0.0,0.0,0.0,0.0,0.0,0.0,0.0,0.0,0.0,0.0,0.0,0.0,0.0,0.0,0.0,0.0,0.0,0.0,0.0,0.0,0.0,0.0,0.0,0.0,0.0,0.0,0.0,0.0,0.0,0.0,0.0,0.0,0.0,0.0,0.0,0.0,0.0,0.0,0.0,0.0,0.0,0.0,0.0,0.0,0.0,0.0,0.0,0.0,0.0,0.0,0.0,0.0,0.0,0.0,0.0,0.0,0.0,0.0,0.0,0.0,0.0,0.0,0.0,0.0,0.0,0.0,0.0,0.0,0.0,0.0,0.0,0.0,0.0,0.0,0.0,0.0,0.0,0.0,0.0,0.0,0.0,0.0,0.0,0.0,0.0,0.0,0.0,0.0,0.0,0.0,0.0,0.6659,0.5882,0.5242,0.4663,0.3935,0.3161,0.222,0.0,0.0,0.0,0.0,0.0,0.0,0.0,0.0,0.0,0.0,0.0,0.0,0.0,0.0,0.0,0.0,0.0,0.0,0.0,0.0,0.0,0.0,0.0,0.0,0.0,0.0,0.0,0.0,0.0,0.0,0.0,0.0,0.0,0.0,0.0,0.0,0.0,0.0,0.0,0.0,0.0,0.0,0.0,0.0,0.0,0.0,0.0,0.0,0.0,0.0,0.0,0.0,0.0,0.0,0.0,0.0,0.0,0.0,0.0,0.0,0.0,0.0,0.0,0.0,0.0,0.0,0.0,0.0,0.0,0.0,0.0,0.0,0.0,0.0,0.0,0.0,0.0,0.0,0.0,0.0,0.0,0.0,0.0,0.0,0.0,0.0,0.0,0.0,0.0,0.0,0.0,0.0,0.0,0.0,0.0,0.0,0.0,0.0,0.0,0.0,0.0,0.0,0.0,0.0,0.0,0.0,0.0,0.0,0.7714,0.7054,0.638,0.569,0.4981,0.4004,0.0,0.0,0.0,0.0,0.0,0.0,0.0,0.0,0.0,0.0,0.0,0.0,0.0,0.0,0.0,0.0,0.0,0.0,0.0,0.0,0.0,0.0,0.0,0.0,0.0,0.0,0.0,0.0,0.0,0.0,0.0,0.0,0.0,0.0,0.0,0.0,0.0,0.0,0.0,0.0,0.0,0.0,0.0,0.0,0.0,0.0,0.0,0.0,0.0,0.0,0.0,0.0,0.0,0.0,0.0,0.0,0.0,0.0,0.0,0.0,0.0,0.0,0.0,0.0,0.0,0.0,0.0,0.0,0.0,0.0,0.0,0.0,0.0,0.0,0.0,0.0,0.0,0.0,0.0,0.0,0.0,0.0,0.0,0.0,0.0,0.0,0.0,0.0,0.0,0.0,0.0,0.0,0.0,0.0,0.0,0.0,0.0,0.0,0.0,0.0,0.0,0.0,0.0,0.0,0.0,0.0,0.0,0.0,0.0,0.798,0.7924,0.748,0.6565,0.5541,0.4465,0.0,0.0,0.0,0.0,0.0,0.0,0.0,0.0,0.0,0.0,0.0,0.0,0.0,0.0,0.0,0.0,0.0,0.0,0.0,0.0,0.0,0.0,0.0,0.0,0.0,0.0,0.0,0.0,0.0,0.0,0.0,0.0,0.0,0.0,0.0,0.0,0.0,0.0,0.0,0.0,0.0,0.0,0.0,0.0,0.0,0.0,0.0,0.0,0.0,0.0,0.0,0.0,0.0,0.0,0.0,0.0,0.0,0.0,0.0,0.0,0.0,0.0,0.0,0.0,0.0,0.0,0.0,0.0,0.0,0.0,0.0,0.0,0.0,0.0,0.0,0.0,0.0,0.0,0.0,0.0,0.0,0.0,0.0,0.0,0.0,0.0,0.0,0.0,0.0,0.0,0.0,0.0,0.0,0.0,0.0,0.0,0.0,0.0,0.0,0.0,0.0,0.0,0.0,0.0,0.0,0.0,0.0,0.0,0.813,0.8133,0.8364,0.8223,0.7627,0.6451,0.5261,0.0,0.0,0.0,0.0,0.0,0.0,0.0,0.0,0.0,0.0,0.0,0.0,0.0,0.0,0.0,0.0,0.0,0.0,0.0,0.0,0.0,0.0,0.0,0.0,0.0,0.0,0.0,0.0,0.0,0.0,0.0,0.0,0.0,0.0,0.0,0.0,0.0,0.0,0.0,0.0,0.0,0.0,0.0,0.0,0.0,0.0,0.0,0.0,0.0,0.0,0.0,0.0,0.0,0.0,0.0,0.0,0.0,0.0,0.0,0.0,0.0,0.0,0.0,0.0,0.0,0.0,0.0,0.0,0.0,0.0,0.0,0.0,0.0,0.0,0.0,0.0,0.0,0.0,0.0,0.0,0.0,0.0,0.0,0.0,0.0,0.0,0.0,0.0,0.0,0.0,0.0,0.0,0.0,0.0,0.0,0.0,0.0,0.0,0.0,0.0,0.0,0.0,0.0,0.0,0.0,0.0,0.0,0.0,0.8228,0.8156,0.8459,0.8576,0.8546,0.7432,0.6137,0.0,0.0,0.0,0.0,0.0,0.0,0.0,0.0,0.0,0.0,0.0,0.0,0.0,0.0,0.0,0.0,0.0,0.0,0.0,0.0,0.0,0.0,0.0,0.0,0.0,0.0,0.0,0.0,0.0,0.0,0.0,0.0,0.0,0.0,0.0,0.0,0.0,0.0,0.0,0.0,0.0,0.0,0.0,0.0,0.0,0.0,0.0,0.0,0.0,0.0,0.0,0.0,0.0,0.0,0.0,0.0,0.0,0.0,0.0,0.0,0.0,0.0,0.0,0.0,0.0,0.0,0.0,0.0,0.0,0.0,0.0,0.0,0.0,0.0,0.0,0.0,0.0,0.0,0.0,0.0,0.0,0.0,0.0,0.0,0.0,0.0,0.0,0.0,0.0,0.0,0.0,0.0,0.0,0.0,0.0,0.0,0.0,0.0,0.0,0.0,0.0,0.0,0.0,0.0,0.0,0.0,0.0,0.0,0.8187,0.81,0.8416,0.8497,0.8315,0.7291,0.6424,0.0,0.0,0.0,0.0,0.0,0.0,0.0,0.0,0.0,0.0,0.0,0.0,0.0,0.0,0.0,0.0,0.0,0.0,0.0,0.0,0.0,0.0,0.0,0.0,0.0,0.0,0.0,0.0,0.0,0.0,0.0,0.0,0.0,0.0,0.0,0.0,0.0,0.0,0.0,0.0,0.0,0.0,0.0,0.0,0.0,0.0,0.0,0.0,0.7706,0.0,0.0,0.0,0.0,0.0,0.0,0.0,0.0,0.0,0.0,0.0,0.0,0.0,0.0,0.0,0.0,0.0,0.0,0.0,0.0,0.0,0.0,0.0,0.0,0.0,0.0,0.0,0.0,0.0,0.0,0.0,0.0,0.0,0.0,0.0,0.0,0.0,0.0,0.0,0.0,0.0,0.0,0.0,0.0,0.0,0.0,0.0,0.0,0.0,0.0,0.0,0.0,0.0,0.0,0.0,0.0,0.0,0.0,0.0,0.8119,0.8128,0.8296,0.8361,0.8175,0.7541,0.6685,0.0,0.0,0.0,0.0,0.0,0.0,0.0,0.0,0.0,0.0,0.0,0.0,0.0,0.0,0.0,0.0,0.0,0.0,0.0,0.0,0.0,0.0,0.0,0.0,0.0,0.0,0.0,0.0,0.0,0.0,0.0,0.0,0.0,0.0,0.0,0.0,0.0,0.0,0.0,0.0,0.0,0.0,0.0,0.0,0.0,0.0,0.0,0.0,0.0,0.0,0.0,0.0,0.0,0.0,0.0,0.0,0.0,0.0,0.0,0.0,0.0,0.0,0.0,0.0,0.0,0.0,0.0,0.0,0.0,0.0,0.0,0.0,0.0,0.0,0.0,0.0,0.0,0.0,0.0,0.0,0.0,0.0,0.0,0.0,0.0,0.0,0.0,0.0,0.0,0.0,0.0,0.0,0.0,0.0,0.0,0.0,0.0,0.0,0.0,0.0,0.0,0.0,0.0,0.0,0.0,0.0,0.0,0.8054,0.8119,0.8122,0.8171,0.8225,0.8143,0.7859,0.7034,0.5747,0.0,0.0,0.0,0.0,0.0,0.0,0.0,0.0,0.0,0.0,0.0,0.0,0.0,0.0,0.0,0.0,0.0,0.0,0.0,0.0,0.0,0.0,0.0,0.0,0.0,0.0,0.0,0.0,0.0,0.0,0.0,0.0,0.0,0.0,0.0,0.0,0.0,0.0,0.8729,0.9449,0.0,0.0,0.0,0.0,0.0,0.0,0.0,0.0,0.8161,0.0,0.0,0.0,0.0,0.0,0.0,0.0,0.0,0.0,0.0,0.0,0.0,0.0,0.0,0.0,0.0,0.0,0.0,0.0,0.0,0.0,0.0,0.0,0.0,0.0,0.0,0.0,0.0,0.0,0.0,0.0,0.0,0.0,0.0,0.0,0.0,0.0,0.0,0.0,0.0,0.0,0.0,0.0,0.0,0.0,0.0,0.0,0.0,0.0,0.0,0.0,0.0,0.0,0.0,0.0,0.0,0.793,0.8054,0.8119,0.8119,0.8174,0.8187,0.8089,0.8065,0.7464,0.6248,0.0,0.0,0.0,0.0,0.0,0.0,0.0,0.0,0.0,0.0,0.0,0.0,0.0,0.0,0.0,0.0,0.0,0.0,0.0,0.0,0.0,0.0,0.0,0.0,0.0,0.0,0.0,0.0,0.0,0.0,0.0,0.0,0.0,0.0,0.0,0.0,0.0,0.0,0.0,1.1217,1.1417,0.0,0.0,0.0,0.0,0.0,0.0,0.0,0.0,0.8054,0.0,0.0,0.0,0.0,0.0,0.0,0.0,0.0,0.0,0.0,0.0,0.0,0.0,0.0,0.0,0.0,0.0,0.0,0.0,0.0,0.0,0.0,0.0,0.0,0.0,0.0,0.0,0.0,0.0,0.0,0.0,0.0,0.0,0.0,0.0,0.0,0.0,0.0,0.0,0.0,0.0,0.0,0.0,0.0,0.0,0.0,0.0,0.0,0.0,0.0,0.0,0.0,0.0,0.0,0.0,0.7864,0.7991,0.8021,0.8023,0.8016,0.8019,0.7962,0.7902,0.7448,0.0,0.0,0.0,0.0,0.0,0.0,0.0,0.0,0.0,0.0,0.0,0.0,0.0,0.0,0.0,0.0,0.0,0.0,0.0,0.0,0.0,0.0,0.0,0.0,0.0,0.0,0.0,0.0,0.0,0.0,0.0,0.0,0.0,0.0,0.0,0.0,0.0,0.0,0.0,0.0,1.2735,1.3301,1.4114,0.0,0.0,0.0,0.0,0.0,0.0,0.9587,0.9256,0.0,0.0,0.0,0.0,0.0,0.0,0.0,0.0,0.0,0.0,0.0,0.0,0.0,0.0,0.0,0.0,0.0,0.0,0.0,0.0,0.0,0.0,0.0,0.0,0.0,0.0,0.0,0.0,0.0,0.0,0.0,0.0,0.0,0.0,0.0,0.0,0.0,0.0,0.0,0.0,0.0,0.0,0.0,0.0,0.0,0.0,0.0,0.0,0.0,0.0,0.0,0.0,0.0,0.0,0.0,0.7828,0.7861,0.7933,0.7933,0.7933,0.7933,0.7869,0.7761,0.7391,0.0,0.0,0.0,0.0,0.0,0.0,0.0,0.0,0.0,0.0,0.0,0.0,0.0,0.0,0.0,0.0,0.0,0.0,0.0,0.0,0.0,0.0,0.0,0.0,0.0,0.0,0.0,0.0,0.0,0.0,0.0,0.0,0.0,0.0,0.0,0.0,0.0,0.0,0.0,0.0,0.0,1.4927,1.5453,1.4553,0.0,0.0,0.0,0.0,1.1374,1.1124,0.0,0.0,0.0,0.0,0.0,0.0,0.0,0.0,0.0,0.0,0.0,0.0,0.0,0.0,0.0,0.0,0.0,0.0,0.0,0.0,0.0,0.0,0.0,0.0,0.0,0.0,0.0,0.0,0.0,0.0,0.0,0.0,0.0,0.0,0.0,0.0,0.0,0.0,0.0,0.0,0.0,0.0,0.0,0.0,0.0,0.0,0.0,0.0,0.0,0.0,0.0,0.0,0.0,0.0,0.0,0.0,0.7717,0.782,0.7933,0.7933,0.7933,0.7933,0.793,0.7761,0.7352,0.0,0.0,0.0,0.0,0.0,0.0,0.0,0.0,0.0,0.0,0.0,0.0,0.0,0.0,0.0,0.0,0.0,0.0,0.0,0.0,0.0,0.0,0.0,0.0,0.0,0.0,0.0,0.0,0.0,0.0,0.0,0.0,0.0,0.0,0.0,0.0,0.0,0.0,0.0,0.0,0.0,1.5356,1.6271,1.5298,1.449,0.0,0.0,1.3308,1.2522,1.2411,0.0,0.0,0.0,0.0,0.0,0.0,0.0,0.0,0.0,0.0,0.0,0.0,0.0,0.0,0.0,0.0,0.0,0.0,0.0,0.0,0.0,0.0,0.0,0.0,0.0,0.0,0.0,0.0,0.0,0.0,0.0,0.0,0.0,0.0,0.0,0.0,0.0,0.0,0.0,0.0,0.0,0.0,0.0,0.0,0.0,0.0,0.0,0.0,0.0,0.0,0.0,0.0,0.0,0.0,0.0,0.7578,0.7701,0.7812,0.7933,0.7933,0.7933,0.7933,0.7933,0.7693,0.7397,0.0,0.0,0.0,0.0,0.0,0.0,0.0,0.0,0.0,0.0,0.0,0.0,0.0,0.0,0.0,0.0,0.0,0.0,0.0,0.0,0.0,0.0,0.0,0.0,0.0,0.0,0.0,0.0,0.0,0.0,0.0,0.0,0.0,0.0,0.0,0.0,0.0,0.0,0.0,0.0,0.0,0.0,1.6639,1.6387,0.0,0.0,0.0,1.5216,1.461,0.0,0.0,0.0,0.0,0.0,0.0,0.0,0.0,0.0,0.0,0.0,0.0,0.0,0.0,0.0,0.0,0.0,0.0,0.0,0.0,0.0,0.0,0.0,0.0,0.0,0.0,0.0,0.0,0.0,0.0,0.0,0.0,0.0,0.0,0.0,0.0,0.0,0.0,0.0,0.0,0.0,0.0,0.0,0.0,0.0,0.0,0.0,0.0,0.0,0.0,0.0,0.0,0.0,0.0,0.0,0.0,0.0,0.7773,0.7856,0.7933,0.7933,0.7933,0.7933,0.7928,0.7674,0.0,0.0,0.0,0.0,0.0,0.0,0.0,0.0,0.0,0.0,0.0,0.0,0.0,0.0,0.0,0.0,0.0,0.0,0.0,0.0,0.0,0.0,0.0,0.0,0.0,0.0,0.0,0.7553,0.0,0.0,0.0,0.0,0.0,0.0,0.0,0.0,0.0,0.0,0.0,0.0,0.0,0.0,1.6606,1.6788,1.7083,1.7311,0.0,0.0,1.6844,1.6279,1.6013,1.5443,0.0,0.0,0.0,0.0,0.0,0.0,0.0,0.0,0.0,0.0,0.0,0.0,0.0,0.0,0.0,0.0,0.0,0.0,0.0,0.0,0.0,0.0,0.0,0.0,0.0,0.0,0.0,0.0,0.0,0.0,0.0,0.0,0.0,0.0,0.0,0.0,0.0,0.0,0.0,0.0,0.0,0.0,0.0,0.0,0.0,0.0,0.0,0.0,0.0,0.0,0.0,0.0,0.0,0.0,0.7988,0.8002,0.7936,0.7933,0.7933,0.7933,0.7933,0.793,0.7752,0.7512,0.0,0.0,0.0,0.0,0.0,0.0,0.0,0.0,0.0,0.0,0.0,0.0,0.0,0.0,0.0,0.0,0.0,0.0,0.0,0.0,0.0,0.0,0.0,0.0,0.0,0.0,0.0,0.0,0.0,0.0,0.0,0.0,0.0,0.0,0.0,0.0,0.0,0.0,0.0,0.0,0.0,1.6537,1.6501,1.7022,1.7371,0.0,1.7787,1.784,1.7124,1.7463,1.7138,1.5155,0.0,0.0,0.0,0.0,0.0,0.0,0.0,0.0,0.0,0.0,0.0,0.0,0.0,0.0,0.0,0.0,0.0,0.0,0.0,0.0,0.0,0.0,0.0,0.0,0.0,0.0,0.0,0.0,0.0,0.0,0.0,0.0,0.0,0.0,0.0,0.0,0.0,0.0,0.0,0.0,0.0,0.0,0.0,0.0,0.0,0.0,0.0,0.0,0.0,0.0,0.0,0.0,0.0,0.8852,0.8273,0.8588,0.8482,0.7933,0.7933,0.7933,0.7933,0.7761,0.7584,0.0,0.0,0.0,0.0,0.0,0.0,0.0,0.0,0.0,0.0,0.0,0.0,0.0,0.0,0.0,0.0,0.0,0.0,0.0,0.0,0.0,0.0,0.0,0.0,0.0,0.0,0.0,0.0,0.9731,1.0302,1.0857,0.0,0.0,0.0,0.0,0.0,0.0,0.0,0.0,0.0,0.0,1.643,1.6762,1.7439,0.0,0.0,1.839,1.8661,1.8406,1.8036,1.7375,1.6288,1.5438,0.0,0.0,0.0,0.0,0.0,0.0,0.0,0.0,0.0,0.0,0.0,0.0,0.0,0.0,0.0,0.0,0.0,0.0,0.0,0.0,0.0,0.0,0.0,0.0,0.0,0.0,0.0,0.0,0.0,0.0,0.0,0.0,0.0,0.0,0.0,0.0,0.0,0.0,0.0,0.0,0.0,0.0,0.0,0.0,0.0,0.0,0.0,0.0,0.0,0.0,0.0,0.0,0.978,0.9081,0.9546,0.9252,0.8303,0.8303,0.8104,0.7826,0.769,0.7589,0.0,0.0,0.0,0.0,0.0,0.0,0.0,0.0,0.0,0.0,0.0,0.0,0.0,0.0,0.0,0.0,0.0,0.0,0.0,0.0,0.0,0.0,0.0,0.0,0.0,0.0,0.0,0.0,1.0815,1.1428,1.2055,0.0,0.0,0.0,0.0,0.0,0.0,0.0,0.0,0.0,0.0,1.6588,1.6944,1.7703,1.8167,1.8167,1.8619,1.8963,1.8963,1.8481,1.7823,1.7264,0.0,0.0,0.0,0.0,0.0,0.0,0.0,0.0,0.0,0.0,0.0,0.0,0.0,0.0,0.0,0.0,0.0,0.0,0.0,0.0,0.0,0.0,0.0,0.0,0.0,0.0,0.0,1.1071,0.0,0.0,1.094,0.0,0.0,0.0,0.0,0.0,0.0,0.0,0.0,0.0,0.0,0.0,0.0,0.0,0.0,0.0,0.0,0.0,0.0,0.0,0.0,0.0,0.0,1.0701,1.0647,1.0733,1.0226,0.9189,0.9185,0.8648,0.7655,0.7524,0.7467,0.7345,0.0,0.0,0.0,0.0,0.0,0.0,0.0,0.0,0.0,0.0,0.0,0.0,0.0,0.0,0.0,0.0,0.0,0.0,0.0,0.0,0.0,0.0,0.0,0.0,0.0,0.0,1.1553,1.2346,1.2945,0.0,0.0,0.0,0.0,0.0,0.0,0.0,0.0,0.0,1.6091,1.6617,1.6956,1.702,1.7542,1.7967,1.7895,1.8354,1.8698,1.8704,1.8903,1.8721,0.0,0.0,0.0,0.0,0.0,0.0,0.0,0.0,0.0,0.0,0.0,0.0,0.0,0.0,0.0,0.0,0.0,0.0,0.0,0.0,0.0,0.0,0.0,0.0,0.0,0.0,0.0,1.2077,1.2944,0.0,0.0,0.0,0.0,0.0,0.0,0.0,0.0,0.0,0.0,0.0,1.5507,1.5347,0.0,0.0,0.0,0.0,0.0,0.0,0.0,0.0,0.0,0.0,0.0,0.0,1.1674,1.1171,1.1386,1.1012,0.992,0.9854,0.9717,0.9313,0.8671,0.8034,0.7339,0.0,0.0,0.0,0.0,0.0,0.0,0.0,0.0,0.0,0.0,0.0,0.0,0.0,0.0,0.0,0.0,0.0,0.0,0.0,0.0,0.0,0.0,0.0,0.0,0.0,1.2158,0.0,0.0,0.0,0.0,0.0,0.0,0.0,0.0,0.0,0.0,0.0,1.6022,1.6623,1.6909,1.7085,1.7309,1.7805,1.8155,0.0,0.0,0.0,0.0,0.0,0.0,0.0,0.0,0.0,0.0,0.0,0.0,0.0,0.0,1.5411,1.5048,1.523,1.5526,1.5587,0.0,0.0,0.0,0.0,0.0,0.0,0.0,0.0,0.0,0.0,0.0,0.0,0.0,0.0,1.34,1.428,1.4174,0.0,0.0,0.0,0.0,0.0,0.0,0.0,0.0,1.579,1.6178,1.6379,1.62,1.6023,1.583,1.526,1.4429,0.0,0.0,0.0,0.0,0.0,0.0,0.0,0.0,1.2537,1.197,1.2157,1.1769,1.0677,1.0608,1.0467,1.0069,0.9493,0.871,0.7725,0.7853,0.7803,0.0,0.0,0.0,0.0,0.0,0.0,0.0,0.0,0.0,0.0,0.0,0.0,0.0,0.0,0.0,0.0,0.0,0.0,0.0,0.0,0.0,0.0,0.0,1.3267,0.0,0.0,0.0,0.0,0.0,0.0,0.0,0.0,0.0,1.5372,1.5955,1.6559,1.7103,1.7274,1.7387,1.7618,0.0,0.0,0.0,0.0,0.0,0.0,0.0,1.8755,1.8554,1.8354,1.8054,1.7559,1.7178,1.6978,1.6978,0.0,0.0,1.6401,1.6493,1.6673,1.6735,1.6859,1.7055,1.7055,1.7173,1.7308,0.0,0.0,0.0,0.0,1.3252,0.0,0.0,0.0,1.4318,1.471,0.0,1.5269,0.0,0.0,0.0,0.0,1.5005,1.528,0.0,0.0,1.6396,1.652,1.6228,1.6004,1.5936,1.5863,1.5352,1.5064,1.5027,1.4801,0.0,0.0,0.0,0.0,0.0,0.0,1.3245,1.3184,1.3116,1.255,1.1453,1.144,1.091,0.9919,0.9856,0.9423,0.8647,0.9226,0.919,0.8424,0.8838,0.0,0.0,0.0,0.0,0.0,0.0,0.0,0.0,0.0,0.0,0.0,0.0,0.0,0.0,0.0,0.0,0.0,0.0,0.0,0.0,1.391,0.0,0.0,0.0,0.0,0.0,0.0,0.0,0.0,0.0,0.0,1.6301,1.6537,1.69,1.7449,0.0,0.0,0.0,0.0,1.8384,1.8638,1.8692,1.8794,1.9036,1.9136,1.9066,1.9066,0.0,0.0,1.8693,1.8296,1.8016,1.8033,1.8343,1.8285,1.7174,1.723,1.7348,1.7348,1.7421,1.7393,1.7399,1.7501,1.7433,1.5157,0.0,0.0,0.0,0.0,1.3169,1.3816,1.4956,1.5009,1.5587,1.6473,1.6333,0.0,0.0,0.0,0.0,0.0,0.0,1.5614,1.5908,1.6233,1.6452,1.6526,1.651,1.6474,1.6462,1.6083,1.6004,1.6176,1.5954,1.5364,1.45,0.0,0.0,0.0,0.0,1.3728,1.3595,1.3512,1.3012,1.2142,1.2087,1.1676,1.0739,1.0739,1.03,0.9471,0.9647,0.9678,0.9513,0.9841,0.0,0.0,0.0,0.0,0.0,0.0,0.0,0.0,0.0,0.0,0.0,0.0,0.0,0.0,0.0,0.0,0.0,0.0,0.0,1.4126,1.4924,1.5264,0.0,0.0,0.0,0.0,0.0,0.0,0.0,0.0,0.0,1.6618,1.6978,1.7336,0.0,0.0,1.766,1.7847,1.8118,1.8384,1.865,1.8843,0.0,1.9066,1.9136,1.9136,1.9136,1.9136,1.9078,1.895,1.888,1.881,1.8816,1.888,1.8832,1.858,1.8532,1.8595,1.8595,1.8595,1.8601,1.8595,1.8595,1.859,1.635,1.457,1.4576,1.4629,1.4765,1.4765,1.5306,1.6175,1.617,1.6558,1.7179,1.6976,1.6695,1.6337,1.5818,0.0,0.0,0.0,1.5779,1.6065,1.6121,1.6217,1.6374,1.638,1.638,1.6374,1.6211,1.6211,1.638,1.6211,1.5779,1.5148,0.0,1.4862,1.4719,1.4424,1.4206,1.4029,1.366,1.3222,1.2772,1.255,1.2164,1.1618,1.1618,1.1181,1.0351,1.0625,1.0686,1.0476,1.0832,1.1116,0.0,0.0,0.0,0.0,0.0,0.0,0.0,0.0,0.0,0.0,0.0,1.1549,1.1227,0.0,0.0,0.0,1.3447,1.4036,1.4858,1.5444,0.0,0.0,0.0,0.0,0.0,0.0,0.0,1.5963,1.6506,1.686,1.6881,1.7219,1.7521,1.7624,1.7738,1.7901,1.8161,0.0,1.8662,1.8819,1.8969,1.9136,1.9136,1.9136,1.9136,1.9136,1.9136,1.9136,1.9136,1.9136,1.9136,1.9136,1.9136,1.9136,1.9136,1.9136,1.9136,1.9136,1.9136,1.9136,1.9136,1.9386,1.9577,1.7135,1.67,1.67,1.6851,1.7086,1.7092,1.7237,1.7479,1.7479,1.7473,1.7436,1.7195,1.6936,1.664,1.6151,0.0,1.6235,1.6,1.6018,1.6235,1.6,1.5885,1.5885,1.5891,1.5885,1.5891,1.5885,1.5885,1.5897,1.5891,1.5885,1.5891,1.5928,1.5656,1.5053,1.4815,1.4659,1.4606,1.3851,1.3374,1.3315,1.2767,1.2441,1.2436,1.2441,1.2055,1.14,1.206,1.211,1.1396,1.1939,1.252,1.2989,0.0,0.0,0.0,0.0,0.0,0.0,0.0,0.0,0.0,0.0,0.0,0.0,0.0,0.0,0.0,1.4648,0.0,1.5529,1.5547,0.0,0.0,0.0,1.5577,1.5918,1.6221,1.6437,1.67,0.0,0.0,1.7092,1.7316,1.7575,1.7835,1.8094,1.836,1.8644,1.8867,1.9048,1.9054,1.913,1.9136,1.9136,1.9136,1.9136,1.9136,1.9136,1.9136,1.9136,1.9136,1.9136,1.9136,1.9136,1.9136,1.9136,1.9136,1.9136,1.9264,1.9264,1.9264,1.9328,2.0081,2.0456,1.7028,1.67,1.6912,1.7015,1.7092,1.7092,1.7237,1.7479,1.7485,1.737,1.7183,1.7117,1.6827,1.6368,1.6241,1.6115,1.5976,1.5922,1.5922,1.5976,1.5916,1.5885,1.5885,1.5885,1.5885,1.5885,1.5885,1.5885,1.5885,1.5885,1.5885,1.5891,1.5904,1.5845,1.5678,1.5416,1.5148,1.4928,1.4719,1.4175,1.332,1.3152,1.3098,1.3098,1.2659,1.2762,1.3408,1.3202,1.3202,1.3462,1.3632,1.3604,1.3371,1.3043,0.0,0.0,0.0,0.0,0.0,0.0,0.0,0.0,0.0,1.3078,1.2758,0.0,1.4088,0.0,1.4915,1.5525,1.5777,1.5802,0.0,0.0,1.5964,1.612,1.618,1.665,1.6861,1.6724,1.7105,1.7316,1.7117,1.7316,1.7581,1.7835,1.7992,1.8149,1.8601,1.8728,1.8855,1.9024,1.9118,1.9136,1.9118,1.9136,1.9124,1.9136,1.913,1.9136,1.9136,1.9136,1.9136,1.9136,1.9136,1.9136,1.9136,1.9136,1.9456,2.0075,2.0265,2.0265,2.0265,2.1026,2.1664,1.6999,1.6509,1.6667,1.6888,1.7144,1.7267,1.7338,1.7472,1.7368,1.7225,1.7074,1.6833,1.6501,1.6115,1.6109,1.603,1.5891,1.5885,1.5885,1.5885,1.5885,1.5885,1.5885,1.5885,1.5885,1.5885,1.5885,1.5885,1.5885,1.5885,1.5885,1.5885,1.5885,1.5885,1.5885,1.5737,1.5577,1.541,1.5143,1.4606,1.3743,1.3689,1.3635,1.3478,1.3147,1.3256,1.3797,1.3586,1.364,1.3954,1.4019,1.4006,1.3953,1.3529,1.3245,0.0,0.0,0.0,0.0,0.0,0.0,0.0,0.0,0.0,0.0,0.0,1.4633,1.4639,1.5161,1.5559,1.5704,1.5825,1.5885,1.5891,1.6229,1.6465,1.6465,1.6942,1.7207,1.7068,1.7304,1.743,1.7292,1.7908,1.8464,1.8734,1.8878,1.8883,1.8732,1.8686,1.874,1.8873,1.8801,1.8728,1.8728,1.9197,1.9537,1.9443,1.9985,2.024,1.9688,1.9694,1.9763,1.9763,1.9763,1.9954,2.0342,2.0462,2.0652,2.1089,2.165,2.172,2.1405,2.2097,2.2668,1.7117,1.6377,1.6377,1.6711,1.7216,1.7428,1.7521,1.7538,1.7316,1.7171,1.7074,1.6508,1.6157,1.5945,1.5945,1.5885,1.5885,1.5885,1.5885,1.5885,1.5885,1.5885,1.5885,1.5885,1.5885,1.5885,1.5885,1.5885,1.5885,1.5885,1.5885,1.5885,1.5885,1.5885,1.5885,1.5885,1.5885,1.5885,1.5357,1.4869,1.4331,1.4331,1.4169,1.3862,1.3748,1.3694,1.364,1.3748,1.384,1.3917,1.3986,1.4212,1.4567,1.3993,1.3794,0.0,1.3785,0.0,0.0,0.0,0.0,0.0,0.0,0.0,0.0,1.4955,1.5125,1.5155,1.5366,1.5511,1.5541,1.5753,1.5885,1.5903,1.6374,1.67,1.6718,1.7165,1.7485,1.7485,1.7602,1.7655,1.7772,1.8749,1.9595,1.9839,2.011,1.9937,1.9106,1.8805,1.8761,1.8904,1.8852,1.9075,1.8933,1.9735,2.0414,2.0284,2.1079,2.1693,2.0615,2.0621,2.0829,2.0773,2.0773,2.1082,2.1978,2.2041,2.2111,2.2292,2.2918,2.3168,2.2606,2.3106,2.3487,1.721,1.669,1.6908,1.7079,1.7195,1.7479,1.7687,1.7887,1.783,1.7528,1.7089,1.6541,1.6267,1.6217,1.5998,1.5885,1.5885,1.5885,1.5885,1.5885,1.5885,1.5885,1.5885,1.5885,1.5885,1.5885,1.5885,1.5885,1.5885,1.5885,1.5885,1.5885,1.5885,1.5885,1.5885,0.0,0.0,0.0,1.5785,1.5458,1.4874,1.4874,1.4826,1.4713,1.4078,0.0,1.5298,1.4761,1.4672,1.5112,1.5158,0.0,0.0,0.0,0.0,0.0,0.0,0.0,0.0,0.0,0.0,0.0,1.4776,1.4901,1.474,1.4955,1.5197,1.5403,1.5469,1.559,1.5795,1.5855,1.5885,1.591,1.6374,1.67,1.6718,1.7165,1.7485,1.7485,1.8181,1.8642,1.8706,1.9515,2.024,2.0604,2.0835,2.0693,2.0064,1.9293,1.913,1.9998,2.0674,2.0965,2.03,2.1005,2.1686,2.1714,2.1811,2.2013,2.1763,2.1727,2.1783,2.179,2.179,2.1853,2.2111,2.2104,2.2487,2.3175,2.3479,2.3549,2.3362,2.4108,2.4734,1.7618,1.6961,1.712,1.7396,0.0,1.7603,1.7851,1.8186,1.777,1.7298,1.6892,1.6587,1.653,1.6477,1.6371,1.6264,1.6111,1.6111,1.5998,1.5885,1.5885,1.5885,1.5885,1.5885,1.5885,1.5885,1.5885,1.5885,1.5885,1.5885,1.5885,1.5885,1.5885,1.5885,1.5885,1.5885,1.5885,1.5885,1.5885,1.5785,1.5464,1.5464,1.5416,1.5256,1.4832,0.0,0.0,0.0,0.0,0.0,0.0,0.0,0.0,1.4829,0.0,1.4523,1.448,1.4501,1.4507,1.4725,1.4957,1.5082,1.5369,1.5387,1.5152,1.5317,1.5547,1.5674,1.5692,1.5741,1.5873,1.5885,1.5885,1.591,1.6374,1.6868,1.7353,1.7849,1.835,1.8816,1.9281,1.957,1.957,2.0584,2.1242,2.1474,2.1843,2.2001,2.1579,2.0651,2.0229,2.0631,2.119,2.1512,2.1156,2.1913,2.2566,2.2519,2.3017,2.3259,2.2708,2.2754,2.2863,2.2856,2.2863,2.2988,2.3487,2.3542,2.3728,2.417,2.4355,2.4355,2.4355,2.4734,2.5103,1.8034,1.7292,1.7338,1.7633,1.8053,1.781,1.7932,1.8262,1.752,0.0,0.0,1.6783,1.6789,1.6789,1.673,1.6577,1.6377,1.633,1.6164,1.5998,1.5945,1.5885,1.5885,1.5885,1.5885,1.5885,1.5885,1.5885,1.5885,1.5885,1.5885,1.5885,1.5885,1.5885,1.5885,1.5885,1.5885,1.5885,1.5885,1.5885,1.5885,1.5885,1.5791,1.5589,1.5535,1.5369,1.5143,1.5369,1.5517,1.5518,1.5515,1.5481,1.5427,1.5228,1.5113,1.5113,1.5155,1.5179,1.5179,1.5221,1.5336,1.5553,1.5923,1.5954,1.5578,1.5923,1.6152,1.6099,1.6158,1.6205,1.6311,1.6205,1.6205,1.6318,1.6764,1.7407,1.8193,1.8748,1.9323,2.0141,2.0385,2.0551,2.0558,2.1559,2.2362,2.2483,2.2855,2.3308,2.3202,2.2309,2.1455,2.1096,2.1736,2.2064,2.1936,2.2754,2.3331,2.3346,2.4222,2.4608,2.3818,2.3671,2.3837,2.386,2.386,2.4177,2.4857,2.4919,2.5103,2.5103,2.5103,2.5103,2.5103,2.5103,2.5103,1.8143,1.7556,1.7816,1.7928,1.7994,1.7955,1.7869,1.7709,1.7616,1.7516,1.7477,1.7226,1.712,1.712,1.6842,1.6683,1.663,1.6424,1.6271,1.6217,1.5998,1.5885,1.5885,1.5885,1.5885,1.5885,1.5885,1.5885,1.5885,1.5885,1.5885,1.5885,1.5885,1.5885,1.5885,1.5885,1.5885,1.5885,1.5885,1.5885,1.5885,1.5885,1.5891,1.5838,1.5636,1.5583,1.5725,1.5583,1.5482,1.5519,1.5517,1.5396,1.5179,1.5194,1.5113,1.5125,1.5318,1.5445,1.5451,1.565,1.5795,1.5884,1.6546,1.6658,1.5949,1.6546,1.6988,1.7041,1.6988,1.7305,1.7891,1.7417,1.7259,1.7905,1.8304,1.8666,1.9071,1.9424,1.9806,2.0329,2.1002,2.1402,2.1524,2.226,2.2936,2.3276,2.3544,2.4007,2.4141,2.3757,2.2813,2.2105,2.3306,2.4063,2.3533,2.4109,2.4593,2.4785,2.4885,2.5026,2.4693,2.4671,2.4803,2.4857,2.4795,2.4857,2.5103,2.5103,2.5103,2.5103,2.5103,2.5103,2.5103,2.5103,2.5103,1.837,1.7896,1.8163,1.8283,1.8277,1.8062,1.7869,1.7595,1.7589,1.7589,1.7582,1.7477,1.743,1.743,1.7265,1.7107,1.6955,1.669,1.643,1.6271,1.5998,1.5885,1.5885,1.5885,1.5885,1.5885,1.5885,1.5885,1.5885,1.5885,1.5885,1.5885,1.5885,1.5885,1.5885,1.5885,1.5885,1.5885,1.5885,1.5885,1.5885,1.6358,1.6624,1.6624,1.6895,1.6895,1.663,1.6471,1.6415,1.6447,1.6434,1.6586,1.6878,1.6872,1.6872,1.6878,1.6573,1.6598,1.7069,1.7187,1.7265,1.7259,1.7628,1.7681,1.7265,1.7628,1.7838,1.7838,1.7838,1.7996,1.837,1.8055,1.8003,1.837,1.8642,1.9088,1.9711,2.0192,2.0757,2.1361,2.1979,2.2369,2.2369,2.2724,2.3062,2.3276,2.3689,2.4297,2.4762,2.4616,2.417,2.3513,2.4315,2.4833,2.4487,2.4734,2.5042,2.5103,2.5103,2.5103,2.5103,2.5103,2.5103,2.5103,2.5103,2.5103,2.5103,2.5103,2.5103,2.5103,2.5103,2.5103,2.5103,2.5103,2.5103,1.8568,1.8122,1.8464,1.8551,1.8464,1.8122,1.7869,1.7595,1.7589,1.7589,1.7589,1.7589,1.7589,1.7589,1.7589,1.7483,1.7279,1.6948,1.6683,1.6483,1.6158,1.5998,1.5945,1.5945,1.5998,1.6152,1.6205,1.6305,1.6418,1.6471,1.6471,1.6418,1.6311,1.6205,1.6199,1.6205,1.6205,1.6199,1.6205,1.6199,1.6199,1.6882,1.7252,1.7523,1.8055,1.8108,1.7516,1.7463,1.747,1.7463,1.7463,1.7733,1.8377,1.8422,1.8422,1.8318,1.7838,1.7726,1.8318,1.8422,1.8422,1.8422,1.8579,1.8684,1.8684,1.8893,1.8885,1.8736,1.8684,1.8781,1.899,1.8788,1.8736,1.8914,1.9153,1.9652,2.037,2.0968,2.1584,2.2379,2.2799,2.3014,2.3127,2.307,2.3101,2.334,2.3837,2.4487,2.4997,2.5226,2.516,2.491,2.4936,2.5026,2.5103,2.5042,2.5103,2.5103,2.5103,2.5103,2.5103,2.5103,2.5103,2.5103,2.5103,2.5103,2.5103,2.5103,2.5103,2.5103,2.5103,2.5071,2.4968,2.4865,2.4952,1.8738,1.8517,1.8764,1.8731,1.8464,1.8115,1.7862,1.7609,1.7589,1.7589,1.7589,1.7589,1.7589,1.7589,1.7589,1.7582,1.7536,1.7272,1.712,1.7014,1.6537,1.6264,1.6271,1.6057,1.6305,1.6988,1.7094,1.7463,1.8003,1.8055,1.816,1.8101,1.747,1.7094,1.71,1.7094,1.7094,1.7094,1.7094,1.7094,1.7094,1.7147,1.7575,1.8258,1.8363,1.837,1.8318,1.8265,1.8265,1.8258,1.8318,1.8311,1.8422,1.8422,1.8422,1.8422,1.837,1.8318,1.8422,1.8422,1.8475,1.8475,1.9153,1.9569,1.962,2.0197,2.0351,1.9776,1.9569,1.9835,2.0506,1.999,1.9828,2.0351,2.0545,2.0877,2.1139,2.1668,2.207,2.2458,2.2808,2.3183,2.3624,2.3408,2.3325,2.3901,2.4404,2.4903,2.5189,2.5656,2.5831,2.5285,2.5165,2.5165,2.5111,2.5103,2.5103,2.5103,2.5103,2.5103,2.5103,2.5103,2.5103,2.5103,2.5103,2.5103,2.5103,2.5103,2.5095,2.5024,2.5008,2.4976,2.469,2.4488,2.4512,1.9011,1.8778,1.9065,1.8911,1.8457,1.7983,1.7702,1.7589,1.7589,1.7589,1.7589,1.7589,1.7589,1.7589,1.7589,1.7589,1.7589,1.7331,1.7232,1.712,1.659,1.6583,1.7001,1.71,1.7417,1.7937,1.8244,1.8401,1.837,1.8422,1.8422,1.837,1.8055,1.7898,1.7891,1.7891,1.7891,1.7891,1.7891,1.8153,1.8624,1.8677,1.884,1.9153,1.962,1.9628,1.9205,1.9153,1.916,1.9153,1.9153,1.9361,1.9879,1.969,1.9668,1.9849,1.9879,1.9672,1.9205,1.962,1.9879,1.9879,2.0189,2.0403,2.0403,2.0712,2.0771,2.0506,2.0403,2.0557,2.0822,2.0617,2.0557,2.0865,2.0925,2.0988,2.1115,2.1449,2.1897,2.2627,2.3031,2.3579,2.4125,2.3904,2.3886,2.4463,2.4885,2.5156,2.5623,2.6266,2.651,2.6319,2.6205,2.5847,2.5349,2.5103,2.5103,2.5103,2.5103,2.5103,2.5165,2.5103,2.5103,2.5103,2.5111,2.5111,2.5103,2.5087,2.5063,2.4913,2.4579,2.4488,2.4352,2.4217,2.4289,1.9172,1.9058,1.9118,1.8838,1.833,1.7809,1.7589,1.7589,1.7589,1.7589,1.7589,1.7589,1.7589,1.7589,1.7589,1.7589,1.7589,1.7384,1.7483,1.7641,1.7219,1.747,1.8349,1.8447,1.8767,1.919,1.9443,1.9391,1.9094,1.884,1.884,1.9049,1.8893,1.8788,1.8788,1.8736,1.8736,1.8743,1.8736,1.9153,1.9887,2.0042,2.0042,2.0094,2.0609,2.0609,2.0042,2.0042,2.0042,2.0042,1.9958,2.0207,2.0798,2.0504,2.0408,2.0742,2.0869,2.0668,2.0042,2.0557,2.0925,2.0925,2.0925,2.0925,2.0925,2.0925,2.0925,2.0865,2.0925,2.0873,2.0925,2.0925,2.0925,2.0925,2.1019,2.1121,2.1154,2.1611,2.2339,2.302,2.3557,2.404,2.4608,2.459,2.4659,2.4968,2.5335,2.5604,2.6139,2.6789,2.7237,2.7056,2.6995,2.6631,2.5778,2.5717,2.5594,2.5594,2.5717,2.5717,2.5594,2.5533,2.5349,2.5533,2.5288,2.5111,2.5103,2.5087,2.4984,2.4642,2.4384,2.4161,2.4161,2.4114,2.4114,1.9105,1.9303,1.8758,1.837,1.7982,1.7722,1.7589,1.7589,1.7589,1.7589,1.7589,1.7589,1.7589,1.7589,1.7589,1.7589,1.7589,1.7635,1.8146,1.8923,1.8767,1.9272,2.0231,2.0084,2.0341,2.0928,2.0723,2.0593,2.0652,1.999,2.0042,2.066,1.9983,1.9628,1.962,1.9628,1.9628,1.9628,1.9628,1.999,2.0712,2.0814,2.0814,2.0814,2.0865,2.0873,2.0814,2.0822,2.0814,2.0822,2.0506,2.0525,2.0813,2.0265,2.0116,2.0392,2.0726,2.0858,2.0814,2.0873,2.0925,2.0925,2.0925,2.0925,2.0925,2.0925,2.0925,2.0925,2.0925,2.0925,2.0968,2.1027,2.0925,2.0925,2.1377,2.1632,2.1683,2.2616,2.3474,2.3759,2.4327,2.4794,2.488,2.5284,2.5374,2.5539,2.6162,2.667,2.6592,2.7303,2.7624,2.7358,2.7177,2.6995,2.6935,2.6631,2.6692,2.6631,2.651,2.6753,2.6692,2.6501,2.6258,2.5953,2.5656,2.541,2.5165,2.5032,2.4897,2.4627,2.4352,2.4153,2.4114,2.4106,2.4058,1.9158,1.9032,1.845,1.8089,1.7962,1.7709,1.7589,1.7589,1.7589,1.7589,1.7589,1.7589,1.7589,1.7589,1.7589,1.7589,1.7687,1.8304,1.8819,1.922,1.9627,2.0341,2.1159,2.1312,2.1582,2.2005,2.2207,2.1971,2.1369,2.0755,2.0617,2.0822,2.0609,2.0454,2.0454,2.0454,2.0454,2.0454,2.0462,2.0609,2.0873,2.0925,2.0925,2.0925,2.0925,2.0925,2.0925,2.0925,2.0925,2.0925,2.0583,2.0448,2.0519,2.013,1.9908,2.0116,2.0392,2.0686,2.0885,2.0925,2.0925,2.0925,2.0925,2.0925,2.0925,2.0925,2.0925,2.0925,2.0925,2.1027,2.1326,2.1428,2.1275,2.107,2.1674,2.208,2.2003,2.268,2.3539,2.4246,2.52,2.5944,2.5852,2.5798,2.5728,2.5874,2.6496,2.6858,2.7179,2.7923,2.848,2.8319,2.8259,2.8259,2.8259,2.7409,2.6995,2.6995,2.6943,2.7004,2.6935,2.6935,2.6692,2.6623,2.6327,2.6014,2.5884,2.5254,2.5065,2.4807,2.4531,2.4453,2.4106,2.4231,2.4021,1.8991,1.8604,1.8155,1.7935,1.7876,1.7675,1.7589,1.7589,1.7589,1.7589,1.7589,1.7589,1.7589,1.7687,1.7996,1.8153,1.8206,1.8871,1.9591,2.0254,2.081,2.1574,2.24,2.271,2.287,2.2979,2.2979,2.2577,2.1725,2.1173,2.0925,2.0925,2.0925,2.0925,2.0925,2.0925,2.0925,2.0925,2.0925,2.0925,2.0925,2.0925,2.0925,2.0925,2.0925,2.0925,2.0925,2.0925,2.0861,2.0726,2.0416,2.0122,1.99,1.9884,1.9909,1.9949,2.0202,2.0543,2.0861,2.0925,2.0925,2.0925,2.0925,2.0925,2.0925,2.0925,2.0925,2.0925,2.0925,2.1121,2.1573,2.1818,2.1776,2.1573,2.2224,2.2636,2.2359,2.3186,2.4236,2.5156,2.5982,2.65,2.6582,2.619,2.6152,2.6348,2.6715,2.7065,2.7373,2.8151,2.8792,2.881,2.8842,2.8838,2.8797,2.8199,2.79,2.784,2.7719,2.7599,2.7427,2.7427,2.7297,2.7297,2.7116,2.6805,2.6323,2.5685,2.5381,2.518,2.5245,2.5283,2.4923,2.4491,2.4359,1.8584,1.8062,1.7989,1.7862,1.7642,1.7595,1.7589,1.7589,1.7589,1.7589,1.7589,1.7635,1.7793,1.7891,1.8767,1.9228,1.9376,1.9531,2.0518,2.2064,2.2417,2.3029,2.3945,2.3954,2.3994,2.3945,2.3038,2.2274,2.1776,2.1275,2.0976,2.0925,2.0925,2.0925,2.0925,2.0925,2.0925,2.0925,2.0925,2.0925,2.0925,2.0925,2.0925,2.0925,2.0925,2.0925,2.0925,2.0925,2.0774,2.0432,2.0091,1.955,1.9145,1.9447,1.9885,1.9941,2.0235,2.0527,2.0861,2.0925,2.0925,2.0925,2.0925,2.0925,2.0925,2.0925,2.0925,2.0925,2.0917,2.1121,2.1725,2.2173,2.2375,2.2518,2.292,2.3288,2.3462,2.4491,2.5665,2.6307,2.6573,2.6582,2.6591,2.6527,2.6518,2.6601,2.6884,2.7194,2.7386,2.8001,2.837,2.8535,2.8764,2.8975,2.8984,2.8984,2.8925,2.8865,2.8746,2.8627,2.8379,2.8259,2.808,2.796,2.7478,2.7228,2.709,2.6516,2.6277,2.6133,2.6202,2.6058,2.5753,2.5365,2.503,1.8155,1.7969,1.7816,1.7675,1.7589,1.7589,1.7589,1.7641,1.7589,1.7589,1.774,1.8356,1.8715,1.8968,1.9849,2.0783,2.1446,2.1497,2.1861,2.2577,2.3279,2.3795,2.4102,2.4211,2.4211,2.4053,2.3438,2.2778,2.2224,2.1717,2.1275,2.0976,2.0925,2.0925,2.0925,2.0925,2.0925,2.0925,2.0925,2.0925,2.0925,2.0925,2.0925,2.0925,2.0925,2.0925,2.0925,2.0925,2.075,2.04,2.0059,1.955,1.9034,1.9026,1.9376,1.9853,2.0004,2.0313,2.0821,2.0925,2.0925,2.0925,2.0925,2.0925,2.0925,2.0925,2.0925,2.0925,2.0925,2.1224,2.208,2.2375,2.2526,2.2526,2.3338,2.3755,2.3622,2.457,2.5674,2.6399,2.6591,2.6591,2.6591,2.6591,2.6591,2.6619,2.6921,2.7205,2.762,2.7957,2.8517,2.8746,2.892,2.8975,2.8984,2.8984,2.8984,2.8984,2.8984,2.8984,2.8925,2.8806,2.8627,2.8439,2.796,2.7711,2.7564,2.7383,2.7201,2.6953,2.6884,2.6687,2.6559,2.6185,2.578,1.8921,1.8429,1.8282,1.7943,1.7687,1.7996,1.8206,1.8251,1.867,1.8819,1.9027,1.9546,1.9849,2.0055,2.0979,2.1861,2.2526,2.2887,2.3138,2.3188,2.3795,2.4202,2.4211,2.4211,2.4211,2.4102,2.3578,2.3029,2.2476,2.1979,2.142,2.0968,2.0925,2.0925,2.0925,2.0925,2.0925,2.0925,2.0925,2.0925,2.0925,2.0925,2.0925,2.0925,2.0925,2.0925,2.0925,2.0925,2.0758,2.0384,1.9996,1.9415,1.8899,1.897,1.9288,1.9789,2.0027,2.0329,2.0837,2.0925,2.0925,2.0925,2.0925,2.0925,2.0925,2.0925,2.0925,2.0925,2.113,2.1573,2.2325,2.2728,2.2878,2.3138,2.3746,2.414,2.4152,2.4836,2.5693,2.6334,2.6591,2.6591,2.6591,2.6591,2.6591,2.6628,2.6793,2.6995,2.737,2.7783,2.8223,2.8599,2.8801,2.8865,2.8966,2.8984,2.8984,2.8984,2.8984,2.8984,2.8925,2.8925,2.8865,2.8806,2.8498,2.8439,2.8301,2.8122,2.794,2.7771,2.7573,2.7493,2.7327,2.6731,2.6235,2.0494,1.9346,1.928,1.8767,1.8094,1.8923,1.928,1.9435,2.0261,2.068,2.0731,2.0885,2.0979,2.1191,2.2114,2.2677,2.2778,2.3596,2.4003,2.4053,2.4211,2.4211,2.4211,2.4211,2.4211,2.4102,2.3637,2.3129,2.2627,2.2072,2.1479,2.1078,2.0968,2.0925,2.0925,2.0925,2.0925,2.0925,2.0925,2.0925,2.0925,2.0925,2.0925,2.0925,2.0925,2.0925,2.0925,2.0917,2.0758,2.0369,1.9773,1.9264,1.9002,1.9177,1.9471,1.9869,2.0227,2.0496,2.0813,2.0925,2.0925,2.0925,2.0925,2.0925,2.0925,2.0925,2.0925,2.0917,2.1275,2.1827,2.2375,2.2828,2.3379,2.4053,2.4225,2.4556,2.5216,2.5381,2.5821,2.638,2.6591,2.6591,2.6591,2.6591,2.6591,2.6591,2.6628,2.6701,2.694,2.7416,2.7776,2.815,2.8654,2.8856,2.8984,2.8984,2.8984,2.8984,2.8984,2.8984,2.8984,2.8984,2.8984,2.8984,2.8925,2.8925,2.8865,2.8618,2.8618,2.8498,2.8417,2.8323,2.7944,2.7352,2.6885,2.081,2.0475,2.0467,2.0313,2.0063,2.0364,2.0475,2.0467,2.0783,2.1113,2.1089,2.1759,2.2064,2.2215,2.3238,2.3746,2.3795,2.4053,2.4211,2.4211,2.4211,2.4211,2.4211,2.4211,2.4211,2.4152,2.3994,2.3637,2.3079,2.2476,2.1979,2.1471,2.107,2.0925,2.0925,2.0925,2.0925,2.0925,2.0925,2.0925,2.0925,2.0925,2.0925,2.0925,2.0925,2.0925,2.0925,2.0925,2.0758,2.0377,1.9741,1.9344,1.9241,1.9137,1.9336,1.9861,2.0044,2.0305,2.079,2.0925,2.0925,2.0925,2.0925,2.0925,2.0925,2.0925,2.0925,2.0925,2.1078,2.153,2.2274,2.2677,2.3179,2.404,2.4468,2.4803,2.5323,2.5699,2.6076,2.6472,2.6582,2.6591,2.6591,2.6591,2.6591,2.6591,2.66,2.6664,2.6912,2.7343,2.7849,2.8232,2.8663,2.8856,2.8984,2.8984,2.8984,2.8984,2.8984,2.8984,2.8984,2.8984,2.8984,2.8984,2.8984,2.8984,2.8984,2.8865,2.8984,2.8984,2.8879,2.8651,2.8445,2.7951,2.7725,2.2013,2.1548,2.1548,2.1434,2.1246,2.1615,2.1821,2.1923,2.235,2.2452,2.2443,2.2929,2.3188,2.3288,2.3895,2.4211,2.4211,2.4211,2.4211,2.4211,2.4211,2.4211,2.4211,2.4211,2.4211,2.4211,2.4211,2.3696,2.3029,2.2619,2.2131,2.142,2.107,2.0925,2.0925,2.0925,2.0925,2.0925,2.0925,2.0925,2.0925,2.0925,2.0925,2.0925,2.0925,2.0925,2.0925,2.0925,2.0702,2.0249,1.9924,1.9741,1.9646,1.9542,1.9669,2.0091,2.0218,2.0527,2.0805,2.0925,2.0925,2.0925,2.0925,2.0925,2.0925,2.0925,2.0925,2.0925,2.1275,2.1878,2.2384,2.2887,2.3488,2.4117,2.4666,2.5106,2.5414,2.5764,2.6123,2.6444,2.6591,2.6591,2.6591,2.6591,2.6591,2.6591,2.6591,2.6692,2.6885,2.7473,2.7895,2.8177,2.8627,2.8902,2.8984,2.8984,2.8984,2.8984,2.8984,2.8984,2.8984,2.8984,2.8984,2.8984,2.8984,2.8984,2.8984,2.8984,2.8984,2.8984,2.8984,2.8847,2.8563,2.8315,2.8104,2.3632,2.2677,2.2721,2.2384,2.2034,2.2842,2.3203,2.3408,2.4053,2.4304,2.4108,2.4152,2.4003,2.4211,2.4152,2.4211,2.4211,2.4211,2.4211,2.4211,2.4211,2.4211,2.4211,2.4211,2.4211,2.4211,2.4211,2.3696,2.3029,2.2677,2.2021,2.142,2.107,2.0925,2.0925,2.0925,2.0925,2.0925,2.0925,2.0925,2.0925,2.0925,2.0925,2.0925,2.0925,2.0925,2.0925,2.0893,2.0655,2.0076,2.0299,2.0219,1.9971,2.021,2.0305,2.0369,2.0567,2.0766,2.0909,2.0925,2.0925,2.0925,2.0925,2.0925,2.0925,2.0925,2.0925,2.0925,2.1776,2.2123,2.2577,2.3447,2.4003,2.4312,2.4909,2.5298,2.5497,2.581,2.6232,2.6518,2.6582,2.6591,2.6591,2.6591,2.6591,2.6591,2.6591,2.6637,2.6894,2.7352,2.7702,2.7904,2.837,2.8957,2.8984,2.8984,2.8984,2.8984,2.8984,2.8984,2.8984,2.8984,2.8984,2.8984,2.8984,2.8984,2.8984,2.8984,2.8984,2.8984,2.8984,2.8764,2.8498,2.8297,2.8095,2.4345,2.3872,2.4198,2.4038,2.3743,2.4206,2.4238,2.4017,2.4208,2.4339,2.422,2.4211,2.4211,2.4211,2.4211,2.4211,2.4211,2.4211,2.4211,2.4211,2.4211,2.4211,2.4211,2.4211,2.4211,2.4211,2.4211,2.4053,2.3646,2.2878,2.2375,2.208,2.1224,2.0925,2.0925,2.0925,2.0925,2.0925,2.0925,2.0925,2.0925,2.0925,2.0925,2.0925,2.0925,2.0925,2.0925,2.0925,2.0845,2.0694,2.0504,2.0377,2.0281,2.013,2.0194,2.0392,2.0488,2.0655,2.0861,2.0925,2.0925,2.0925,2.0925,2.0925,2.0925,2.0925,2.0925,2.0917,2.1113,2.1725,2.2535,2.3538,2.4053,2.4367,2.4882,2.5344,2.5482,2.6004,2.6489,2.6545,2.6591,2.6591,2.6591,2.6591,2.6591,2.6591,2.6591,2.6591,2.6903,2.7297,2.762,2.7822,2.8388,2.8957,2.8984,2.9044,2.9163,2.9272,2.9331,2.9272,2.9272,2.9153,2.9213,2.9153,2.8984,2.8984,2.8984,2.8984,2.9044,2.8984,2.9085,2.9136,2.8981,2.8623,2.8482,2.4514,2.4473,2.4744,2.4918,2.5047,2.5093,2.4931,2.4762,2.4569,2.4385,2.4229,2.4211,2.4211,2.4211,2.4211,2.4211,2.4211,2.4211,2.4211,2.4211,2.4211,2.4211,2.4211,2.4211,2.4211,2.4211,2.4211,2.4102,2.3587,2.2987,2.2384,2.208,2.1326,2.0925,2.0925,2.0925,2.0925,2.0925,2.0925,2.0925,2.0925,2.0925,2.0925,2.0925,2.0925,2.0925,2.0925,2.0925,2.0925,2.0869,2.0734,2.0639,2.0631,2.0472,2.048,2.0591,2.0647,2.0702,2.0885,2.0925,2.0925,2.0925,2.0925,2.0925,2.0925,2.0925,2.0925,2.0968,2.1216,2.1725,2.2778,2.3596,2.4102,2.4303,2.4762,2.5185,2.5445,2.6087,2.6591,2.6591,2.6591,2.6591,2.6591,2.6591,2.6591,2.6591,2.6591,2.66,2.6793,2.7187,2.7629,2.7987,2.8544,2.8938,2.8975,2.9103,2.9331,2.9568,2.9922,2.9863,2.9863,2.9686,2.9558,2.9331,2.9044,2.8984,2.8984,2.9044,2.9331,2.9627,2.9816,2.9819,2.9726,2.9613,2.9536,2.4652,2.4927,2.4931,2.5289,2.5745,2.5515,2.5295,2.513,2.4891,2.4468,2.4266,2.4211,2.4211,2.4211,2.4211,2.4211,2.4211,2.4211,2.4211,2.4211,2.4211,2.4211,2.4211,2.4211,2.4211,2.4211,2.4211,2.3945,2.3538,2.2937,2.2577,2.1979,2.1326,2.1173,2.107,2.0925,2.0925,2.0925,2.0925,2.0925,2.0925,2.0925,2.0925,2.0925,2.0925,2.0925,2.0925,2.0925,2.0925,2.0925,2.0925,2.0925,2.0925,2.0925,2.0925,2.0858,2.0877,2.0885,2.0901,2.0925,2.0925,2.0925,2.0925,2.0925,2.0925,2.0925,2.0925,2.1121,2.142,2.2123,2.3079,2.3795,2.4102,2.4284,2.4578,2.4931,2.5442,2.605,2.6389,2.6591,2.6591,2.6591,2.6591,2.6591,2.6591,2.6591,2.6591,2.6646,2.6839,2.7141,2.7629,2.8033,2.8544,2.8911,2.8975,2.9568,2.9745,3.003,3.0382,3.0382,3.0265,2.9745,2.945,2.9272,2.9103,2.9213,2.9509,2.9853,3.0197,3.0499,3.0645,3.0694,3.0663,3.0659,3.0508,2.5561,2.535,2.5681,2.5534,2.512,2.5252,2.5056,2.4468,2.4395,2.4284,2.422,2.4211,2.4211,2.4211,2.4211,2.4211,2.4211,2.4211,2.4211,2.4211,2.4211,2.4211,2.4211,2.4211,2.4211,2.4211,2.4211,2.4102,2.3895,2.3488,2.2979,2.2787,2.203,2.1573,2.1369,2.1173,2.0925,2.0925,2.0925,2.0925,2.0925,2.0925,2.0925,2.0925,2.0925,2.0925,2.0925,2.0925,2.0925,2.0925,2.0925,2.0925,2.0925,2.0925,2.0925,2.0925,2.0925,2.0925,2.0925,2.0925,2.0925,2.0925,2.0925,2.0925,2.0925,2.0925,2.0917,2.1224,2.1725,2.2426,2.2619,2.3587,2.4102,2.4303,2.4542,2.4964,2.5387,2.581,2.6287,2.6518,2.6564,2.6591,2.6591,2.6591,2.6591,2.6591,2.6591,2.6655,2.6811,2.7215,2.7748,2.8143,2.8489,2.8773,2.8984,2.9804,3.0382,3.0606,3.084,3.084,3.0499,2.9627,2.9222,2.9677,2.9853,2.9971,3.0323,3.0665,3.1063,3.1469,3.1516,3.1632,3.1731,3.1751,3.1238,2.5534,2.5718,2.5718,2.5617,2.546,2.5353,2.5032,2.4542,2.4303,2.4211,2.4211,2.4211,2.4211,2.4211,2.4211,2.4211,2.4211,2.4211,2.4211,2.4211,2.4211,2.4211,2.4211,2.4211,2.4211,2.4211,2.4211,2.4211,2.4152,2.3578,2.3329,2.3129,2.2476,2.1979,2.1725,2.1471,2.1121,2.1019,2.0925,2.0925,2.0925,2.0925,2.0925,2.0925,2.0925,2.0925,2.0925,2.0925,2.0925,2.0925,2.0925,2.0925,2.0925,2.0925,2.0925,2.0925,2.0925,2.0925,2.0925,2.0925,2.0925,2.0925,2.0925,2.0925,2.0925,2.0917,2.1019,2.1428,2.1928,2.2627,2.2929,2.3696,2.4102,2.4229,2.4404,2.479,2.5216,2.5571,2.6021,2.6444,2.6554,2.6591,2.6591,2.6591,2.6591,2.6591,2.6591,2.6701,2.683,2.7343,2.7941,2.8531,2.896,2.9489,2.9795,3.0548,3.1189,3.1353,3.1469,3.1469,3.1411,3.083,3.0655,3.0762,3.0888,3.084,3.1063,3.1401,3.192,3.2379,3.2436,3.254,3.284,3.2792,3.2277,2.5614,2.6104,2.5708,2.5672,2.581,2.546,2.5014,2.4689,2.4349,2.4211,2.4211,2.4211,2.4211,2.4211,2.4211,2.4211,2.4211,2.4211,2.4211,2.4211,2.4211,2.4211,2.4211,2.4211,2.4211,2.4211,2.4211,2.4211,2.4152,2.3786,2.3529,2.3379,2.2979,2.2375,2.1971,2.1725,2.1369,2.107,2.0925,2.0925,2.0925,2.0925,2.0925,2.0925,2.0925,2.0925,2.0925,2.0925,2.0925,2.0925,2.0925,2.0925,2.0925,2.0925,2.0925,2.0925,2.0925,2.0925,2.0925,2.0925,2.0925,2.0925,2.0925,2.0925,2.0925,2.0976,2.1121,2.1623,2.2182,2.2728,2.3179,2.3845,2.4152,2.4211,2.4257,2.4477,2.513,2.5518,2.5858,2.6224,2.6472,2.6636,2.6636,2.6591,2.6591,2.6692,2.671,2.6894,2.7077,2.7618,2.8228,2.8976,2.9608,3.0208,3.0772,3.1459,3.2035,3.2379,3.2436,3.2446,3.2493,3.2436,3.2197,3.1737,3.169,3.1642,3.192,3.2264,3.2903,3.33,3.3356,3.3459,3.3618,3.362,3.3268,2.6624,2.6481,2.6113,2.5773,2.547,2.5041,2.467,2.4312,2.4238,2.4211,2.4211,2.4211,2.4211,2.4211,2.4211,2.4211,2.4211,2.4211,2.4211,2.4211,2.4211,2.4211,2.4211,2.4211,2.4211,2.4211,2.4211,2.4211,2.4152,2.4053,2.4053,2.3895,2.3488,2.2929,2.2426,2.2021,2.142,2.1019,2.0925,2.0925,2.0925,2.0925,2.0925,2.0925,2.0925,2.0925,2.0925,2.0925,2.0925,2.0925,2.0925,2.0925,2.0925,2.0925,2.0925,2.0925,2.0925,2.0925,2.0925,2.0925,2.0925,2.0925,2.0925,2.0925,2.0925,2.0925,2.1121,2.1683,2.2182,2.2728,2.3279,2.3845,2.4102,2.4238,2.4284,2.467,2.517,2.5564,2.5894,2.6395,2.6718,2.6745,2.6745,2.6691,2.66,2.6719,2.6857,2.7031,2.7492,2.8092,2.8952,2.9872,3.0538,3.1197,3.1609,3.2297,3.2773,3.3247,3.3205,3.3226,3.33,3.3233,3.2892,3.255,3.2493,3.2618,3.2846,3.3356,3.3998,3.411,3.3942,3.411,3.4345,3.4235,3.4002,2.7161,2.6536,2.5947,2.5589,2.5387,2.4941,2.4546,2.4266,2.4211,2.4211,2.4211,2.4211,2.4211,2.4211,2.4211,2.4211,2.4211,2.4211,2.4211,2.4211,2.4211,2.4211,2.4211,2.4211,2.4211,2.4211,2.4211,2.4211,2.4211,2.4211,2.4211,2.4152,2.3935,2.3538,2.2929,2.2375,2.1869,2.142,2.1121,2.0925,2.0925,2.0925,2.0925,2.0925,2.0925,2.0925,2.0925,2.0925,2.0925,2.0925,2.0925,2.0925,2.0925,2.0925,2.0925,2.0925,2.0925,2.0925,2.0925,2.0925,2.0925,2.0925,2.0925,2.0925,2.0925,2.0925,2.1121,2.1674,2.2173,2.2728,2.3279,2.3845,2.4102,2.4248,2.4404,2.4854,2.5262,2.5592,2.6002,2.6504,2.6954,2.7107,2.7161,2.7062,2.6909,2.681,2.6976,2.7188,2.7957,2.8963,2.993,3.1003,3.1649,3.2264,3.2587,3.3022,3.3458,3.3772,3.3589,3.3675,3.3877,3.3762,3.347,3.3537,3.366,3.3773,3.3885,3.3998,3.4289,3.4412,3.4468,3.4468,3.4468,3.4457,3.428,2.7485,2.6717,2.5869,2.5466,2.5368,2.484,2.4496,2.4319,2.4251,2.426,2.4251,2.4251,2.4211,2.4211,2.4211,2.4211,2.4211,2.4211,2.4211,2.4211,2.4211,2.4211,2.4211,2.4211,2.4211,2.4211,2.4211,2.4211,2.4211,2.4211,2.4211,2.4211,2.4152,2.3795,2.3329,2.2677,2.2123,2.1369,2.1078,2.0925,2.0925,2.0925,2.0925,2.0925,2.0925,2.0925,2.0925,2.0925,2.0925,2.0925,2.0925,2.0925,2.0925,2.0925,2.0925,2.0925,2.0925,2.0925,2.0925,2.0925,2.0925,2.0925,2.0925,2.0925,2.0925,2.0925,2.1275,2.1878,2.2224,2.2828,2.3438,2.3994,2.4203,2.444,2.4583,2.5014,2.546,2.5844,2.6352,2.699,2.7476,2.7833,2.778,2.7584,2.7333,2.7036,2.7123,2.7382,2.8512,2.9805,3.0836,3.1977,3.2322,3.283,3.3218,3.36,3.4042,3.4152,3.3967,3.3988,3.4148,3.4278,3.4177,3.4356,3.4468,3.4412,3.4177,3.4345,3.4468,3.4468,3.4468,3.4468,3.4468,3.4468,3.4457,2.7701,2.7248,2.6227,2.5631,2.5359,2.4569,2.4328,2.444,2.4301,2.4341,2.443,2.4301,2.4211,2.4211,2.4211,2.4211,2.4211,2.4211,2.4211,2.4211,2.4211,2.4211,2.4211,2.4211,2.4211,2.4211,2.4211,2.4211,2.4211,2.4211,2.4211,2.4211,2.4211,2.3845,2.3329,2.2828,2.1971,2.1267,2.0925,2.0925,2.0925,2.0925,2.0925,2.0925,2.0925,2.0925,2.0925,2.0925,2.0925,2.0925,2.0925,2.0925,2.0925,2.0925,2.0925,2.0925,2.0925,2.0925,2.0925,2.0925,2.0925,2.0925,2.0925,2.0925,2.0925,2.0925,2.1377,2.2131,2.2325,2.2979,2.3637,2.4189,2.444,2.4601,2.4867,2.5332,2.5733,2.6141,2.6705,2.746,2.8048,2.8572,2.8827,2.8635,2.7897,2.7549,2.7891,2.823,2.9713,3.0978,3.1883,3.2721,3.2949,3.3311,3.3636,3.3934,3.4021,3.4054,3.3956,3.4141,3.438,3.4502,3.4468,3.4468,3.4468,3.4468,3.4468,3.4468,3.4468,3.4468,3.4468,3.4468,3.4468,3.4468,3.4468,2.7806,2.7199,2.6574,2.6036,2.5567,2.4742,2.443,2.448,2.444,2.444,2.448,2.4301,2.4211,2.4211,2.4211,2.4211,2.4211,2.4211,2.4211,2.4211,2.4211,2.4211,2.4211,2.4211,2.4211,2.4211,2.4211,2.4211,2.4211,2.4211,2.4211,2.4211,2.4211,2.4102,2.3637,2.2929,2.1979,2.1224,2.0917,2.0925,2.0925,2.0925,2.0925,2.0925,2.0925,2.0925,2.0925,2.0925,2.0925,2.0925,2.0925,2.0925,2.0925,2.0925,2.0925,2.0925,2.0925,2.0925,2.0925,2.0925,2.0925,2.0925,2.0925,2.0925,2.0925,2.0925,2.1224,2.1827,2.235,2.2981,2.3497,2.4172,2.4707,2.4858,2.5221,2.5678,2.6185,2.663,2.726,2.816,2.8953,2.9701,2.9796,2.9848,2.889,2.8106,2.8548,2.9266,3.0717,3.1962,3.2819,3.3424,3.3593,3.3687,3.3976,3.3988,3.3912,3.3912,3.3934,3.4174,3.4414,3.4446,3.4468,3.4468,3.4468,3.4468,3.4468,3.4468,3.4468,3.4468,3.4468,3.4468,3.4468,3.4468,3.4468,2.7814,2.7317,2.6743,2.6155,2.5549,2.4877,2.4627,2.4637,2.4627,2.4587,2.448,2.4291,2.4211,2.4211,2.4211,2.4211,2.4211,2.4211,2.4211,2.4211,2.4211,2.4211,2.4211,2.4211,2.4211,2.4211,2.4211,2.4211,2.4211,2.4211,2.4211,2.4211,2.4211,2.4152,2.3895,2.3088,2.203,2.1318,2.0968,2.0925,2.0925,2.0925,2.0925,2.0925,2.0925,2.0925,2.0925,2.0925,2.0925,2.0925,2.0925,2.0925,2.0925,2.0925,2.0925,2.0925,2.0925,2.0925,2.0925,2.0925,2.0925,2.0925,2.0925,2.0925,2.0925,2.0925,2.1224,2.1987,2.2452,2.3044,2.3776,2.4735,2.541,2.5722,2.6102,2.6511,2.7011,2.7506,2.8178,2.89,2.9638,3.0287,3.059,3.059,3.0069,2.9423,2.9908,3.0635,3.1753,3.2874,3.3596,3.4054,3.4233,3.4247,3.4294,3.4076,3.389,3.3868,3.3934,3.413,3.4261,3.438,3.4468,3.4468,3.4468,3.4468,3.4468,3.4468,3.4468,3.4468,3.4468,3.4468,3.4468,3.4468,3.4468,2.7728,2.7568,2.6758,2.5946,2.5217,2.4963,2.4883,2.4883,2.4883,2.4735,2.4538,2.4301,2.4211,2.4211,2.4211,2.4211,2.4211,2.4211,2.4211,2.4211,2.4211,2.4211,2.4211,2.4211,2.4211,2.4211,2.4211,2.4211,2.4211,2.4211,2.4211,2.4211,2.4211,2.4152,2.4053,2.3088,2.2232,2.1674,2.1173,2.1019,2.0925,2.0925,2.0925,2.0925,2.0925,2.0925,2.0925,2.0925,2.0925,2.0925,2.0925,2.0925,2.0925,2.0925,2.0925,2.0925,2.0925,2.0925,2.0925,2.0925,2.0925,2.0925,2.0925,2.0925,2.0925,2.0992,2.1391,2.2274,2.298,2.4014,2.49,2.5712,2.6182,2.648,2.6845,2.7329,2.7781,2.8473,2.9134,2.9586,3.0068,3.062,3.107,3.1272,3.0964,3.089,3.1368,3.2046,3.2892,3.349,3.4155,3.4289,3.4468,3.4436,3.4294,3.4032,3.3879,3.3857,3.3967,3.4207,3.4293,3.4413,3.4468,3.4468,3.4468,3.4468,3.4468,3.4468,3.4468,3.4468,3.4468,3.4468,3.4468,3.4468,3.4468,2.7376,2.6797,2.6514,2.5963,2.5288,2.5204,2.5186,2.5128,2.4981,2.4833,2.4686,2.4399,2.4211,2.4211,2.4202,2.4202,2.4211,2.4211,2.4211,2.4211,2.4211,2.4211,2.4211,2.4211,2.4211,2.4211,2.4211,2.4211,2.4211,2.4211,2.4211,2.4211,2.4152,2.3935,2.3637,2.3029,2.2627,2.1818,2.1471,2.1275,2.0968,2.0925,2.0925,2.0925,2.0925,2.0925,2.0925,2.0925,2.0925,2.0925,2.0925,2.0925,2.0925,2.0925,2.0925,2.0925,2.0925,2.0925,2.0925,2.0925,2.0925,2.0925,2.0925,2.0925,2.0933,2.1119,2.1789,2.2869,2.391,2.4854,2.531,2.631,2.6822,2.7022,2.7372,2.7965,2.8585,2.9398,3.0068,3.0328,3.0692,3.1097,3.1514,3.1936,3.1806,3.1916,3.2356,3.2724,3.3426,3.386,3.4412,3.4412,3.4457,3.438,3.4305,3.4174,3.4141,3.4185,3.4261,3.4337,3.4446,3.4468,3.4468,3.4468,3.4468,3.4468,3.4468,3.4468,3.4468,3.4468,3.4468,3.4468,3.4468,3.4468,3.4468,2.6904,2.6387,2.6221,2.5907,2.545,2.543,2.544,2.5382,2.5088,2.4892,2.4794,2.4489,2.4251,2.4251,2.4251,2.4251,2.4202,2.4211,2.4211,2.4211,2.4211,2.4211,2.4211,2.4211,2.4211,2.4211,2.4211,2.4211,2.4211,2.4211,2.4211,2.4211,2.4211,2.4044,2.3687,2.3379,2.2878,2.2173,2.1827,2.1377,2.107,2.0925,2.0925,2.0925,2.0925,2.0925,2.0925,2.0925,2.0925,2.0925,2.0925,2.0925,2.0925,2.0925,2.0925,2.0925,2.0925,2.0925,2.0925,2.0925,2.0925,2.0925,2.0925,2.0988,2.123,2.181,2.2719,2.3774,2.5029,2.5862,2.6532,2.746,2.7549,2.7752,2.8137,2.8734,2.946,3.0276,3.0744,3.095,3.1064,3.1468,3.1891,3.2383,3.2661,3.2933,3.3289,3.3594,3.3889,3.4217,3.4468,3.4468,3.4468,3.4424,3.4402,3.438,3.438,3.4457,3.4468,3.4468,3.4468,3.4468,3.4468,3.4468,3.4468,3.4468,3.4468,3.4468,3.4468,3.4468,3.4468,3.4468,3.4468,3.4468,3.4468,2.6387,2.6309,2.5859,2.5693,2.5684,2.5684,2.5684,2.5635,2.5137,2.4892,2.4892,2.4587,2.4341,2.4251,2.4399,2.4341,2.4202,2.4211,2.4211,2.4211,2.4211,2.4211,2.4211,2.4211,2.4211,2.4211,2.4211,2.4211,2.4211,2.4211,2.4211,2.4211,2.4211,2.4102,2.3945,2.3637,2.3129,2.2636,2.2072,2.1623,2.1224,2.0976,2.0925,2.0925,2.0925,2.0925,2.0925,2.0925,2.0925,2.0925,2.0925,2.0925,2.0925,2.0925,2.0925,2.0925,2.0925,2.0925,2.0925,2.0925,2.1019,2.1078,2.1229,2.1243,2.1775,2.2703,2.3765,2.5161,2.6503,2.749,2.8353,2.8393,2.842,2.8714,2.9021,2.967,3.0318,3.0899,3.1311,3.1465,3.1465,3.176,3.2197,3.2667,3.3135,3.3486,3.3725,3.403,3.425,3.4271,3.4468,3.4468,3.4468,3.4468,3.4468,3.4468,3.4468,3.4468,3.4468,3.4468,3.4468,3.4468,3.4468,3.4468,3.4468,3.4468,3.4468,3.4468,3.4468,3.4468,3.4468,3.4468,3.4468,3.4468,3.4468,2.6201,2.5869,2.5742,2.5684,2.5684,2.5684,2.5684,2.5635,2.5137,2.4892,2.4883,2.444,2.4291,2.4211,2.4291,2.4251,2.4202,2.4211,2.4211,2.4211,2.4211,2.4211,2.4211,2.4211,2.4211,2.4211,2.4211,2.4211,2.4211,2.4211,2.4211,2.4211,2.4211,2.4211,2.4152,2.4044,2.3587,2.3079,2.2526,2.203,2.1479,2.1173,2.107,2.0968,2.0925,2.0925,2.0925,2.0925,2.0925,2.0925,2.0925,2.0925,2.0925,2.0925,2.0925,2.0925,2.0925,2.0925,2.0925,2.0925,2.1086,2.1714,2.2282,2.2655,2.2997,2.3817,2.5038,2.6522,2.7956,2.8959,2.9197,2.9181,2.9323,2.9586,2.9838,3.0214,3.0847,3.1208,3.1578,3.1589,3.1589,3.199,3.2437,3.2863,3.3289,3.3748,3.4119,3.4326,3.4468,3.4468,3.4468,3.4468,3.4468,3.4468,3.4468,3.4468,3.4468,3.4468,3.4468,3.4468,3.4468,3.4468,3.4468,3.4468,3.4468,3.4468,3.4468,3.4468,3.4468,3.4468,3.4468,3.4468,3.4468,3.4468,3.4468,2.5977,2.5693,2.5684,2.5684,2.5684,2.5684,2.5684,2.5586,2.5137,2.4932,2.4981,2.4637,2.444,2.439,2.444,2.4399,2.4211,2.4211,2.4211,2.4211,2.4211,2.4211,2.4211,2.4211,2.4211,2.4211,2.4211,2.4211,2.4211,2.4211,2.4211,2.4211,2.4211,2.4211,2.4202,2.4152,2.3994,2.3587,2.3129,2.2526,2.203,2.1522,2.1267,2.1173,2.1078,2.0925,2.0925,2.0925,2.0925,2.0925,2.0925,2.0925,2.0925,2.0925,2.0925,2.0925,2.0925,2.0925,2.0968,2.1564,2.1842,2.2537,2.3602,2.4594,2.5339,2.6163,2.7058,2.814,2.933,3.0224,3.0089,3.0005,3.0172,3.0339,3.0536,3.0744,3.1105,3.1465,3.1589,3.1662,3.188,3.2208,3.2612,3.3049,3.3519,3.401,3.4294,3.4359,3.4468,3.4468,3.4468,3.4468,3.4468,3.4468,3.4468,3.4468,3.4468,3.4468,3.4468,3.4468,3.4468,3.4468,3.4468,3.4468,3.4468,3.4468,3.4468,3.4468,3.4468,3.4468,3.4468,3.4468,3.4468,3.4468,3.4468,2.5684,2.5684,2.5684,2.5684,2.5684,2.5684,2.5684,2.5635,2.5186,2.5079,2.5186,2.4981,2.4686,2.4538,2.4637,2.4489,2.4301,2.4211,2.4211,2.4211,2.4211,2.4211,2.4211,2.4211,2.4211,2.4211,2.4211,2.4211,2.4211,2.4211,2.4211,2.4211,2.4211,2.4211,2.4211,2.4211,2.4102,2.3994,2.3587,2.3129,2.2585,2.2131,2.1725,2.1581,2.1275,2.0968,2.0917,2.0925,2.0925,2.0925,2.0925,2.0925,2.0925,2.0925,2.0925,2.0925,2.0925,2.1165,2.1554,2.2241,2.3071,2.3889,2.4951,2.64,2.7393,2.7724,2.8416,2.9321,3.0473,3.0774,3.0733,3.064,3.0744,3.0806,3.0899,3.1105,3.1362,3.1567,3.1578,3.1717,3.2012,3.2361,3.2884,3.3321,3.3737,3.4261,3.4424,3.4457,3.4468,3.4468,3.4468,3.4468,3.4468,3.4468,3.4468,3.4468,3.4468,3.4468,3.4468,3.4468,3.4468,3.4468,3.4468,3.4468,3.4468,3.4468,3.4468,3.4468,3.4468,3.4468,3.4468,3.4468,3.4468,3.4468,3.4468,2.5684,2.5684,2.5684,2.5684,2.5684,2.5684,2.5684,2.5684,2.5342,2.5235,2.5235,2.503,2.4775,2.4578,2.4578,2.444,2.4251,2.4211,2.4211,2.4211,2.4211,2.4211,2.4211,2.4211,2.4211,2.4211,2.4211,2.4211,2.4211,2.4211,2.4211,2.4211,2.4211,2.4211,2.4211,2.4211,2.4202,2.4202,2.4003,2.3587,2.3129,2.2577,2.2173,2.1878,2.1522,2.1224,2.1121,2.0925,2.0925,2.0925,2.0925,2.0925,2.0925,2.0925,2.0925,2.0925,2.107,2.1564,2.2274,2.3213,2.4253,2.5721,2.6979,2.8239,2.9003,2.9054,2.9507,3.049,3.1105,3.1259,3.1311,3.1259,3.1259,3.1259,3.1259,3.1414,3.1567,3.1567,3.1567,3.188,3.2154,3.2579,3.3113,3.3519,3.3977,3.4272,3.4391,3.4468,3.4468,3.4468,3.4468,3.4468,3.4468,3.4468,3.4468,3.4468,3.4468,3.4468,3.4468,3.4468,3.4468,3.4468,3.4468,3.4468,3.4468,3.4468,3.4468,3.4468,3.4468,3.4468,3.4468,3.4468,3.4468,3.4468,3.4468,2.5684,2.5684,2.5684,2.5684,2.5684,2.5684,2.5645,2.5528,2.5489,2.544,2.5235,2.5039,2.4833,2.4637,2.4587,2.439,2.4251,2.4211,2.4211,2.4211,2.4211,2.4211,2.4211,2.4211,2.4211,2.4211,2.4211,2.4211,2.4211,2.4211,2.4211,2.4211,2.4211,2.4211,2.4211,2.4211,2.4211,2.4211,2.4211,2.4003,2.3587,2.3129,2.2769,2.2426,2.1979,2.1623,2.1326,2.107,2.0925,2.0925,2.0925,2.1318,2.142,2.1471,2.1318,2.1471,2.1869,2.24,2.3199,2.4368,2.5667,2.7232,2.8813,2.9907,3.0248,3.0312,3.0466,3.13,3.1362,3.1465,3.1465,3.1465,3.1465,3.1465,3.1465,3.1516,3.1567,3.1567,3.1804,3.2132,3.2481,3.2951,3.3431,3.3901,3.4283,3.436,3.4457,3.4468,3.4468,3.4468,3.4468,3.4468,3.4468,3.4468,3.4468,3.4468,3.4468,3.4468,3.4468,3.4468,3.4468,3.4468,3.4468,3.4468,3.4468,3.4468,3.4468,3.4468,3.4468,3.4468,3.4468,3.4468,3.4468,3.4524,3.4624,2.5684,2.5684,2.5684,2.5684,2.5684,2.5684,2.5596,2.544,2.5596,2.5586,2.5333,2.5039,2.4941,2.4794,2.4637,2.439,2.4251,2.4202,2.4211,2.4211,2.4211,2.4211,2.4211,2.4211,2.4211,2.4211,2.4211,2.4211,2.4211,2.4211,2.4211,2.4211,2.4211,2.4211,2.4211,2.4211,2.4211,2.4211,2.4211,2.4211,2.3954,2.3696,2.3379,2.2979,2.2476,2.1928,2.1674,2.1479,2.1173,2.1173,2.1326,2.1869,2.2266,2.2316,2.2358,2.2501,2.3135,2.3619,2.4352,2.6033,2.7232,2.8568,3.0131,3.0965,3.1203,3.1351,3.1505,3.1556,3.1567,3.1567,3.1567,3.1567,3.1567,3.1633,3.1633,3.1698,3.1709,3.1753,3.2132,3.247,3.2874,3.3344,3.3726,3.4207,3.4414,3.4446,3.4468,3.4468,3.4468,3.4468,3.4468,3.4468,3.4468,3.4468,3.4468,3.4468,3.4468,3.4468,3.4468,3.4468,3.4468,3.4468,3.4468,3.4468,3.4468,3.4468,3.4468,3.4468,3.4468,3.4468,3.4468,3.4468,3.4468,3.4579,3.4847,2.5684,2.5684,2.5684,2.5684,2.5684,2.5684,2.5684,2.5645,2.5635,2.5684,2.5489,2.5137,2.4892,2.4892,2.4637,2.439,2.4202,2.4211,2.4211,2.4211,2.4211,2.4211,2.4211,2.4211,2.4211,2.4211,2.4211,2.4211,2.4211,2.4211,2.4211,2.4211,2.4211,2.4211,2.4211,2.422,2.4257,2.4238,2.4248,2.4266,2.4211,2.3954,2.3746,2.3388,2.312,2.2719,2.2426,2.2274,2.2232,2.2232,2.2232,2.266,2.3103,2.3411,2.3511,2.4022,2.4646,2.5309,2.634,2.75,2.8657,2.9835,3.0989,3.1338,3.1465,3.1465,3.1567,3.1567,3.1567,3.1567,3.1567,3.1567,3.1589,3.1815,3.1891,3.211,3.223,3.2459,3.2765,3.3027,3.3311,3.3606,3.3814,3.4207,3.4413,3.4468,3.4468,3.4468,3.4468,3.4468,3.4468,3.4468,3.4468,3.4468,3.4468,3.4468,3.4468,3.4468,3.4468,3.4468,3.4468,3.4468,3.4468,3.4468,3.4468,3.4468,3.4468,3.4468,3.4468,3.4468,3.4468,3.4468,3.4524,3.4736,3.5058]}]]